{
  "fields": [{"type":"int","id":"_id"},{"info":{"notes":"","type_override":"","label":"Wasserleck - Sensor nicht angeschlossen"},"type":"int4","id":"leak"},{"info":{"notes":"Temperatur am Fühler in 30 cm Tiefe","type_override":"","label":"Temperatur"},"type":"float8","id":"temp"},{"info":{"notes":"","type_override":"","label":"Ventil"},"type":"int4","id":"valv"},{"info":{"notes":"Sensor in 30 cm Tiefe","type_override":"","label":"Bodenfeuchte "},"type":"int4","id":"vwc"},{"info":{"notes":"","type_override":"","label":"Batterie in %"},"type":"int4","id":"bat"},{"info":{"notes":"","type_override":"","label":"Luftfeuchtigkeit in % ---- nicht angeschlossen"},"type":"int4","id":"airhum"},{"info":{"notes":"","type_override":"","label":"Lufttemperatur in °C"},"type":"int4","id":"airtemp"},{"info":{"notes":"","type_override":"","label":""},"type":"float8","id":"e25"},{"info":{"notes":"","type_override":"","label":""},"type":"text","id":"id"},{"info":{"notes":"Sensor in 30 cm Tiefe","type_override":"","label":"Elektrische Leitfähigkeit"},"type":"int4","id":"ec"},{"info":{"notes":"","type_override":"","label":"Luftdruck - nicht angeschlossen"},"type":"int4","id":"airpres"},{"info":{"notes":"","type_override":"","label":""},"type":"timestamp","id":"timestamp"}],
  "records": [
    [1,0,25.94,0,0,97,0,23,0.99,"ulm-blaubeurerstr-02-02",0,65536,"2025-12-04T09:06:15"],
    [2,0,25.94,0,0,96,0,23,0.99,"ulm-blaubeurerstr-02-02",0,65536,"2025-12-04T09:07:38"],
    [3,0,25.92,0,0,96,0,23,0.99,"ulm-blaubeurerstr-02-02",0,65536,"2025-12-04T09:09:01"],
    [4,0,25.94,0,0,96,0,23,0.99,"ulm-blaubeurerstr-02-02",0,65536,"2025-12-04T09:10:24"],
    [5,0,22.35,0,0,98,0,22,1.02,"ulm-blaubeurerstr-03-02",0,65536,"2025-12-04T13:08:04"],
    [6,0,22.35,0,0,99,0,21,1.02,"ulm-blaubeurerstr-01-02",0,65536,"2025-12-04T13:08:51"],
    [7,0,22.2,0,0,97,0,22,1.02,"ulm-blaubeurerstr-02-02",0,65536,"2025-12-04T13:10:48"],
    [8,0,22.09,0,0,98,0,21,1.02,"ulm-blaubeurerstr-04-02",0,65536,"2025-12-04T13:14:35"],
    [9,0,22.21,0,0,98,0,22,1.02,"ulm-hafenbad-01-02",0,65536,"2025-12-04T13:18:42"],
    [10,0,22.11,0,0,98,0,22,1.02,"ulm-leimgrubenweg-01-02",0,65536,"2025-12-04T13:21:55"],
    [11,0,21.97,0,0,97,0,22,1.03,"ulm-leimgrubenweg-02-02",0,65536,"2025-12-04T13:23:44"],
    [12,0,22,0,0,98,0,21,1.02,"ulm-leimgrubenweg-03-02",0,65536,"2025-12-04T13:32:13"],
    [13,0,22.25,0,0,99,0,21,1.02,"ulm-heidenheimerstr-01-02",0,65536,"2025-12-04T13:35:43"],
    [14,0,22.16,0,0,98,0,21,1.02,"ulm-heidenheimerstr-02-02",0,65536,"2025-12-04T13:38:32"],
    [15,0,22.13,0,0,97,0,21,1.02,"ulm-schwambergerstr-01-02",0,65536,"2025-12-04T13:40:10"],
    [16,0,21.9,0,0,97,0,21,1.03,"ulm-schwambergerstr-03-02",0,65536,"2025-12-04T13:46:09"],
    [17,0,22.08,0,0,98,0,21,1.02,"ulm-rosengarten-01-02",0,65536,"2025-12-04T13:49:06"],
    [18,0,21.92,0,0,98,0,21,1.03,"ulm-alterfriedhof-01-02",0,65536,"2025-12-04T13:51:19"],
    [19,0,21.73,0,0,98,0,21,1.03,"ulm-talkingtree-troeti-01-02",0,65536,"2025-12-04T14:01:36"],
    [20,0,21.84,0,0,98,0,21,1.03,"ulm-talkingtree-manni-01-02",0,65536,"2025-12-04T14:03:51"],
    [21,0,21.8,0,0,97,0,21,1.03,"ulm-talkingtree-maja-01-02",0,65536,"2025-12-04T14:06:06"],
    [22,0,21.7,0,0,98,0,21,1.03,"ulm-talkingtree-friedl-01-02",0,65536,"2025-12-04T14:11:26"],
    [23,0,21.63,0,0,97,0,21,1.03,"ulm-talkingtree-pamina-01-02",0,65536,"2025-12-04T14:13:15"],
    [24,0,21.82,0,0,98,0,21,1.03,"ulm-talkingtree-quentin-01-02",0,65536,"2025-12-04T14:20:37"],
    [25,0,21.86,0,0,98,0,21,1.03,"ulm-talkingtree-willi-01-02",0,65536,"2025-12-04T14:23:34"],
    [26,0,21.89,0,0,98,0,21,1.03,"ulm-aeinsteinallee-01-02",0,65536,"2025-12-04T14:25:15"],
    [27,0,21.79,0,0,97,0,21,1.03,"ulm-aeinsteinallee-02-02",0,65536,"2025-12-04T14:27:06"],
    [28,0,21.68,0,0,97,0,21,1.03,"ulm-aeinsteinallee-03-02",0,65536,"2025-12-04T14:29:12"],
    [29,0,21.82,0,0,98,0,21,1.03,"ulm-aeinsteinallee-04-02",0,65536,"2025-12-04T14:30:42"],
    [30,0,21.66,0,0,97,0,21,1.03,"ulm-aeinsteinallee-05-02",0,65536,"2025-12-04T14:32:15"],
    [31,0,22.1,0,0,98,0,21,1.02,"ulm-blaubeurerstr-03-02",0,65536,"2025-12-04T17:08:03"],
    [32,0,22.1,0,0,99,0,21,1.02,"ulm-blaubeurerstr-01-02",0,65536,"2025-12-04T17:08:50"],
    [33,0,21.87,0,0,97,0,21,1.03,"ulm-blaubeurerstr-02-02",0,65536,"2025-12-04T17:10:46"],
    [34,0,21.84,0,0,99,0,21,1.03,"ulm-blaubeurerstr-04-02",0,65536,"2025-12-04T17:14:34"],
    [35,0,21.95,0,0,99,0,21,1.03,"ulm-hafenbad-01-02",0,65536,"2025-12-04T17:18:41"],
    [36,0,21.85,0,0,98,0,21,1.03,"ulm-leimgrubenweg-01-02",0,65536,"2025-12-04T17:21:54"],
    [37,0,21.73,0,0,97,0,21,1.03,"ulm-leimgrubenweg-02-02",0,65536,"2025-12-04T17:23:44"],
    [38,0,21.81,0,0,98,0,21,1.03,"ulm-leimgrubenweg-03-02",0,65536,"2025-12-04T17:32:12"],
    [39,0,21.89,0,0,98,0,21,1.03,"ulm-heidenheimerstr-02-02",0,65536,"2025-12-04T17:38:31"],
    [40,0,21.92,0,0,98,0,21,1.03,"ulm-schwambergerstr-01-02",0,65536,"2025-12-04T17:40:09"],
    [41,0,21.71,0,0,98,0,21,1.03,"ulm-schwambergerstr-03-02",0,65536,"2025-12-04T17:46:08"],
    [42,0,21.88,0,0,98,0,21,1.03,"ulm-rosengarten-01-02",0,65536,"2025-12-04T17:49:06"],
    [43,0,21.73,0,0,97,0,21,1.03,"ulm-alterfriedhof-01-02",0,65536,"2025-12-04T17:51:17"],
    [44,0,21.58,0,0,98,0,21,1.03,"ulm-talkingtree-troeti-01-02",0,65536,"2025-12-04T18:01:35"],
    [45,0,21.64,0,0,98,0,21,1.03,"ulm-talkingtree-manni-01-02",0,65536,"2025-12-04T18:03:50"],
    [46,0,21.64,0,0,98,0,21,1.03,"ulm-talkingtree-maja-01-02",0,65536,"2025-12-04T18:06:05"],
    [47,0,21.6,0,0,98,0,21,1.03,"ulm-talkingtree-friedl-01-02",0,65536,"2025-12-04T18:11:25"],
    [48,0,21.48,0,0,98,0,21,1.03,"ulm-talkingtree-pamina-01-02",0,65536,"2025-12-04T18:13:14"],
    [49,0,21.62,0,0,98,0,21,1.03,"ulm-talkingtree-quentin-01-02",0,65536,"2025-12-04T18:20:36"],
    [50,0,21.68,0,0,98,0,21,1.03,"ulm-talkingtree-willi-01-02",0,65536,"2025-12-04T18:23:32"],
    [51,0,21.68,0,0,98,0,21,1.03,"ulm-aeinsteinallee-01-02",0,65536,"2025-12-04T18:25:14"],
    [52,0,21.58,0,0,98,0,21,1.03,"ulm-aeinsteinallee-02-02",0,65536,"2025-12-04T18:27:04"],
    [53,0,21.43,0,0,98,0,21,1.03,"ulm-aeinsteinallee-03-02",0,65536,"2025-12-04T18:29:11"],
    [54,0,21.52,0,0,98,0,20,1.03,"ulm-aeinsteinallee-04-02",0,65536,"2025-12-04T18:30:40"],
    [55,0,21.36,0,0,98,0,21,1.03,"ulm-aeinsteinallee-05-02",0,65536,"2025-12-04T18:32:15"],
    [56,0,20.69,0,0,98,0,20,1.04,"ulm-blaubeurerstr-03-02",0,65536,"2025-12-04T21:08:02"],
    [57,0,20.84,0,0,99,0,20,1.04,"ulm-blaubeurerstr-01-02",0,65536,"2025-12-04T21:08:48"],
    [58,0,21,0,0,98,0,21,1.03,"ulm-blaubeurerstr-02-02",0,65536,"2025-12-04T21:10:45"],
    [59,0,21.15,0,0,98,0,20,1.03,"ulm-blaubeurerstr-04-02",0,65536,"2025-12-04T21:14:32"],
    [60,0,20.79,0,0,99,0,20,1.04,"ulm-hafenbad-01-02",0,65536,"2025-12-04T21:18:39"],
    [61,0,21.03,0,0,98,0,20,1.03,"ulm-leimgrubenweg-01-02",0,65536,"2025-12-04T21:21:53"],
    [62,0,20.53,0,0,97,0,20,1.04,"ulm-leimgrubenweg-02-02",0,65536,"2025-12-04T21:23:42"],
    [63,0,20.67,0,0,98,0,20,1.04,"ulm-leimgrubenweg-03-02",0,65536,"2025-12-04T21:32:10"],
    [64,0,21.05,0,0,99,0,20,1.03,"ulm-heidenheimerstr-01-02",0,65536,"2025-12-04T21:35:40"],
    [65,0,20.9,0,0,98,0,20,1.04,"ulm-heidenheimerstr-02-02",0,65536,"2025-12-04T21:38:29"],
    [66,0,20.87,0,0,98,0,20,1.04,"ulm-schwambergerstr-01-02",0,65536,"2025-12-04T21:40:08"],
    [67,0,20.51,0,0,98,0,20,1.04,"ulm-schwambergerstr-03-02",0,65536,"2025-12-04T21:46:07"],
    [68,0,20.75,0,0,99,0,20,1.04,"ulm-rosengarten-01-02",0,65536,"2025-12-04T21:49:05"],
    [69,0,20.45,0,0,99,0,20,1.04,"ulm-talkingtree-troeti-01-02",0,65536,"2025-12-04T22:01:33"],
    [70,0,20.58,0,0,98,0,20,1.04,"ulm-talkingtree-manni-01-02",0,65536,"2025-12-04T22:03:49"],
    [71,0,20.5,0,0,98,0,20,1.04,"ulm-talkingtree-maja-01-02",0,65536,"2025-12-04T22:06:04"],
    [72,0,20.37,0,0,98,0,20,1.04,"ulm-talkingtree-friedl-01-02",0,65536,"2025-12-04T22:11:24"],
    [73,0,20.42,0,0,98,0,20,1.04,"ulm-talkingtree-pamina-01-02",0,65536,"2025-12-04T22:13:13"],
    [74,0,20.57,0,0,98,0,20,1.04,"ulm-talkingtree-willi-01-02",0,65536,"2025-12-04T22:23:30"],
    [75,0,20.51,0,0,98,0,20,1.04,"ulm-aeinsteinallee-01-02",0,65536,"2025-12-04T22:25:12"],
    [76,0,20.46,0,0,98,0,20,1.04,"ulm-aeinsteinallee-02-02",0,65536,"2025-12-04T22:27:02"],
    [77,0,20.27,0,0,98,0,20,1.04,"ulm-aeinsteinallee-03-02",0,65536,"2025-12-04T22:29:10"],
    [78,0,20.36,0,0,98,0,19,1.04,"ulm-aeinsteinallee-04-02",0,65536,"2025-12-04T22:30:39"],
    [79,0,20.21,0,0,98,0,20,1.04,"ulm-aeinsteinallee-05-02",0,65536,"2025-12-04T22:32:13"],
    [80,0,20.01,0,0,98,0,19,1.04,"ulm-blaubeurerstr-03-02",0,65536,"2025-12-05T01:08:01"],
    [81,0,20.2,0,0,99,0,19,1.04,"ulm-blaubeurerstr-01-02",0,65536,"2025-12-05T01:08:47"],
    [82,0,20.31,0,0,98,0,20,1.04,"ulm-blaubeurerstr-02-02",0,65536,"2025-12-05T01:10:43"],
    [83,0,20.12,0,0,99,0,19,1.04,"ulm-hafenbad-01-02",0,65536,"2025-12-05T01:18:38"],
    [84,0,20.29,0,0,98,0,20,1.04,"ulm-leimgrubenweg-01-02",0,65536,"2025-12-05T01:21:51"],
    [85,0,19.84,0,0,98,0,20,1.04,"ulm-leimgrubenweg-02-02",0,65536,"2025-12-05T01:23:42"],
    [86,0,20.02,0,0,99,0,19,1.04,"ulm-leimgrubenweg-03-02",0,65536,"2025-12-05T01:32:09"],
    [87,0,20.36,0,0,99,0,19,1.04,"ulm-heidenheimerstr-01-02",0,65536,"2025-12-05T01:35:39"],
    [88,0,20.28,0,0,98,0,20,1.04,"ulm-heidenheimerstr-02-02",0,65536,"2025-12-05T01:38:27"],
    [89,0,20.24,0,0,98,0,19,1.04,"ulm-schwambergerstr-01-02",0,65536,"2025-12-05T01:40:07"],
    [90,0,19.86,0,0,98,0,19,1.04,"ulm-schwambergerstr-03-02",0,65536,"2025-12-05T01:46:05"],
    [91,0,20.07,0,0,99,0,19,1.04,"ulm-rosengarten-01-02",0,65536,"2025-12-05T01:49:04"],
    [92,0,19.95,0,0,98,0,19,1.04,"ulm-alterfriedhof-01-02",0,65536,"2025-12-05T01:51:15"],
    [93,0,19.84,0,0,99,0,19,1.04,"ulm-talkingtree-troeti-01-02",0,65536,"2025-12-05T02:01:31"],
    [94,0,19.92,0,0,99,0,19,1.04,"ulm-talkingtree-manni-01-02",0,65536,"2025-12-05T02:03:47"],
    [95,0,19.73,0,0,98,0,19,1.04,"ulm-talkingtree-friedl-01-02",0,65536,"2025-12-05T02:11:23"],
    [96,0,19.92,0,0,98,0,19,1.04,"ulm-talkingtree-quentin-01-02",0,65536,"2025-12-05T02:20:34"],
    [97,0,19.89,0,0,98,0,19,1.04,"ulm-talkingtree-willi-01-02",0,65536,"2025-12-05T02:23:29"],
    [98,0,19.87,0,0,98,0,19,1.04,"ulm-aeinsteinallee-01-02",0,65536,"2025-12-05T02:25:10"],
    [99,0,19.84,0,0,98,0,19,1.04,"ulm-aeinsteinallee-02-02",0,65536,"2025-12-05T02:27:01"],
    [100,0,19.64,0,0,98,0,19,1.04,"ulm-aeinsteinallee-03-02",0,65536,"2025-12-05T02:29:09"],
    [101,0,19.71,0,0,99,0,19,1.04,"ulm-aeinsteinallee-04-02",0,65536,"2025-12-05T02:30:37"],
    [102,0,19.58,0,0,98,0,19,1.04,"ulm-aeinsteinallee-05-02",0,65536,"2025-12-05T02:32:12"],
    [103,0,20.74,0,0,99,0,20,1.04,"ulm-blaubeurerstr-03-02",0,65536,"2025-12-05T05:07:59"],
    [104,0,20.78,0,0,99,0,20,1.04,"ulm-blaubeurerstr-01-02",0,65536,"2025-12-05T05:08:45"],
    [105,0,20.23,0,0,98,0,20,1.04,"ulm-blaubeurerstr-02-02",0,65536,"2025-12-05T05:10:42"],
    [106,0,20.09,0,0,99,0,20,1.04,"ulm-blaubeurerstr-04-02",0,65536,"2025-12-05T05:14:29"],
    [107,0,20.42,0,0,99,0,20,1.04,"ulm-hafenbad-01-02",0,65536,"2025-12-05T05:18:36"],
    [108,0,20.17,0,0,98,0,20,1.04,"ulm-leimgrubenweg-01-02",0,65536,"2025-12-05T05:21:50"],
    [109,0,20.28,0,0,98,0,20,1.04,"ulm-leimgrubenweg-02-02",0,65536,"2025-12-05T05:23:41"],
    [110,0,20.78,0,0,99,0,20,1.04,"ulm-leimgrubenweg-03-02",0,65536,"2025-12-05T05:32:08"],
    [111,0,20.53,0,0,99,0,20,1.04,"ulm-heidenheimerstr-01-02",0,65536,"2025-12-05T05:35:38"],
    [112,0,20.45,0,0,98,0,20,1.04,"ulm-heidenheimerstr-02-02",0,65536,"2025-12-05T05:38:26"],
    [113,0,20.5,0,0,98,0,20,1.04,"ulm-schwambergerstr-01-02",0,65536,"2025-12-05T05:40:06"],
    [114,0,20.56,0,0,98,0,20,1.04,"ulm-schwambergerstr-03-02",0,65536,"2025-12-05T05:46:04"],
    [115,0,20.69,0,0,99,0,20,1.04,"ulm-rosengarten-01-02",0,65536,"2025-12-05T05:49:03"],
    [116,0,21,0,0,98,0,20,1.03,"ulm-alterfriedhof-01-02",0,65536,"2025-12-05T05:51:13"],
    [117,0,20.79,0,0,99,0,20,1.04,"ulm-talkingtree-troeti-01-02",0,65536,"2025-12-05T06:01:30"],
    [118,0,20.61,0,0,98,0,21,1.04,"ulm-talkingtree-manni-01-02",0,65536,"2025-12-05T06:03:46"],
    [119,0,20.62,0,0,98,0,20,1.04,"ulm-talkingtree-maja-01-02",0,65536,"2025-12-05T06:06:02"],
    [120,0,21,0,0,99,0,20,1.03,"ulm-talkingtree-friedl-01-02",0,65536,"2025-12-05T06:11:22"],
    [121,0,21.13,0,0,98,0,21,1.03,"ulm-talkingtree-pamina-01-02",0,65536,"2025-12-05T06:13:10"],
    [122,0,21.08,0,0,99,0,21,1.03,"ulm-talkingtree-quentin-01-02",0,65536,"2025-12-05T06:20:33"],
    [123,0,21.01,0,0,98,0,20,1.03,"ulm-talkingtree-willi-01-02",0,65536,"2025-12-05T06:23:27"],
    [124,0,21.27,0,0,99,0,21,1.03,"ulm-aeinsteinallee-01-02",0,65536,"2025-12-05T06:25:08"],
    [125,0,21.36,0,0,98,0,20,1.03,"ulm-aeinsteinallee-02-02",0,65536,"2025-12-05T06:26:59"],
    [126,0,21.4,0,0,98,0,21,1.03,"ulm-aeinsteinallee-03-02",0,65536,"2025-12-05T06:29:08"],
    [127,0,21.63,0,0,98,0,21,1.03,"ulm-aeinsteinallee-04-02",0,65536,"2025-12-05T06:30:36"],
    [128,0,21.47,0,0,98,0,21,1.03,"ulm-aeinsteinallee-05-02",0,65536,"2025-12-05T06:32:11"],
    [129,0,22.24,0,0,98,0,21,1.02,"ulm-blaubeurerstr-03-02",0,65536,"2025-12-05T09:07:58"],
    [130,0,22.26,0,0,99,0,21,1.02,"ulm-blaubeurerstr-01-02",0,65536,"2025-12-05T09:08:44"],
    [131,0,21.45,0,0,98,0,20,1.03,"ulm-blaubeurerstr-02-02",0,65536,"2025-12-05T09:10:41"],
    [132,0,20.98,0,0,99,0,21,1.04,"ulm-blaubeurerstr-04-02",0,65536,"2025-12-05T09:14:28"],
    [133,0,21.62,0,0,99,0,21,1.03,"ulm-hafenbad-01-02",0,65536,"2025-12-05T09:18:35"],
    [134,0,21.05,0,0,98,0,21,1.03,"ulm-leimgrubenweg-01-02",0,65536,"2025-12-05T09:21:49"],
    [135,0,21.56,0,0,98,0,21,1.03,"ulm-leimgrubenweg-02-02",0,65536,"2025-12-05T09:23:40"],
    [136,0,21.89,0,0,99,0,21,1.03,"ulm-leimgrubenweg-03-02",0,65536,"2025-12-05T09:32:06"],
    [137,0,21.7,0,0,100,0,22,1.03,"ulm-heidenheimerstr-01-02",0,65536,"2025-12-05T09:35:37"],
    [138,0,21.58,0,0,98,0,21,1.03,"ulm-heidenheimerstr-02-02",0,65536,"2025-12-05T09:38:24"],
    [139,0,21.65,0,0,98,0,21,1.03,"ulm-schwambergerstr-01-02",0,65536,"2025-12-05T09:40:05"],
    [140,0,21.77,0,0,98,0,21,1.03,"ulm-schwambergerstr-03-02",0,65536,"2025-12-05T09:46:03"],
    [141,0,21.79,0,0,99,0,22,1.03,"ulm-rosengarten-01-02",0,65536,"2025-12-05T09:49:02"],
    [142,0,22.28,0,0,98,0,22,1.02,"ulm-alterfriedhof-01-02",0,65536,"2025-12-05T09:51:12"],
    [143,0,21.4,0,0,98,0,20,1.03,"ulm-talkingtree-maja-01-02",0,65536,"2025-12-05T10:06:01"],
    [144,0,22.08,0,0,98,0,20,1.02,"ulm-talkingtree-pamina-01-02",0,65536,"2025-12-05T10:13:09"],
    [145,0,22.59,0,0,98,0,21,1.02,"ulm-talkingtree-quentin-01-02",0,65536,"2025-12-05T10:20:31"],
    [146,0,22.21,0,0,100,0,21,1.02,"ulm-heidenheimerstr-01-02",0,65536,"2025-12-05T13:35:36"],
    [147,0,21.88,0,0,98,0,21,1.03,"ulm-talkingtree-maja-01-02",0,65536,"2025-12-05T14:06:00"],
    [148,0,21.85,0,0,98,0,21,1.03,"ulm-talkingtree-pamina-01-02",0,65536,"2025-12-05T14:13:08"],
    [149,0,21.86,0,0,99,0,21,1.03,"ulm-talkingtree-quentin-01-02",0,65536,"2025-12-05T14:20:30"],
    [150,0,20.98,0,0,98,0,21,1.04,"ulm-talkingtree-pamina-01-02",0,65536,"2025-12-05T18:13:06"],
    [151,0,21.17,0,0,99,0,20,1.03,"ulm-talkingtree-quentin-01-02",0,65536,"2025-12-05T18:20:29"],
    [152,0,20.58,0,0,100,0,20,1.04,"ulm-heidenheimerstr-01-02",0,65536,"2025-12-05T21:35:34"],
    [153,0,20.21,0,0,99,0,20,1.04,"ulm-talkingtree-maja-01-02",0,65536,"2025-12-05T22:05:59"],
    [154,0,20.39,0,0,99,0,20,1.04,"ulm-talkingtree-quentin-01-02",0,65536,"2025-12-05T22:20:28"],
    [155,0,19.98,0,0,100,0,19,1.04,"ulm-heidenheimerstr-01-02",0,65536,"2025-12-06T01:35:33"],
    [156,0,19.61,0,0,99,0,19,1.04,"ulm-talkingtree-maja-01-02",0,65536,"2025-12-06T02:05:58"],
    [157,0,19.66,0,0,98,0,19,1.04,"ulm-talkingtree-pamina-01-02",0,65536,"2025-12-06T02:13:04"],
    [158,0,19.79,0,0,99,0,19,1.04,"ulm-talkingtree-quentin-01-02",0,65536,"2025-12-06T02:20:27"],
    [159,0,19.45,0,0,100,0,19,1.04,"ulm-heidenheimerstr-01-02",0,65536,"2025-12-06T05:35:31"],
    [160,0,19.14,0,0,99,0,19,1.04,"ulm-talkingtree-maja-01-02",0,65536,"2025-12-06T06:05:57"],
    [161,0,19.28,0,0,99,0,19,1.04,"ulm-talkingtree-pamina-01-02",0,65536,"2025-12-06T06:13:02"],
    [162,0,19.36,0,0,99,0,19,1.04,"ulm-talkingtree-quentin-01-02",0,65536,"2025-12-06T06:20:25"],
    [163,0,19.2,0,0,99,0,19,1.04,"ulm-talkingtree-maja-01-02",0,65536,"2025-12-06T10:05:56"],
    [164,0,19.29,0,0,98,0,19,1.04,"ulm-talkingtree-pamina-01-02",0,65536,"2025-12-06T10:13:01"],
    [165,0,19.39,0,0,99,0,19,1.04,"ulm-talkingtree-quentin-01-02",0,65536,"2025-12-06T10:20:24"],
    [166,0,19.54,0,0,100,0,19,1.04,"ulm-heidenheimerstr-01-02",0,65536,"2025-12-06T13:35:29"],
    [167,0,19.2,0,0,99,0,19,1.04,"ulm-talkingtree-maja-01-02",0,65536,"2025-12-06T14:05:55"],
    [168,0,19.37,0,0,99,0,19,1.04,"ulm-talkingtree-quentin-01-02",0,65536,"2025-12-06T14:20:23"],
    [169,0,19.36,0,0,100,0,19,1.04,"ulm-heidenheimerstr-01-02",0,65536,"2025-12-06T17:35:28"],
    [170,0,19.04,0,0,99,0,19,1.04,"ulm-talkingtree-maja-01-02",0,65536,"2025-12-06T18:05:54"],
    [171,0,19.09,0,0,99,0,19,1.04,"ulm-talkingtree-pamina-01-02",0,65536,"2025-12-06T18:12:59"],
    [172,0,19.19,0,0,99,0,19,1.04,"ulm-talkingtree-quentin-01-02",0,65536,"2025-12-06T18:20:22"],
    [173,0,19.37,0,0,100,0,19,1.04,"ulm-heidenheimerstr-01-02",0,65536,"2025-12-06T21:35:27"],
    [174,0,19.01,0,0,99,0,19,1.04,"ulm-talkingtree-maja-01-02",0,65536,"2025-12-06T22:05:53"],
    [175,0,19.04,0,0,99,0,19,1.04,"ulm-talkingtree-pamina-01-02",0,65536,"2025-12-06T22:12:57"],
    [176,0,19.15,0,0,99,0,18,1.04,"ulm-talkingtree-quentin-01-02",0,65536,"2025-12-06T22:20:21"],
    [177,0,18.99,0,0,99,0,19,1.05,"ulm-talkingtree-maja-01-02",0,65536,"2025-12-07T02:05:52"],
    [178,0,19.04,0,0,99,0,19,1.04,"ulm-talkingtree-pamina-01-02",0,65536,"2025-12-07T02:12:56"],
    [179,0,19.11,0,0,99,0,18,1.04,"ulm-talkingtree-quentin-01-02",0,65536,"2025-12-07T02:20:20"],
    [180,0,19.23,0,0,100,0,18,1.04,"ulm-heidenheimerstr-01-02",0,65536,"2025-12-07T05:35:25"],
    [181,0,18.91,0,0,99,0,18,1.05,"ulm-talkingtree-maja-01-02",0,65536,"2025-12-07T06:05:51"],
    [182,0,18.95,0,0,99,0,18,1.05,"ulm-talkingtree-pamina-01-02",0,65536,"2025-12-07T06:12:55"],
    [183,0,19.06,0,0,100,0,18,1.04,"ulm-talkingtree-quentin-01-02",0,65536,"2025-12-07T06:20:18"],
    [184,0,19.33,0,0,100,0,18,1.04,"ulm-heidenheimerstr-01-02",0,65536,"2025-12-07T09:35:24"],
    [185,0,19.2,0,0,99,0,19,1.04,"ulm-talkingtree-pamina-01-02",0,65536,"2025-12-07T10:12:54"],
    [186,0,19.2,0,0,100,0,19,1.04,"ulm-talkingtree-quentin-01-02",0,65536,"2025-12-07T10:20:17"],
    [187,0,19.45,0,0,100,0,19,1.04,"ulm-heidenheimerstr-01-02",0,65536,"2025-12-07T13:35:23"],
    [188,0,19.08,0,0,99,0,19,1.04,"ulm-talkingtree-maja-01-02",0,65536,"2025-12-07T14:05:49"],
    [189,0,19.09,0,0,99,0,19,1.04,"ulm-talkingtree-pamina-01-02",0,65536,"2025-12-07T14:12:52"],
    [190,0,19.35,0,0,100,0,19,1.04,"ulm-heidenheimerstr-01-02",0,65536,"2025-12-07T17:35:22"],
    [191,0,19.04,0,0,99,0,19,1.04,"ulm-talkingtree-maja-01-02",0,65536,"2025-12-07T18:05:48"],
    [192,0,19.09,0,0,99,0,19,1.04,"ulm-talkingtree-pamina-01-02",0,65536,"2025-12-07T18:12:51"],
    [193,0,19.16,0,0,100,0,19,1.04,"ulm-talkingtree-quentin-01-02",0,65536,"2025-12-07T18:20:15"],
    [194,0,19.23,0,0,100,0,18,1.04,"ulm-heidenheimerstr-01-02",0,65536,"2025-12-07T21:35:20"],
    [195,0,18.96,0,0,99,0,18,1.05,"ulm-talkingtree-maja-01-02",0,65536,"2025-12-07T22:05:47"],
    [196,0,19.04,0,0,99,0,19,1.04,"ulm-talkingtree-pamina-01-02",0,65536,"2025-12-07T22:12:50"],
    [197,0,19.12,0,0,100,0,18,1.04,"ulm-talkingtree-quentin-01-02",0,65536,"2025-12-07T22:20:14"],
    [198,0,19.29,0,0,100,0,18,1.04,"ulm-heidenheimerstr-01-02",0,65536,"2025-12-08T01:35:19"],
    [199,0,19.07,0,0,99,0,19,1.04,"ulm-talkingtree-pamina-01-02",0,65536,"2025-12-08T02:12:48"],
    [200,0,19.14,0,0,100,0,19,1.04,"ulm-talkingtree-quentin-01-02",0,65536,"2025-12-08T02:20:13"],
    [201,0,19.73,0,0,99,0,19,1.04,"ulm-talkingtree-maja-01-02",0,65536,"2025-12-08T06:05:45"],
    [202,0,19.73,0,0,99,0,19,1.04,"ulm-talkingtree-pamina-01-02",0,65536,"2025-12-08T06:12:47"],
    [203,0,19.79,0,0,99,0,19,1.04,"ulm-talkingtree-quentin-01-02",0,65536,"2025-12-08T06:20:11"],
    [204,0,20.76,0,0,100,0,20,1.04,"ulm-heidenheimerstr-01-02",0,65536,"2025-12-08T09:35:17"],
    [205,0,20.57,0,0,99,0,20,1.04,"ulm-talkingtree-pamina-01-02",0,65536,"2025-12-08T10:12:46"],
    [206,0,20.64,0,0,99,0,20,1.04,"ulm-talkingtree-quentin-01-02",0,65536,"2025-12-08T10:20:10"],
    [207,0,21.03,0,0,100,0,20,1.03,"ulm-heidenheimerstr-01-02",0,65536,"2025-12-08T13:35:16"],
    [208,0,20.68,0,0,99,0,20,1.04,"ulm-talkingtree-maja-01-02",0,65536,"2025-12-08T14:05:43"],
    [209,0,20.63,0,0,99,0,20,1.04,"ulm-talkingtree-pamina-01-02",0,65536,"2025-12-08T14:12:44"],
    [210,0,20.73,0,0,99,0,20,1.04,"ulm-talkingtree-quentin-01-02",0,65536,"2025-12-08T14:20:09"],
    [211,0,20.29,0,0,100,0,19,1.04,"ulm-heidenheimerstr-01-02",0,65536,"2025-12-08T17:35:15"],
    [212,0,19.92,0,0,99,0,20,1.04,"ulm-talkingtree-maja-01-02",0,65536,"2025-12-08T18:05:42"],
    [213,0,19.95,0,0,99,0,19,1.04,"ulm-talkingtree-pamina-01-02",0,65536,"2025-12-08T18:12:43"],
    [214,0,20.08,0,0,100,0,19,1.04,"ulm-talkingtree-quentin-01-02",0,65536,"2025-12-08T18:20:08"],
    [215,0,19.94,0,0,100,0,19,1.04,"ulm-heidenheimerstr-01-02",0,65536,"2025-12-08T21:35:14"],
    [216,0,19.61,0,0,99,0,19,1.04,"ulm-talkingtree-maja-01-02",0,65536,"2025-12-08T22:05:41"],
    [217,0,19.66,0,0,99,0,19,1.04,"ulm-talkingtree-pamina-01-02",0,65536,"2025-12-08T22:12:42"],
    [218,0,19.77,0,0,100,0,19,1.04,"ulm-talkingtree-quentin-01-02",0,65536,"2025-12-08T22:20:07"],
    [219,0,19.62,0,0,100,0,19,1.04,"ulm-heidenheimerstr-01-02",0,65536,"2025-12-09T01:35:13"],
    [220,0,19.31,0,0,99,0,19,1.04,"ulm-talkingtree-maja-01-02",0,65536,"2025-12-09T02:05:40"],
    [221,0,19.36,0,0,99,0,19,1.04,"ulm-talkingtree-pamina-01-02",0,65536,"2025-12-09T02:12:41"],
    [222,0,20.58,0,0,100,0,20,1.04,"ulm-heidenheimerstr-01-02",0,65536,"2025-12-09T05:35:12"],
    [223,0,20.44,0,0,99,0,20,1.04,"ulm-talkingtree-maja-01-02",0,65536,"2025-12-09T06:05:39"],
    [224,0,20.46,0,0,99,0,20,1.04,"ulm-talkingtree-pamina-01-02",0,65536,"2025-12-09T06:12:39"],
    [225,0,20.51,0,0,99,0,20,1.04,"ulm-talkingtree-quentin-01-02",0,65536,"2025-12-09T06:20:04"],
    [226,0,21.92,0,0,100,0,21,1.03,"ulm-heidenheimerstr-01-02",0,65536,"2025-12-09T09:35:10"],
    [227,0,21.8,0,0,99,0,21,1.03,"ulm-talkingtree-pamina-01-02",0,65536,"2025-12-09T10:12:38"],
    [228,0,21.78,0,0,99,0,21,1.03,"ulm-talkingtree-quentin-01-02",0,65536,"2025-12-09T10:20:03"],
    [229,0,22.48,0,0,100,0,22,1.02,"ulm-heidenheimerstr-01-02",0,65536,"2025-12-09T13:35:09"],
    [230,0,22.2,0,0,99,0,22,1.02,"ulm-talkingtree-maja-01-02",0,65536,"2025-12-09T14:05:37"],
    [231,0,22.11,0,0,99,0,22,1.02,"ulm-talkingtree-pamina-01-02",0,65536,"2025-12-09T14:12:37"],
    [232,0,22.18,0,0,99,0,22,1.02,"ulm-talkingtree-quentin-01-02",0,65536,"2025-12-09T14:20:02"],
    [233,0,22.26,0,0,100,0,21,1.02,"ulm-heidenheimerstr-01-02",0,65536,"2025-12-09T17:35:08"],
    [234,0,21.9,0,0,99,0,21,1.03,"ulm-talkingtree-maja-01-02",0,65536,"2025-12-09T18:05:36"],
    [235,0,21.82,0,0,99,0,21,1.03,"ulm-talkingtree-pamina-01-02",0,65536,"2025-12-09T18:12:35"],
    [236,0,21.93,0,0,99,0,21,1.03,"ulm-talkingtree-quentin-01-02",0,65536,"2025-12-09T18:20:01"],
    [237,0,21.32,0,0,100,0,20,1.03,"ulm-heidenheimerstr-01-02",0,65536,"2025-12-09T21:35:07"],
    [238,0,20.93,0,0,99,0,21,1.04,"ulm-talkingtree-maja-01-02",0,65536,"2025-12-09T22:05:35"],
    [239,0,20.94,0,0,99,0,20,1.04,"ulm-talkingtree-pamina-01-02",0,65536,"2025-12-09T22:12:34"],
    [240,0,21.08,0,0,100,0,20,1.03,"ulm-talkingtree-quentin-01-02",0,65536,"2025-12-09T22:20:00"],
    [241,0,20.72,0,0,100,0,20,1.04,"ulm-heidenheimerstr-01-02",0,65536,"2025-12-10T01:35:06"],
    [242,0,20.39,0,0,99,0,20,1.04,"ulm-talkingtree-pamina-01-02",0,65536,"2025-12-10T02:12:33"],
    [243,0,20.82,0,0,100,0,20,1.04,"ulm-heidenheimerstr-01-02",0,65536,"2025-12-10T05:35:05"],
    [244,0,20.65,0,0,99,0,20,1.04,"ulm-talkingtree-maja-01-02",0,65536,"2025-12-10T06:05:33"],
    [245,0,20.73,0,0,99,0,20,1.04,"ulm-talkingtree-quentin-01-02",0,65536,"2025-12-10T06:19:57"],
    [246,0,21.89,0,0,100,0,21,1.03,"ulm-heidenheimerstr-01-02",0,65536,"2025-12-10T09:35:04"],
    [247,0,21.75,0,0,99,0,21,1.03,"ulm-talkingtree-pamina-01-02",0,65536,"2025-12-10T10:12:30"],
    [248,0,21.73,0,0,100,0,21,1.03,"ulm-talkingtree-quentin-01-02",0,65536,"2025-12-10T10:19:56"],
    [249,0,22.87,0,0,100,0,22,1.02,"ulm-heidenheimerstr-01-02",0,65536,"2025-12-10T13:35:03"],
    [250,0,22.61,0,0,99,0,22,1.02,"ulm-talkingtree-maja-01-02",0,65536,"2025-12-10T14:05:32"],
    [251,0,22.51,0,0,99,0,22,1.02,"ulm-talkingtree-pamina-01-02",0,65536,"2025-12-10T14:12:29"],
    [252,0,22.51,0,0,100,0,22,1.02,"ulm-talkingtree-quentin-01-02",0,65536,"2025-12-10T14:19:55"],
    [253,0,22.44,0,0,100,0,22,1.02,"ulm-heidenheimerstr-01-02",0,65536,"2025-12-10T17:35:02"],
    [254,0,22.05,0,0,99,0,22,1.02,"ulm-talkingtree-maja-01-02",0,65536,"2025-12-10T18:05:31"],
    [255,0,22,0,0,99,0,22,1.02,"ulm-talkingtree-pamina-01-02",0,65536,"2025-12-10T18:12:28"],
    [256,0,22.1,0,0,99,0,21,1.02,"ulm-talkingtree-quentin-01-02",0,65536,"2025-12-10T18:19:54"],
    [257,0,21.66,0,0,100,0,21,1.03,"ulm-heidenheimerstr-01-02",0,65536,"2025-12-10T21:35:00"],
    [258,0,21.29,0,0,99,0,21,1.03,"ulm-talkingtree-maja-01-02",0,65536,"2025-12-10T22:05:30"],
    [259,0,21.33,0,0,99,0,21,1.03,"ulm-talkingtree-pamina-01-02",0,65536,"2025-12-10T22:12:26"],
    [260,0,21.25,0,0,100,0,20,1.03,"ulm-heidenheimerstr-01-02",0,65536,"2025-12-11T01:34:59"],
    [261,0,20.92,0,0,99,0,21,1.04,"ulm-talkingtree-maja-01-02",0,65536,"2025-12-11T02:05:29"],
    [262,0,20.94,0,0,99,0,20,1.04,"ulm-talkingtree-pamina-01-02",0,65536,"2025-12-11T02:12:25"],
    [263,0,21.05,0,0,100,0,20,1.03,"ulm-talkingtree-quentin-01-02",0,65536,"2025-12-11T02:19:52"],
    [264,0,21.41,0,0,100,0,21,1.03,"ulm-heidenheimerstr-01-02",0,65536,"2025-12-11T05:34:58"],
    [265,0,21.24,0,0,99,0,21,1.03,"ulm-talkingtree-maja-01-02",0,65536,"2025-12-11T06:05:28"],
    [266,0,21.28,0,0,99,0,21,1.03,"ulm-talkingtree-pamina-01-02",0,65536,"2025-12-11T06:12:24"],
    [267,0,21.26,0,0,100,0,21,1.03,"ulm-talkingtree-quentin-01-02",0,65536,"2025-12-11T06:19:50"],
    [268,0,22.08,0,0,100,0,21,1.02,"ulm-heidenheimerstr-01-02",0,65536,"2025-12-11T09:34:57"],
    [269,0,21.86,0,0,99,0,21,1.03,"ulm-talkingtree-maja-01-02",0,65536,"2025-12-11T10:05:27"],
    [270,0,21.85,0,0,99,0,21,1.03,"ulm-talkingtree-pamina-01-02",0,65536,"2025-12-11T10:12:23"],
    [271,0,21.88,0,0,100,0,21,1.03,"ulm-talkingtree-quentin-01-02",0,65536,"2025-12-11T10:19:49"],
    [272,0,22.26,0,0,100,0,21,1.02,"ulm-heidenheimerstr-01-02",0,65536,"2025-12-11T13:34:56"],
    [273,0,21.84,0,0,99,0,21,1.03,"ulm-talkingtree-pamina-01-02",0,65536,"2025-12-11T14:12:21"],
    [274,0,21.95,0,0,100,0,21,1.03,"ulm-talkingtree-quentin-01-02",0,65536,"2025-12-11T14:19:48"],
    [275,0,21.73,0,0,100,0,21,1.03,"ulm-heidenheimerstr-01-02",0,65536,"2025-12-11T17:34:55"],
    [276,0,21.41,0,0,99,0,21,1.03,"ulm-talkingtree-maja-01-02",0,65536,"2025-12-11T18:05:25"],
    [277,0,21.54,0,0,100,0,21,1.03,"ulm-talkingtree-quentin-01-02",0,65536,"2025-12-11T18:19:47"],
    [278,0,21.45,0,0,100,0,21,1.03,"ulm-heidenheimerstr-01-02",0,65536,"2025-12-11T21:34:54"],
    [279,0,21.15,0,0,99,0,21,1.03,"ulm-talkingtree-maja-01-02",0,65536,"2025-12-11T22:05:24"],
    [280,0,21.17,0,0,99,0,21,1.03,"ulm-talkingtree-pamina-01-02",0,65536,"2025-12-11T22:12:18"],
    [281,0,21.28,0,0,100,0,21,1.03,"ulm-talkingtree-quentin-01-02",0,65536,"2025-12-11T22:19:46"],
    [282,0,21.21,0,0,100,0,20,1.03,"ulm-heidenheimerstr-01-02",0,65536,"2025-12-12T01:34:53"],
    [283,0,20.89,0,0,99,0,21,1.04,"ulm-talkingtree-maja-01-02",0,65536,"2025-12-12T02:05:23"],
    [284,0,21.04,0,0,100,0,20,1.03,"ulm-talkingtree-quentin-01-02",0,65536,"2025-12-12T02:19:44"],
    [285,0,21.31,0,0,99,0,21,1.03,"ulm-talkingtree-maja-01-02",0,65536,"2025-12-12T06:05:22"],
    [286,0,21.41,0,0,99,0,21,1.03,"ulm-talkingtree-pamina-01-02",0,65536,"2025-12-12T06:12:16"],
    [287,0,21.38,0,0,100,0,21,1.03,"ulm-talkingtree-quentin-01-02",0,65536,"2025-12-12T06:19:43"],
    [288,0,22.02,0,0,99,0,21,1.02,"ulm-talkingtree-maja-01-02",0,65536,"2025-12-12T10:05:21"],
    [289,0,22.04,0,0,99,0,22,1.02,"ulm-talkingtree-pamina-01-02",0,65536,"2025-12-12T10:12:15"],
    [290,0,22.02,0,0,99,0,22,1.02,"ulm-talkingtree-quentin-01-02",0,65536,"2025-12-12T10:19:42"],
    [291,0,22.09,0,0,100,0,21,1.02,"ulm-heidenheimerstr-01-02",0,65536,"2025-12-12T13:34:49"],
    [292,0,21.84,0,0,99,0,21,1.03,"ulm-talkingtree-pamina-01-02",0,65536,"2025-12-12T14:12:13"],
    [293,0,21.9,0,0,100,0,21,1.03,"ulm-talkingtree-quentin-01-02",0,65536,"2025-12-12T14:19:41"],
    [294,0,21.93,0,0,100,0,21,1.03,"ulm-heidenheimerstr-01-02",0,65536,"2025-12-12T17:34:48"],
    [295,0,21.62,0,0,99,0,21,1.03,"ulm-talkingtree-maja-01-02",0,65536,"2025-12-12T18:05:19"],
    [296,0,21.64,0,0,99,0,21,1.03,"ulm-talkingtree-pamina-01-02",0,65536,"2025-12-12T18:12:12"],
    [297,0,21.73,0,0,99,0,21,1.03,"ulm-talkingtree-quentin-01-02",0,65536,"2025-12-12T18:19:40"],
    [298,0,21.45,0,0,100,0,21,1.03,"ulm-heidenheimerstr-01-02",0,65536,"2025-12-12T21:34:47"],
    [299,0,21.14,0,0,99,0,21,1.03,"ulm-talkingtree-maja-01-02",0,65536,"2025-12-12T22:05:18"],
    [300,0,21.31,0,0,99,0,21,1.03,"ulm-talkingtree-quentin-01-02",0,65536,"2025-12-12T22:19:39"],
    [301,0,21.07,0,0,100,0,20,1.03,"ulm-heidenheimerstr-01-02",0,65536,"2025-12-13T01:34:46"],
    [302,0,20.75,0,0,99,0,20,1.04,"ulm-talkingtree-maja-01-02",0,65536,"2025-12-13T02:05:17"],
    [303,0,20.95,0,0,100,0,20,1.04,"ulm-talkingtree-quentin-01-02",0,65536,"2025-12-13T02:19:37"],
    [304,0,20.73,0,0,100,0,20,1.04,"ulm-heidenheimerstr-01-02",0,65536,"2025-12-13T05:34:45"],
    [305,0,20.39,0,0,99,0,20,1.04,"ulm-talkingtree-maja-01-02",0,65536,"2025-12-13T06:05:16"],
    [306,0,20.45,0,0,99,0,20,1.04,"ulm-talkingtree-pamina-01-02",0,65536,"2025-12-13T06:12:08"],
    [307,0,20.59,0,0,100,0,20,1.04,"ulm-talkingtree-quentin-01-02",0,65536,"2025-12-13T06:19:36"],
    [308,0,20.1,0,0,99,0,20,1.04,"ulm-talkingtree-maja-01-02",0,65536,"2025-12-13T10:05:15"],
    [309,0,20.24,0,0,99,0,20,1.04,"ulm-talkingtree-pamina-01-02",0,65536,"2025-12-13T10:12:07"],
    [310,0,20.34,0,0,100,0,20,1.04,"ulm-talkingtree-quentin-01-02",0,65536,"2025-12-13T10:19:35"],
    [311,0,20.29,0,0,100,0,20,1.04,"ulm-heidenheimerstr-01-02",0,65536,"2025-12-13T13:34:43"],
    [312,0,19.92,0,0,100,0,20,1.04,"ulm-talkingtree-maja-01-02",0,65536,"2025-12-13T14:05:14"],
    [313,0,20.01,0,0,99,0,20,1.04,"ulm-talkingtree-pamina-01-02",0,65536,"2025-12-13T14:12:06"],
    [314,0,20.1,0,0,100,0,19,1.04,"ulm-talkingtree-quentin-01-02",0,65536,"2025-12-13T14:19:34"],
    [315,0,19.61,0,0,99,0,19,1.04,"ulm-talkingtree-maja-01-02",0,65536,"2025-12-13T18:05:13"],
    [316,0,19.68,0,0,99,0,19,1.04,"ulm-talkingtree-pamina-01-02",0,65536,"2025-12-13T18:12:04"],
    [317,0,19.79,0,0,100,0,19,1.04,"ulm-talkingtree-quentin-01-02",0,65536,"2025-12-13T18:19:33"],
    [318,0,19.86,0,0,100,0,19,1.04,"ulm-heidenheimerstr-01-02",0,65536,"2025-12-13T21:34:40"],
    [319,0,19.56,0,0,100,0,19,1.04,"ulm-talkingtree-maja-01-02",0,65536,"2025-12-13T22:05:12"],
    [320,0,19.64,0,0,99,0,19,1.04,"ulm-talkingtree-pamina-01-02",0,65536,"2025-12-13T22:12:03"],
    [321,0,19.69,0,0,100,0,19,1.04,"ulm-talkingtree-quentin-01-02",0,65536,"2025-12-13T22:19:31"],
    [322,0,19.7,0,0,100,0,19,1.04,"ulm-heidenheimerstr-01-02",0,65536,"2025-12-14T01:34:39"],
    [323,0,19.41,0,0,100,0,19,1.04,"ulm-talkingtree-maja-01-02",0,65536,"2025-12-14T02:05:11"],
    [324,0,19.46,0,0,100,0,19,1.04,"ulm-talkingtree-pamina-01-02",0,65536,"2025-12-14T02:12:02"],
    [325,0,19.59,0,0,100,0,19,1.04,"ulm-talkingtree-quentin-01-02",0,65536,"2025-12-14T02:19:30"],
    [326,0,19.64,0,0,100,0,19,1.04,"ulm-heidenheimerstr-01-02",0,65536,"2025-12-14T05:34:38"],
    [327,0,19.37,0,0,100,0,19,1.04,"ulm-talkingtree-maja-01-02",0,65536,"2025-12-14T06:05:10"],
    [328,0,19.44,0,0,99,0,19,1.04,"ulm-talkingtree-pamina-01-02",0,65536,"2025-12-14T06:12:00"],
    [329,0,19.54,0,0,100,0,19,1.04,"ulm-talkingtree-quentin-01-02",0,65536,"2025-12-14T06:19:29"],
    [330,0,19.7,0,0,100,0,19,1.04,"ulm-heidenheimerstr-01-02",0,65536,"2025-12-14T09:34:37"],
    [331,0,19.43,0,0,99,0,19,1.04,"ulm-talkingtree-pamina-01-02",0,65536,"2025-12-14T10:11:59"],
    [332,0,19.54,0,0,100,0,19,1.04,"ulm-talkingtree-quentin-01-02",0,65536,"2025-12-14T10:19:28"],
    [333,0,19.67,0,0,100,0,19,1.04,"ulm-heidenheimerstr-01-02",0,65536,"2025-12-14T13:34:36"],
    [334,0,19.31,0,0,99,0,19,1.04,"ulm-talkingtree-maja-01-02",0,65536,"2025-12-14T14:05:08"],
    [335,0,19.34,0,0,99,0,19,1.04,"ulm-talkingtree-pamina-01-02",0,65536,"2025-12-14T14:11:58"],
    [336,0,19.45,0,0,100,0,19,1.04,"ulm-talkingtree-quentin-01-02",0,65536,"2025-12-14T14:19:27"],
    [337,0,19.45,0,0,100,0,19,1.04,"ulm-heidenheimerstr-01-02",0,65536,"2025-12-14T17:34:35"],
    [338,0,19.24,0,0,100,0,19,1.04,"ulm-talkingtree-maja-01-02",0,65536,"2025-12-14T18:05:07"],
    [339,0,19.33,0,0,100,0,19,1.04,"ulm-talkingtree-pamina-01-02",0,65536,"2025-12-14T18:11:56"],
    [340,0,19.43,0,0,100,0,19,1.04,"ulm-talkingtree-quentin-01-02",0,65536,"2025-12-14T18:19:26"],
    [341,0,19.45,0,0,100,0,19,1.04,"ulm-heidenheimerstr-01-02",0,65536,"2025-12-14T21:34:34"],
    [342,0,19.14,0,0,100,0,19,1.04,"ulm-talkingtree-maja-01-02",0,65536,"2025-12-14T22:05:06"],
    [343,0,19.2,0,0,99,0,19,1.04,"ulm-talkingtree-pamina-01-02",0,65536,"2025-12-14T22:11:55"],
    [344,0,19.31,0,0,100,0,19,1.04,"ulm-talkingtree-quentin-01-02",0,65536,"2025-12-14T22:19:24"],
    [345,0,19.34,0,0,100,0,19,1.04,"ulm-heidenheimerstr-01-02",0,65536,"2025-12-15T01:34:33"],
    [346,0,19.06,0,0,100,0,19,1.04,"ulm-talkingtree-maja-01-02",0,65536,"2025-12-15T02:05:05"],
    [347,0,19.15,0,0,100,0,19,1.04,"ulm-talkingtree-pamina-01-02",0,65536,"2025-12-15T02:11:54"],
    [348,0,19.24,0,0,100,0,19,1.04,"ulm-talkingtree-quentin-01-02",0,65536,"2025-12-15T02:19:23"],
    [349,0,19.41,0,0,100,0,19,1.04,"ulm-heidenheimerstr-01-02",0,65536,"2025-12-15T05:34:32"],
    [350,0,19.26,0,0,100,0,19,1.04,"ulm-talkingtree-maja-01-02",0,65536,"2025-12-15T06:05:05"],
    [351,0,19.35,0,0,100,0,19,1.04,"ulm-talkingtree-pamina-01-02",0,65536,"2025-12-15T06:11:53"],
    [352,0,19.4,0,0,100,0,19,1.04,"ulm-talkingtree-quentin-01-02",0,65536,"2025-12-15T06:19:22"],
    [353,0,21.05,0,0,100,0,20,1.03,"ulm-heidenheimerstr-01-02",0,65536,"2025-12-15T09:34:31"],
    [354,0,20.83,0,0,99,0,20,1.04,"ulm-talkingtree-pamina-01-02",0,65536,"2025-12-15T10:11:51"],
    [355,0,20.84,0,0,100,0,21,1.04,"ulm-talkingtree-quentin-01-02",0,65536,"2025-12-15T10:19:21"],
    [356,0,21.5,0,0,100,0,21,1.03,"ulm-heidenheimerstr-01-02",0,65536,"2025-12-15T13:34:29"],
    [357,0,21.12,0,0,99,0,21,1.03,"ulm-talkingtree-pamina-01-02",0,65536,"2025-12-15T14:11:50"],
    [358,0,21.12,0,0,100,0,20,1.03,"ulm-heidenheimerstr-01-02",0,65536,"2025-12-15T17:34:28"],
    [359,0,20.65,0,0,99,0,20,1.04,"ulm-talkingtree-pamina-01-02",0,65536,"2025-12-15T18:11:49"],
    [360,0,20.11,0,0,100,0,19,1.04,"ulm-heidenheimerstr-01-02",0,65536,"2025-12-15T21:34:27"],
    [361,0,19.74,0,0,100,0,19,1.04,"ulm-talkingtree-maja-01-02",0,65536,"2025-12-15T22:05:01"],
    [362,0,19.79,0,0,99,0,19,1.04,"ulm-talkingtree-pamina-01-02",0,65536,"2025-12-15T22:11:47"],
    [363,0,19.52,0,0,100,0,19,1.04,"ulm-heidenheimerstr-01-02",0,65536,"2025-12-16T01:34:26"],
    [364,0,19.2,0,0,100,0,19,1.04,"ulm-talkingtree-maja-01-02",0,65536,"2025-12-16T02:05:00"],
    [365,0,19.41,0,0,100,0,19,1.04,"ulm-talkingtree-quentin-01-02",0,65536,"2025-12-16T02:19:16"],
    [366,0,20.32,0,0,100,0,20,1.04,"ulm-heidenheimerstr-01-02",0,65536,"2025-12-16T05:34:25"],
    [367,0,20.17,0,0,100,0,20,1.04,"ulm-talkingtree-maja-01-02",0,65536,"2025-12-16T06:04:59"],
    [368,0,20.24,0,0,99,0,20,1.04,"ulm-talkingtree-pamina-01-02",0,65536,"2025-12-16T06:11:45"],
    [369,0,20.24,0,0,100,0,20,1.04,"ulm-talkingtree-quentin-01-02",0,65536,"2025-12-16T06:19:15"],
    [370,0,21.81,0,0,100,0,21,1.03,"ulm-heidenheimerstr-01-02",0,65536,"2025-12-16T09:34:24"],
    [371,0,21.76,0,0,100,0,21,1.03,"ulm-talkingtree-maja-01-02",0,65536,"2025-12-16T10:04:58"],
    [372,0,21.58,0,0,99,0,21,1.03,"ulm-talkingtree-pamina-01-02",0,65536,"2025-12-16T10:11:43"],
    [373,0,21.6,0,0,100,0,21,1.03,"ulm-talkingtree-quentin-01-02",0,65536,"2025-12-16T10:19:14"],
    [374,0,22.08,0,0,100,0,21,1.02,"ulm-heidenheimerstr-01-02",0,65536,"2025-12-16T13:34:23"],
    [375,0,21.77,0,0,99,0,21,1.03,"ulm-talkingtree-maja-01-02",0,65536,"2025-12-16T14:04:57"],
    [376,0,21.65,0,0,99,0,21,1.03,"ulm-talkingtree-pamina-01-02",0,65536,"2025-12-16T14:11:42"],
    [377,0,21.8,0,0,100,0,21,1.03,"ulm-talkingtree-quentin-01-02",0,65536,"2025-12-16T14:19:13"],
    [378,0,21.45,0,0,100,0,21,1.03,"ulm-heidenheimerstr-01-02",0,65536,"2025-12-16T17:34:22"],
    [379,0,21.03,0,0,99,0,21,1.03,"ulm-talkingtree-maja-01-02",0,65536,"2025-12-16T18:04:56"],
    [380,0,21.01,0,0,100,0,20,1.03,"ulm-talkingtree-pamina-01-02",0,65536,"2025-12-16T18:11:41"],
    [381,0,21.18,0,0,100,0,20,1.03,"ulm-talkingtree-quentin-01-02",0,65536,"2025-12-16T18:19:12"],
    [382,0,20.45,0,0,100,0,20,1.04,"ulm-heidenheimerstr-01-02",0,65536,"2025-12-16T21:34:20"],
    [383,0,20.04,0,0,100,0,20,1.04,"ulm-talkingtree-maja-01-02",0,65536,"2025-12-16T22:04:55"],
    [384,0,20.1,0,0,99,0,20,1.04,"ulm-talkingtree-pamina-01-02",0,65536,"2025-12-16T22:11:40"],
    [385,0,20.27,0,0,100,0,20,1.04,"ulm-talkingtree-quentin-01-02",0,65536,"2025-12-16T22:19:10"],
    [386,0,19.84,0,0,100,0,19,1.04,"ulm-heidenheimerstr-01-02",0,65536,"2025-12-17T01:34:19"],
    [387,0,19.45,0,0,100,0,19,1.04,"ulm-talkingtree-maja-01-02",0,65536,"2025-12-17T02:04:54"],
    [388,0,19.54,0,0,100,0,19,1.04,"ulm-talkingtree-pamina-01-02",0,65536,"2025-12-17T02:11:38"],
    [389,0,19.67,0,0,100,0,19,1.04,"ulm-talkingtree-quentin-01-02",0,65536,"2025-12-17T02:19:09"],
    [390,0,20.23,0,0,100,0,20,1.04,"ulm-talkingtree-maja-01-02",0,65536,"2025-12-17T06:04:53"],
    [391,0,20.33,0,0,99,0,20,1.04,"ulm-talkingtree-pamina-01-02",0,65536,"2025-12-17T06:11:37"],
    [392,0,21.27,0,0,100,0,20,1.03,"ulm-heidenheimerstr-01-02",0,65536,"2025-12-17T09:34:17"],
    [393,0,21.05,0,0,99,0,21,1.03,"ulm-talkingtree-pamina-01-02",0,65536,"2025-12-17T10:11:36"],
    [394,0,21.08,0,0,100,0,21,1.03,"ulm-talkingtree-quentin-01-02",0,65536,"2025-12-17T10:19:07"],
    [395,0,21.05,0,0,99,0,21,1.03,"ulm-talkingtree-pamina-01-02",0,65536,"2025-12-17T14:11:34"],
    [396,0,21.16,0,0,100,0,20,1.03,"ulm-talkingtree-quentin-01-02",0,65536,"2025-12-17T14:19:06"],
    [397,0,21.14,0,0,100,0,20,1.03,"ulm-heidenheimerstr-01-02",0,65536,"2025-12-17T17:34:15"],
    [398,0,20.7,0,0,100,0,20,1.04,"ulm-talkingtree-maja-01-02",0,65536,"2025-12-17T18:04:50"],
    [399,0,20.81,0,0,100,0,20,1.04,"ulm-talkingtree-quentin-01-02",0,65536,"2025-12-17T18:19:04"],
    [400,0,20.29,0,0,100,0,19,1.04,"ulm-heidenheimerstr-01-02",0,65536,"2025-12-17T21:34:14"],
    [401,0,19.94,0,0,100,0,19,1.04,"ulm-talkingtree-pamina-01-02",0,65536,"2025-12-17T22:11:32"],
    [402,0,19.67,0,0,100,0,19,1.04,"ulm-heidenheimerstr-01-02",0,65536,"2025-12-18T01:34:13"],
    [403,0,19.33,0,0,100,0,19,1.04,"ulm-talkingtree-maja-01-02",0,65536,"2025-12-18T02:04:48"],
    [404,0,19.37,0,0,100,0,19,1.04,"ulm-talkingtree-pamina-01-02",0,65536,"2025-12-18T02:11:31"],
    [405,0,19.49,0,0,100,0,19,1.04,"ulm-talkingtree-quentin-01-02",0,65536,"2025-12-18T02:19:02"],
    [406,0,19.89,0,0,100,0,19,1.04,"ulm-talkingtree-maja-01-02",0,65536,"2025-12-18T06:04:47"],
    [407,0,20.02,0,0,99,0,20,1.04,"ulm-talkingtree-pamina-01-02",0,65536,"2025-12-18T06:11:29"],
    [408,0,19.96,0,0,100,0,20,1.04,"ulm-talkingtree-quentin-01-02",0,65536,"2025-12-18T06:19:01"],
    [409,0,21.48,0,0,100,0,21,1.03,"ulm-heidenheimerstr-01-02",0,65536,"2025-12-18T09:34:10"],
    [410,0,21.45,0,0,100,0,21,1.03,"ulm-talkingtree-maja-01-02",0,65536,"2025-12-18T10:04:46"],
    [411,0,21.33,0,0,100,0,21,1.03,"ulm-talkingtree-quentin-01-02",0,65536,"2025-12-18T10:19:00"],
    [412,0,22.24,0,0,100,0,21,1.02,"ulm-heidenheimerstr-01-02",0,65536,"2025-12-18T13:34:09"],
    [413,0,21.86,0,0,99,0,21,1.03,"ulm-talkingtree-maja-01-02",0,65536,"2025-12-18T14:04:45"],
    [414,0,21.72,0,0,99,0,21,1.03,"ulm-talkingtree-pamina-01-02",0,65536,"2025-12-18T14:11:27"],
    [415,0,21.74,0,0,99,0,21,1.03,"ulm-talkingtree-maja-01-02",0,65536,"2025-12-18T18:04:44"],
    [416,0,21.68,0,0,100,0,21,1.03,"ulm-talkingtree-pamina-01-02",0,65536,"2025-12-18T18:11:25"],
    [417,0,20.49,0,0,100,0,20,1.04,"ulm-talkingtree-maja-01-02",0,65536,"2025-12-18T22:04:43"],
    [418,0,20.46,0,0,100,0,20,1.04,"ulm-talkingtree-pamina-01-02",0,65536,"2025-12-18T22:11:24"],
    [419,0,20.6,0,0,100,0,20,1.04,"ulm-talkingtree-quentin-01-02",0,65536,"2025-12-18T22:18:56"],
    [420,0,19.74,0,0,99,0,19,1.04,"ulm-talkingtree-pamina-01-02",0,65536,"2025-12-19T02:11:23"],
    [421,0,19.84,0,0,100,0,19,1.04,"ulm-talkingtree-quentin-01-02",0,65536,"2025-12-19T02:18:55"],
    [422,0,20.14,0,0,100,0,20,1.04,"ulm-talkingtree-maja-01-02",0,65536,"2025-12-19T06:04:41"],
    [423,0,20.24,0,0,100,0,20,1.04,"ulm-talkingtree-pamina-01-02",0,65536,"2025-12-19T06:11:21"],
    [424,0,20.2,0,0,100,0,20,1.04,"ulm-talkingtree-quentin-01-02",0,65536,"2025-12-19T06:18:54"],
    [425,0,20.9,0,0,100,0,20,1.04,"ulm-talkingtree-maja-01-02",0,65536,"2025-12-19T10:04:40"],
    [426,0,20.85,0,0,100,0,20,1.04,"ulm-talkingtree-pamina-01-02",0,65536,"2025-12-19T10:11:20"],
    [427,0,20.96,0,0,100,0,20,1.04,"ulm-talkingtree-quentin-01-02",0,65536,"2025-12-19T10:18:53"],
    [428,0,20.46,0,0,100,0,20,1.04,"ulm-heidenheimerstr-01-02",0,65536,"2025-12-19T13:34:03"],
    [429,0,20.07,0,0,100,0,20,1.04,"ulm-talkingtree-maja-01-02",0,65536,"2025-12-19T14:04:39"],
    [430,0,20.11,0,0,100,0,20,1.04,"ulm-talkingtree-pamina-01-02",0,65536,"2025-12-19T14:11:19"],
    [431,0,20.23,0,0,100,0,20,1.04,"ulm-talkingtree-quentin-01-02",0,65536,"2025-12-19T14:18:51"],
    [432,0,19.99,0,0,100,0,19,1.04,"ulm-heidenheimerstr-01-02",0,65536,"2025-12-19T17:34:01"],
    [433,0,19.62,0,0,100,0,19,1.04,"ulm-talkingtree-maja-01-02",0,65536,"2025-12-19T18:04:38"],
    [434,0,19.62,0,0,100,0,19,1.04,"ulm-talkingtree-pamina-01-02",0,65536,"2025-12-19T18:11:18"],
    [435,0,19.75,0,0,100,0,19,1.04,"ulm-talkingtree-quentin-01-02",0,65536,"2025-12-19T18:18:50"],
    [436,0,19.26,0,0,100,0,19,1.04,"ulm-talkingtree-pamina-01-02",0,65536,"2025-12-19T22:11:16"],
    [437,0,19.34,0,0,100,0,19,1.04,"ulm-talkingtree-quentin-01-02",0,65536,"2025-12-19T22:18:49"],
    [438,0,19.36,0,0,100,0,18,1.04,"ulm-heidenheimerstr-01-02",0,65536,"2025-12-20T01:33:59"],
    [439,0,19.06,0,0,100,0,19,1.04,"ulm-talkingtree-pamina-01-02",0,65536,"2025-12-20T02:11:15"],
    [440,0,19.16,0,0,100,0,18,1.04,"ulm-talkingtree-quentin-01-02",0,65536,"2025-12-20T02:18:48"],
    [441,0,18.94,0,0,100,0,18,1.05,"ulm-talkingtree-pamina-01-02",0,65536,"2025-12-20T06:11:14"],
    [442,0,19.2,0,0,100,0,18,1.04,"ulm-heidenheimerstr-01-02",0,65536,"2025-12-20T09:33:57"],
    [443,0,19.14,0,0,100,0,19,1.04,"ulm-talkingtree-pamina-01-02",0,65536,"2025-12-20T10:11:12"],
    [444,0,19.15,0,0,100,0,19,1.04,"ulm-talkingtree-quentin-01-02",0,65536,"2025-12-20T10:18:46"],
    [445,0,19.04,0,0,100,0,19,1.04,"ulm-talkingtree-maja-01-02",0,65536,"2025-12-20T14:04:34"],
    [446,0,19.08,0,0,100,0,19,1.04,"ulm-talkingtree-pamina-01-02",0,65536,"2025-12-20T14:11:11"],
    [447,0,19.14,0,0,100,0,19,1.04,"ulm-talkingtree-quentin-01-02",0,65536,"2025-12-20T14:18:44"],
    [448,0,19.14,0,0,100,0,18,1.04,"ulm-heidenheimerstr-01-02",0,65536,"2025-12-20T17:33:55"],
    [449,0,18.79,0,0,100,0,18,1.05,"ulm-talkingtree-maja-01-02",0,65536,"2025-12-20T18:04:33"],
    [450,0,18.83,0,0,100,0,18,1.05,"ulm-talkingtree-pamina-01-02",0,65536,"2025-12-20T18:11:10"],
    [451,0,18.94,0,0,100,0,18,1.05,"ulm-talkingtree-quentin-01-02",0,65536,"2025-12-20T18:18:43"],
    [452,0,18.99,0,0,100,0,18,1.05,"ulm-heidenheimerstr-01-02",0,65536,"2025-12-20T21:33:54"],
    [453,0,18.77,0,0,100,0,18,1.05,"ulm-talkingtree-maja-01-02",0,65536,"2025-12-20T22:04:32"],
    [454,0,18.85,0,0,100,0,18,1.05,"ulm-talkingtree-pamina-01-02",0,65536,"2025-12-20T22:11:08"],
    [455,0,18.89,0,0,100,0,18,1.05,"ulm-talkingtree-quentin-01-02",0,65536,"2025-12-20T22:18:42"],
    [456,0,18.94,0,0,100,0,18,1.05,"ulm-heidenheimerstr-01-02",0,65536,"2025-12-21T01:33:53"],
    [457,0,18.74,0,0,100,0,18,1.05,"ulm-talkingtree-pamina-01-02",0,65536,"2025-12-21T02:11:07"],
    [458,0,18.79,0,0,100,0,18,1.05,"ulm-talkingtree-quentin-01-02",0,65536,"2025-12-21T02:18:41"],
    [459,0,18.9,0,0,100,0,18,1.05,"ulm-heidenheimerstr-01-02",0,65536,"2025-12-21T05:33:51"],
    [460,0,18.62,0,0,100,0,18,1.05,"ulm-talkingtree-pamina-01-02",0,65536,"2025-12-21T06:11:06"],
    [461,0,18.74,0,0,100,0,18,1.05,"ulm-talkingtree-quentin-01-02",0,65536,"2025-12-21T06:18:40"],
    [462,0,18.93,0,0,100,0,18,1.05,"ulm-heidenheimerstr-01-02",0,65536,"2025-12-21T09:33:50"],
    [463,0,18.52,0,0,100,0,18,1.05,"ulm-talkingtree-maja-01-02",0,65536,"2025-12-21T10:04:29"],
    [464,0,18.53,0,0,100,0,18,1.05,"ulm-talkingtree-pamina-01-02",0,65536,"2025-12-21T10:11:05"],
    [465,0,18.67,0,0,100,0,18,1.05,"ulm-talkingtree-quentin-01-02",0,65536,"2025-12-21T10:18:39"],
    [466,0,18.56,0,0,100,0,18,1.05,"ulm-talkingtree-maja-01-02",0,65536,"2025-12-21T14:04:28"],
    [467,0,18.66,0,0,100,0,18,1.05,"ulm-talkingtree-quentin-01-02",0,65536,"2025-12-21T14:18:38"],
    [468,0,18.79,0,0,100,0,18,1.05,"ulm-heidenheimerstr-01-02",0,65536,"2025-12-21T17:33:48"],
    [469,0,18.41,0,0,100,0,18,1.05,"ulm-talkingtree-maja-01-02",0,65536,"2025-12-21T18:04:27"],
    [470,0,18.43,0,0,100,0,18,1.05,"ulm-talkingtree-pamina-01-02",0,65536,"2025-12-21T18:11:02"],
    [471,0,18.53,0,0,100,0,18,1.05,"ulm-talkingtree-quentin-01-02",0,65536,"2025-12-21T18:18:36"],
    [472,0,18.41,0,0,100,0,18,1.05,"ulm-talkingtree-maja-01-02",0,65536,"2025-12-21T22:04:26"],
    [473,0,18.49,0,0,100,0,18,1.05,"ulm-talkingtree-pamina-01-02",0,65536,"2025-12-21T22:11:01"],
    [474,0,18.56,0,0,100,0,18,1.05,"ulm-talkingtree-quentin-01-02",0,65536,"2025-12-21T22:18:35"],
    [475,0,18.66,0,0,100,0,18,1.05,"ulm-heidenheimerstr-01-02",0,65536,"2025-12-22T01:33:46"],
    [476,0,18.39,0,0,100,0,18,1.05,"ulm-talkingtree-maja-01-02",0,65536,"2025-12-22T02:04:25"],
    [477,0,18.51,0,0,100,0,18,1.05,"ulm-talkingtree-quentin-01-02",0,65536,"2025-12-22T02:18:34"],
    [478,0,18.77,0,0,100,0,18,1.05,"ulm-heidenheimerstr-01-02",0,65536,"2025-12-22T05:33:45"],
    [479,0,18.64,0,0,100,0,18,1.05,"ulm-talkingtree-maja-01-02",0,65536,"2025-12-22T06:04:24"],
    [480,0,18.73,0,0,100,0,18,1.05,"ulm-talkingtree-pamina-01-02",0,65536,"2025-12-22T06:10:58"],
    [481,0,19.26,0,0,100,0,19,1.04,"ulm-talkingtree-maja-01-02",0,65536,"2025-12-22T10:04:23"],
    [482,0,19.24,0,0,100,0,19,1.04,"ulm-talkingtree-pamina-01-02",0,65536,"2025-12-22T10:10:57"],
    [483,0,19.54,0,0,100,0,19,1.04,"ulm-talkingtree-maja-01-02",0,65536,"2025-12-22T14:04:22"],
    [484,0,19.46,0,0,100,0,19,1.04,"ulm-talkingtree-pamina-01-02",0,65536,"2025-12-22T14:10:56"],
    [485,0,19.56,0,0,100,0,19,1.04,"ulm-talkingtree-quentin-01-02",0,65536,"2025-12-22T14:18:30"],
    [486,0,19.4,0,0,100,0,18,1.04,"ulm-heidenheimerstr-01-02",0,65536,"2025-12-22T17:33:41"],
    [487,0,19.01,0,0,100,0,19,1.04,"ulm-talkingtree-maja-01-02",0,65536,"2025-12-22T18:04:21"],
    [488,0,18.98,0,0,100,0,18,1.05,"ulm-talkingtree-pamina-01-02",0,65536,"2025-12-22T18:10:54"],
    [489,0,19.09,0,0,100,0,18,1.04,"ulm-talkingtree-quentin-01-02",0,65536,"2025-12-22T18:18:29"],
    [490,0,18.94,0,0,100,0,18,1.05,"ulm-heidenheimerstr-01-02",0,65536,"2025-12-22T21:33:40"],
    [491,0,18.68,0,0,100,0,18,1.05,"ulm-talkingtree-maja-01-02",0,65536,"2025-12-22T22:04:20"],
    [492,0,18.75,0,0,100,0,18,1.05,"ulm-talkingtree-pamina-01-02",0,65536,"2025-12-22T22:10:53"],
    [493,0,18.79,0,0,100,0,18,1.05,"ulm-talkingtree-quentin-01-02",0,65536,"2025-12-22T22:18:28"],
    [494,0,18.79,0,0,100,0,18,1.05,"ulm-heidenheimerstr-01-02",0,65536,"2025-12-23T01:33:39"],
    [495,0,18.46,0,0,100,0,18,1.05,"ulm-talkingtree-maja-01-02",0,65536,"2025-12-23T02:04:19"],
    [496,0,18.56,0,0,100,0,18,1.05,"ulm-talkingtree-pamina-01-02",0,65536,"2025-12-23T02:10:52"],
    [497,0,18.64,0,0,100,0,18,1.05,"ulm-talkingtree-quentin-01-02",0,65536,"2025-12-23T02:18:27"],
    [498,0,19.53,0,0,100,0,19,1.04,"ulm-heidenheimerstr-01-02",0,65536,"2025-12-23T05:33:38"],
    [499,0,19.44,0,0,100,0,19,1.04,"ulm-talkingtree-maja-01-02",0,65536,"2025-12-23T06:04:18"],
    [500,0,19.49,0,0,100,0,19,1.04,"ulm-talkingtree-pamina-01-02",0,65536,"2025-12-23T06:10:50"],
    [501,0,19.45,0,0,100,0,19,1.04,"ulm-talkingtree-quentin-01-02",0,65536,"2025-12-23T06:18:26"],
    [502,0,20.32,0,0,100,0,19,1.04,"ulm-heidenheimerstr-01-02",0,65536,"2025-12-23T09:33:37"],
    [503,0,20.04,0,0,100,0,19,1.04,"ulm-talkingtree-maja-01-02",0,65536,"2025-12-23T10:04:17"],
    [504,0,20.07,0,0,100,0,20,1.04,"ulm-talkingtree-pamina-01-02",0,65536,"2025-12-23T10:10:49"],
    [505,0,20.07,0,0,100,0,20,1.04,"ulm-talkingtree-quentin-01-02",0,65536,"2025-12-23T10:18:24"],
    [506,0,20.65,0,0,100,0,20,1.04,"ulm-heidenheimerstr-01-02",0,65536,"2025-12-23T13:33:36"],
    [507,0,20.4,0,0,100,0,20,1.04,"ulm-talkingtree-maja-01-02",0,65536,"2025-12-23T14:04:16"],
    [508,0,20.42,0,0,100,0,20,1.04,"ulm-talkingtree-pamina-01-02",0,65536,"2025-12-23T14:10:48"],
    [509,0,20.44,0,0,100,0,20,1.04,"ulm-talkingtree-quentin-01-02",0,65536,"2025-12-23T14:18:23"],
    [510,0,20.26,0,0,100,0,20,1.04,"ulm-talkingtree-maja-01-02",0,65536,"2025-12-23T18:04:15"],
    [511,0,20.18,0,0,100,0,20,1.04,"ulm-talkingtree-pamina-01-02",0,65536,"2025-12-23T18:10:47"],
    [512,0,20.29,0,0,100,0,19,1.04,"ulm-talkingtree-quentin-01-02",0,65536,"2025-12-23T18:18:22"],
    [513,0,19.28,0,0,100,0,18,1.04,"ulm-heidenheimerstr-01-02",0,65536,"2025-12-23T21:33:34"],
    [514,0,18.89,0,0,100,0,19,1.05,"ulm-talkingtree-maja-01-02",0,65536,"2025-12-23T22:04:14"],
    [515,0,19.04,0,0,100,0,18,1.04,"ulm-talkingtree-quentin-01-02",0,65536,"2025-12-23T22:18:21"],
    [516,0,19.01,0,0,100,0,18,1.04,"ulm-heidenheimerstr-01-02",0,65536,"2025-12-24T01:33:32"],
    [517,0,18.69,0,0,100,0,18,1.05,"ulm-talkingtree-maja-01-02",0,65536,"2025-12-24T02:04:13"],
    [518,0,18.76,0,0,100,0,18,1.05,"ulm-talkingtree-pamina-01-02",0,65536,"2025-12-24T02:10:44"],
    [519,0,18.82,0,0,100,0,18,1.05,"ulm-talkingtree-quentin-01-02",0,65536,"2025-12-24T02:18:20"],
    [520,0,19.67,0,0,100,0,19,1.04,"ulm-heidenheimerstr-01-02",0,65536,"2025-12-24T05:33:31"],
    [521,0,19.66,0,0,99,0,19,1.04,"ulm-talkingtree-pamina-01-02",0,65536,"2025-12-24T06:10:43"],
    [522,0,19.6,0,0,100,0,20,1.04,"ulm-talkingtree-quentin-01-02",0,65536,"2025-12-24T06:18:19"],
    [523,0,20.19,0,0,100,0,20,1.04,"ulm-talkingtree-maja-01-02",0,65536,"2025-12-24T10:04:11"],
    [524,0,20.2,0,0,100,0,20,1.04,"ulm-talkingtree-pamina-01-02",0,65536,"2025-12-24T10:10:41"],
    [525,0,20.24,0,0,100,0,20,1.04,"ulm-talkingtree-quentin-01-02",0,65536,"2025-12-24T10:18:17"],
    [526,0,20.63,0,0,100,0,20,1.04,"ulm-heidenheimerstr-01-02",0,65536,"2025-12-24T13:33:29"],
    [527,0,20.42,0,0,100,0,20,1.04,"ulm-talkingtree-maja-01-02",0,65536,"2025-12-24T14:04:10"],
    [528,0,20.4,0,0,100,0,20,1.04,"ulm-talkingtree-pamina-01-02",0,65536,"2025-12-24T14:10:40"],
    [529,0,20.43,0,0,100,0,20,1.04,"ulm-talkingtree-quentin-01-02",0,65536,"2025-12-24T14:18:16"],
    [530,0,20.48,0,0,100,0,19,1.04,"ulm-heidenheimerstr-01-02",0,65536,"2025-12-24T17:33:28"],
    [531,0,20.03,0,0,100,0,20,1.04,"ulm-talkingtree-maja-01-02",0,65536,"2025-12-24T18:04:09"],
    [532,0,19.95,0,0,100,0,19,1.04,"ulm-talkingtree-pamina-01-02",0,65536,"2025-12-24T18:10:39"],
    [533,0,20.06,0,0,100,0,19,1.04,"ulm-talkingtree-quentin-01-02",0,65536,"2025-12-24T18:18:15"],
    [534,0,19.16,0,0,100,0,18,1.04,"ulm-heidenheimerstr-01-02",0,65536,"2025-12-24T21:33:27"],
    [535,0,18.78,0,0,100,0,18,1.05,"ulm-talkingtree-maja-01-02",0,65536,"2025-12-24T22:04:08"],
    [536,0,18.82,0,0,100,0,18,1.05,"ulm-talkingtree-pamina-01-02",0,65536,"2025-12-24T22:10:37"],
    [537,0,18.93,0,0,100,0,18,1.05,"ulm-talkingtree-quentin-01-02",0,65536,"2025-12-24T22:18:14"],
    [538,0,18.84,0,0,100,0,18,1.05,"ulm-heidenheimerstr-01-02",0,65536,"2025-12-25T01:33:26"],
    [539,0,18.45,0,0,100,0,18,1.05,"ulm-talkingtree-maja-01-02",0,65536,"2025-12-25T02:04:07"],
    [540,0,18.51,0,0,100,0,18,1.05,"ulm-talkingtree-pamina-01-02",0,65536,"2025-12-25T02:10:36"],
    [541,0,18.58,0,0,100,0,18,1.05,"ulm-talkingtree-quentin-01-02",0,65536,"2025-12-25T02:18:13"],
    [542,0,19.14,0,0,100,0,18,1.04,"ulm-heidenheimerstr-01-02",0,65536,"2025-12-25T05:33:25"],
    [543,0,19.03,0,0,100,0,18,1.04,"ulm-talkingtree-maja-01-02",0,65536,"2025-12-25T06:04:07"],
    [544,0,19.14,0,0,100,0,19,1.04,"ulm-talkingtree-pamina-01-02",0,65536,"2025-12-25T06:10:35"],
    [545,0,19.1,0,0,100,0,19,1.04,"ulm-talkingtree-quentin-01-02",0,65536,"2025-12-25T06:18:11"],
    [546,0,20.14,0,0,100,0,19,1.04,"ulm-heidenheimerstr-01-02",0,65536,"2025-12-25T09:33:23"],
    [547,0,19.94,0,0,100,0,19,1.04,"ulm-talkingtree-maja-01-02",0,65536,"2025-12-25T10:04:05"],
    [548,0,19.94,0,0,100,0,19,1.04,"ulm-talkingtree-pamina-01-02",0,65536,"2025-12-25T10:10:34"],
    [549,0,19.95,0,0,100,0,20,1.04,"ulm-talkingtree-quentin-01-02",0,65536,"2025-12-25T10:18:10"],
    [550,0,20.44,0,0,100,0,19,1.04,"ulm-heidenheimerstr-01-02",0,65536,"2025-12-25T13:33:22"],
    [551,0,20.06,0,0,100,0,20,1.04,"ulm-talkingtree-pamina-01-02",0,65536,"2025-12-25T14:10:32"],
    [552,0,20.16,0,0,100,0,20,1.04,"ulm-talkingtree-quentin-01-02",0,65536,"2025-12-25T14:18:09"],
    [553,0,20.45,0,0,100,0,19,1.04,"ulm-heidenheimerstr-01-02",0,65536,"2025-12-25T17:33:21"],
    [554,0,20.08,0,0,100,0,20,1.04,"ulm-talkingtree-maja-01-02",0,65536,"2025-12-25T18:04:04"],
    [555,0,19.98,0,0,100,0,19,1.04,"ulm-talkingtree-pamina-01-02",0,65536,"2025-12-25T18:10:31"],
    [556,0,20.07,0,0,100,0,19,1.04,"ulm-talkingtree-quentin-01-02",0,65536,"2025-12-25T18:18:08"],
    [557,0,19.1,0,0,100,0,18,1.04,"ulm-heidenheimerstr-01-02",0,65536,"2025-12-25T21:33:20"],
    [558,0,18.84,0,0,100,0,18,1.05,"ulm-talkingtree-pamina-01-02",0,65536,"2025-12-25T22:10:30"],
    [559,0,18.93,0,0,100,0,18,1.05,"ulm-talkingtree-quentin-01-02",0,65536,"2025-12-25T22:18:07"],
    [560,0,18.74,0,0,100,0,18,1.05,"ulm-heidenheimerstr-01-02",0,65536,"2025-12-26T01:33:19"],
    [561,0,18.5,0,0,100,0,18,1.05,"ulm-talkingtree-pamina-01-02",0,65536,"2025-12-26T02:10:28"],
    [562,0,18.58,0,0,100,0,18,1.05,"ulm-talkingtree-quentin-01-02",0,65536,"2025-12-26T02:18:06"],
    [563,0,19.31,0,0,100,0,19,1.04,"ulm-heidenheimerstr-01-02",0,65536,"2025-12-26T05:33:18"],
    [564,0,19.2,0,0,100,0,19,1.04,"ulm-talkingtree-maja-01-02",0,65536,"2025-12-26T06:04:01"],
    [565,0,19.31,0,0,100,0,19,1.04,"ulm-talkingtree-pamina-01-02",0,65536,"2025-12-26T06:10:27"],
    [566,0,19.25,0,0,100,0,19,1.04,"ulm-talkingtree-quentin-01-02",0,65536,"2025-12-26T06:18:04"],
    [567,0,20.21,0,0,100,0,19,1.04,"ulm-heidenheimerstr-01-02",0,65536,"2025-12-26T09:33:17"],
    [568,0,20.02,0,0,100,0,19,1.04,"ulm-talkingtree-maja-01-02",0,65536,"2025-12-26T10:04:00"],
    [569,0,19.99,0,0,100,0,20,1.04,"ulm-talkingtree-pamina-01-02",0,65536,"2025-12-26T10:10:26"],
    [570,0,20,0,0,100,0,20,1.04,"ulm-talkingtree-quentin-01-02",0,65536,"2025-12-26T10:18:03"],
    [571,0,20.48,0,0,100,0,20,1.04,"ulm-heidenheimerstr-01-02",0,65536,"2025-12-26T13:33:16"],
    [572,0,20.21,0,0,100,0,20,1.04,"ulm-talkingtree-maja-01-02",0,65536,"2025-12-26T14:03:59"],
    [573,0,20.16,0,0,100,0,20,1.04,"ulm-talkingtree-pamina-01-02",0,65536,"2025-12-26T14:10:24"],
    [574,0,20.19,0,0,100,0,20,1.04,"ulm-talkingtree-quentin-01-02",0,65536,"2025-12-26T14:18:02"],
    [575,0,19.58,0,0,100,0,19,1.04,"ulm-heidenheimerstr-01-02",0,65536,"2025-12-26T17:33:15"],
    [576,0,19.15,0,0,100,0,19,1.04,"ulm-talkingtree-maja-01-02",0,65536,"2025-12-26T18:03:58"],
    [577,0,19.14,0,0,100,0,19,1.04,"ulm-talkingtree-pamina-01-02",0,65536,"2025-12-26T18:10:23"],
    [578,0,19.27,0,0,100,0,18,1.04,"ulm-talkingtree-quentin-01-02",0,65536,"2025-12-26T18:18:01"],
    [579,0,18.92,0,0,100,0,18,1.05,"ulm-heidenheimerstr-01-02",0,65536,"2025-12-26T21:33:13"],
    [580,0,18.49,0,0,100,0,18,1.05,"ulm-talkingtree-maja-01-02",0,65536,"2025-12-26T22:03:57"],
    [581,0,18.56,0,0,100,0,18,1.05,"ulm-talkingtree-pamina-01-02",0,65536,"2025-12-26T22:10:22"],
    [582,0,18.66,0,0,100,0,18,1.05,"ulm-talkingtree-quentin-01-02",0,65536,"2025-12-26T22:18:00"],
    [583,0,18.64,0,0,100,0,18,1.05,"ulm-heidenheimerstr-01-02",0,65536,"2025-12-27T01:33:12"],
    [584,0,18.4,0,0,100,0,18,1.05,"ulm-talkingtree-maja-01-02",0,65536,"2025-12-27T02:03:56"],
    [585,0,18.46,0,0,100,0,18,1.05,"ulm-talkingtree-pamina-01-02",0,65536,"2025-12-27T02:10:21"],
    [586,0,18.49,0,0,100,0,18,1.05,"ulm-talkingtree-quentin-01-02",0,65536,"2025-12-27T02:17:59"],
    [587,0,18.64,0,0,100,0,18,1.05,"ulm-heidenheimerstr-01-02",0,65536,"2025-12-27T05:33:11"],
    [588,0,18.24,0,0,100,0,18,1.05,"ulm-talkingtree-maja-01-02",0,65536,"2025-12-27T06:03:55"],
    [589,0,18.27,0,0,100,0,18,1.05,"ulm-talkingtree-pamina-01-02",0,65536,"2025-12-27T06:10:19"],
    [590,0,18.36,0,0,100,0,18,1.05,"ulm-talkingtree-quentin-01-02",0,65536,"2025-12-27T06:17:57"],
    [591,0,18.61,0,0,100,0,18,1.05,"ulm-heidenheimerstr-01-02",0,65536,"2025-12-27T09:33:10"],
    [592,0,18.33,0,0,100,0,18,1.05,"ulm-talkingtree-maja-01-02",0,65536,"2025-12-27T10:03:54"],
    [593,0,18.36,0,0,100,0,18,1.05,"ulm-talkingtree-pamina-01-02",0,65536,"2025-12-27T10:10:18"],
    [594,0,18.43,0,0,100,0,18,1.05,"ulm-talkingtree-quentin-01-02",0,65536,"2025-12-27T10:17:56"],
    [595,0,18.62,0,0,100,0,18,1.05,"ulm-heidenheimerstr-01-02",0,65536,"2025-12-27T13:33:09"],
    [596,0,18.41,0,0,100,0,18,1.05,"ulm-talkingtree-maja-01-02",0,65536,"2025-12-27T14:03:53"],
    [597,0,18.46,0,0,100,0,18,1.05,"ulm-talkingtree-pamina-01-02",0,65536,"2025-12-27T14:10:17"],
    [598,0,18.49,0,0,100,0,18,1.05,"ulm-talkingtree-quentin-01-02",0,65536,"2025-12-27T14:17:55"],
    [599,0,18.19,0,0,100,0,18,1.05,"ulm-talkingtree-maja-01-02",0,65536,"2025-12-27T18:03:52"],
    [600,0,18.24,0,0,100,0,18,1.05,"ulm-talkingtree-pamina-01-02",0,65536,"2025-12-27T18:10:15"],
    [601,0,18.33,0,0,100,0,18,1.05,"ulm-talkingtree-quentin-01-02",0,65536,"2025-12-27T18:17:54"],
    [602,0,18.49,0,0,100,0,18,1.05,"ulm-heidenheimerstr-01-02",0,65536,"2025-12-27T21:33:07"],
    [603,0,18.25,0,0,100,0,18,1.05,"ulm-talkingtree-pamina-01-02",0,65536,"2025-12-27T22:10:14"],
    [604,0,18.31,0,0,100,0,18,1.05,"ulm-talkingtree-quentin-01-02",0,65536,"2025-12-27T22:17:53"],
    [605,0,18.39,0,0,100,0,17,1.05,"ulm-heidenheimerstr-01-02",0,65536,"2025-12-28T01:33:06"],
    [606,0,18.19,0,0,100,0,18,1.05,"ulm-talkingtree-maja-01-02",0,65536,"2025-12-28T02:03:50"],
    [607,0,18.25,0,0,100,0,18,1.05,"ulm-talkingtree-pamina-01-02",0,65536,"2025-12-28T02:10:13"],
    [608,0,18.29,0,0,100,0,18,1.05,"ulm-talkingtree-quentin-01-02",0,65536,"2025-12-28T02:17:51"],
    [609,0,18.42,0,0,100,0,18,1.05,"ulm-heidenheimerstr-01-02",0,65536,"2025-12-28T05:33:04"],
    [610,0,18.04,0,0,100,0,18,1.05,"ulm-talkingtree-maja-01-02",0,65536,"2025-12-28T06:03:49"],
    [611,0,18.07,0,0,100,0,18,1.05,"ulm-talkingtree-pamina-01-02",0,65536,"2025-12-28T06:10:12"],
    [612,0,18.18,0,0,100,0,18,1.05,"ulm-talkingtree-quentin-01-02",0,65536,"2025-12-28T06:17:50"],
    [613,0,18.48,0,0,100,0,18,1.05,"ulm-heidenheimerstr-01-02",0,65536,"2025-12-28T09:33:03"],
    [614,0,18.12,0,0,100,0,18,1.05,"ulm-talkingtree-maja-01-02",0,65536,"2025-12-28T10:03:48"],
    [615,0,18.15,0,0,100,0,18,1.05,"ulm-talkingtree-pamina-01-02",0,65536,"2025-12-28T10:10:10"],
    [616,0,18.21,0,0,100,0,17,1.05,"ulm-talkingtree-quentin-01-02",0,65536,"2025-12-28T10:17:49"],
    [617,0,18.45,0,0,100,0,18,1.05,"ulm-heidenheimerstr-01-02",0,65536,"2025-12-28T13:33:02"],
    [618,0,18.27,0,0,100,0,18,1.05,"ulm-talkingtree-pamina-01-02",0,65536,"2025-12-28T14:10:09"],
    [619,0,18.28,0,0,100,0,18,1.05,"ulm-talkingtree-quentin-01-02",0,65536,"2025-12-28T14:17:48"],
    [620,0,18.17,0,0,100,0,18,1.05,"ulm-talkingtree-pamina-01-02",0,65536,"2025-12-28T18:10:08"],
    [621,0,18.21,0,0,100,0,18,1.05,"ulm-talkingtree-quentin-01-02",0,65536,"2025-12-28T18:17:47"],
    [622,0,18.36,0,0,100,0,17,1.05,"ulm-heidenheimerstr-01-02",0,65536,"2025-12-28T21:33:00"],
    [623,0,17.96,0,0,100,0,18,1.07,"ulm-talkingtree-maja-01-02",0,65536,"2025-12-28T22:03:45"],
    [624,0,18.06,0,0,100,0,18,1.05,"ulm-talkingtree-pamina-01-02",0,65536,"2025-12-28T22:10:06"],
    [625,0,18.15,0,0,100,0,18,1.05,"ulm-talkingtree-quentin-01-02",0,65536,"2025-12-28T22:17:46"],
    [626,0,18.36,0,0,100,0,17,1.05,"ulm-heidenheimerstr-01-02",0,65536,"2025-12-29T01:32:59"],
    [627,0,17.95,0,0,100,0,17,1.07,"ulm-talkingtree-maja-01-02",0,65536,"2025-12-29T02:03:44"],
    [628,0,17.96,0,0,100,0,17,1.07,"ulm-talkingtree-pamina-01-02",0,65536,"2025-12-29T02:10:05"],
    [629,0,18.07,0,0,100,0,17,1.05,"ulm-talkingtree-quentin-01-02",0,65536,"2025-12-29T02:17:44"],
    [630,0,18.29,0,0,100,0,17,1.05,"ulm-heidenheimerstr-01-02",0,65536,"2025-12-29T05:32:58"],
    [631,0,18.11,0,0,100,0,18,1.05,"ulm-talkingtree-maja-01-02",0,65536,"2025-12-29T06:03:43"],
    [632,0,18.19,0,0,100,0,18,1.05,"ulm-talkingtree-pamina-01-02",0,65536,"2025-12-29T06:10:04"],
    [633,0,18.19,0,0,100,0,18,1.05,"ulm-talkingtree-quentin-01-02",0,65536,"2025-12-29T06:17:43"],
    [634,0,18.86,0,0,100,0,18,1.05,"ulm-heidenheimerstr-01-02",0,65536,"2025-12-29T09:32:57"],
    [635,0,18.62,0,0,100,0,18,1.05,"ulm-talkingtree-maja-01-02",0,65536,"2025-12-29T10:03:42"],
    [636,0,18.62,0,0,100,0,18,1.05,"ulm-talkingtree-pamina-01-02",0,65536,"2025-12-29T10:10:03"],
    [637,0,18.69,0,0,100,0,18,1.05,"ulm-talkingtree-quentin-01-02",0,65536,"2025-12-29T10:17:42"],
    [638,0,19.34,0,0,100,0,18,1.04,"ulm-heidenheimerstr-01-02",0,65536,"2025-12-29T13:32:56"],
    [639,0,19.04,0,0,100,0,18,1.04,"ulm-talkingtree-maja-01-02",0,65536,"2025-12-29T14:03:41"],
    [640,0,19.01,0,0,100,0,18,1.04,"ulm-talkingtree-pamina-01-02",0,65536,"2025-12-29T14:10:01"],
    [641,0,19.04,0,0,100,0,18,1.04,"ulm-talkingtree-quentin-01-02",0,65536,"2025-12-29T14:17:41"],
    [642,0,18.98,0,0,100,0,18,1.05,"ulm-heidenheimerstr-01-02",0,65536,"2025-12-29T17:32:54"],
    [643,0,18.52,0,0,100,0,18,1.05,"ulm-talkingtree-maja-01-02",0,65536,"2025-12-29T18:03:40"],
    [644,0,18.46,0,0,100,0,18,1.05,"ulm-talkingtree-pamina-01-02",0,65536,"2025-12-29T18:10:00"],
    [645,0,18.65,0,0,100,0,18,1.05,"ulm-talkingtree-quentin-01-02",0,65536,"2025-12-29T18:17:40"],
    [646,0,18.49,0,0,100,0,18,1.05,"ulm-heidenheimerstr-01-02",0,65536,"2025-12-29T21:32:53"],
    [647,0,18.29,0,0,100,0,18,1.05,"ulm-talkingtree-maja-01-02",0,65536,"2025-12-29T22:03:39"],
    [648,0,18.37,0,0,100,0,18,1.05,"ulm-talkingtree-pamina-01-02",0,65536,"2025-12-29T22:09:59"],
    [649,0,18.39,0,0,100,0,18,1.05,"ulm-talkingtree-quentin-01-02",0,65536,"2025-12-29T22:17:39"],
    [650,0,18.49,0,0,100,0,18,1.05,"ulm-heidenheimerstr-01-02",0,65536,"2025-12-30T01:32:52"],
    [651,0,18.09,0,0,100,0,18,1.05,"ulm-talkingtree-maja-01-02",0,65536,"2025-12-30T02:03:39"],
    [652,0,18.12,0,0,100,0,18,1.05,"ulm-talkingtree-pamina-01-02",0,65536,"2025-12-30T02:09:57"],
    [653,0,18.25,0,0,100,0,18,1.05,"ulm-talkingtree-quentin-01-02",0,65536,"2025-12-30T02:17:38"],
    [654,0,18.96,0,0,100,0,18,1.05,"ulm-talkingtree-maja-01-02",0,65536,"2025-12-30T06:03:37"],
    [655,0,19.04,0,0,100,0,19,1.04,"ulm-talkingtree-pamina-01-02",0,65536,"2025-12-30T06:09:56"],
    [656,0,19.03,0,0,100,0,19,1.04,"ulm-talkingtree-quentin-01-02",0,65536,"2025-12-30T06:17:36"],
    [657,0,19.96,0,0,100,0,19,1.04,"ulm-heidenheimerstr-01-02",0,65536,"2025-12-30T09:32:50"],
    [658,0,19.79,0,0,100,0,19,1.04,"ulm-talkingtree-maja-01-02",0,65536,"2025-12-30T10:03:36"],
    [659,0,19.82,0,0,100,0,19,1.04,"ulm-talkingtree-pamina-01-02",0,65536,"2025-12-30T10:09:55"],
    [660,0,19.84,0,0,100,0,19,1.04,"ulm-talkingtree-quentin-01-02",0,65536,"2025-12-30T10:17:35"],
    [661,0,20.46,0,0,100,0,20,1.04,"ulm-heidenheimerstr-01-02",0,65536,"2025-12-30T13:32:49"],
    [662,0,20.2,0,0,100,0,20,1.04,"ulm-talkingtree-maja-01-02",0,65536,"2025-12-30T14:03:35"],
    [663,0,20.24,0,0,100,0,20,1.04,"ulm-talkingtree-pamina-01-02",0,65536,"2025-12-30T14:09:53"],
    [664,0,20.2,0,0,100,0,20,1.04,"ulm-talkingtree-quentin-01-02",0,65536,"2025-12-30T14:17:34"],
    [665,0,20.24,0,0,100,0,19,1.04,"ulm-heidenheimerstr-01-02",0,65536,"2025-12-30T17:32:48"],
    [666,0,19.76,0,0,100,0,19,1.04,"ulm-talkingtree-maja-01-02",0,65536,"2025-12-30T18:03:34"],
    [667,0,19.66,0,0,100,0,19,1.04,"ulm-talkingtree-pamina-01-02",0,65536,"2025-12-30T18:09:52"],
    [668,0,19.82,0,0,100,0,19,1.04,"ulm-talkingtree-quentin-01-02",0,65536,"2025-12-30T18:17:33"],
    [669,0,18.56,0,0,100,0,18,1.05,"ulm-talkingtree-maja-01-02",0,65536,"2025-12-30T22:03:34"],
    [670,0,18.61,0,0,100,0,18,1.05,"ulm-talkingtree-pamina-01-02",0,65536,"2025-12-30T22:09:51"],
    [671,0,18.69,0,0,100,0,18,1.05,"ulm-talkingtree-quentin-01-02",0,65536,"2025-12-30T22:17:32"],
    [672,0,18.51,0,0,100,0,18,1.05,"ulm-heidenheimerstr-01-02",0,65536,"2025-12-31T01:32:45"],
    [673,0,18.2,0,0,100,0,18,1.05,"ulm-talkingtree-maja-01-02",0,65536,"2025-12-31T02:03:33"],
    [674,0,18.29,0,0,100,0,18,1.05,"ulm-talkingtree-pamina-01-02",0,65536,"2025-12-31T02:09:49"],
    [675,0,18.36,0,0,100,0,18,1.05,"ulm-talkingtree-quentin-01-02",0,65536,"2025-12-31T02:17:30"],
    [676,0,19.08,0,0,100,0,18,1.04,"ulm-heidenheimerstr-01-02",0,65536,"2025-12-31T05:32:44"],
    [677,0,18.94,0,0,100,0,18,1.05,"ulm-talkingtree-maja-01-02",0,65536,"2025-12-31T06:03:32"],
    [678,0,19.01,0,0,100,0,19,1.04,"ulm-talkingtree-pamina-01-02",0,65536,"2025-12-31T06:09:48"],
    [679,0,18.99,0,0,100,0,19,1.05,"ulm-talkingtree-quentin-01-02",0,65536,"2025-12-31T06:17:29"],
    [680,0,20.04,0,0,100,0,19,1.04,"ulm-heidenheimerstr-01-02",0,65536,"2025-12-31T09:32:43"],
    [681,0,19.79,0,0,100,0,19,1.04,"ulm-talkingtree-maja-01-02",0,65536,"2025-12-31T10:03:31"],
    [682,0,19.83,0,0,100,0,19,1.04,"ulm-talkingtree-pamina-01-02",0,65536,"2025-12-31T10:09:47"],
    [683,0,19.79,0,0,100,0,19,1.04,"ulm-talkingtree-quentin-01-02",0,65536,"2025-12-31T10:17:28"],
    [684,0,20.34,0,0,100,0,20,1.04,"ulm-talkingtree-maja-01-02",0,65536,"2025-12-31T14:03:30"],
    [685,0,20.34,0,0,100,0,20,1.04,"ulm-talkingtree-pamina-01-02",0,65536,"2025-12-31T14:09:46"],
    [686,0,20.29,0,0,100,0,20,1.04,"ulm-talkingtree-quentin-01-02",0,65536,"2025-12-31T14:17:27"],
    [687,0,20.19,0,0,100,0,19,1.04,"ulm-heidenheimerstr-01-02",0,65536,"2025-12-31T17:32:41"],
    [688,0,19.7,0,0,100,0,19,1.04,"ulm-talkingtree-maja-01-02",0,65536,"2025-12-31T18:03:29"],
    [689,0,19.6,0,0,100,0,19,1.04,"ulm-talkingtree-pamina-01-02",0,65536,"2025-12-31T18:09:44"],
    [690,0,19.76,0,0,100,0,19,1.04,"ulm-talkingtree-quentin-01-02",0,65536,"2025-12-31T18:17:26"],
    [691,0,18.84,0,0,100,0,18,1.05,"ulm-heidenheimerstr-01-02",0,65536,"2025-12-31T21:32:40"],
    [692,0,18.44,0,0,100,0,18,1.05,"ulm-talkingtree-maja-01-02",0,65536,"2025-12-31T22:03:28"],
    [693,0,18.5,0,0,100,0,18,1.05,"ulm-talkingtree-pamina-01-02",0,65536,"2025-12-31T22:09:43"],
    [694,0,18.61,0,0,100,0,18,1.05,"ulm-talkingtree-quentin-01-02",0,65536,"2025-12-31T22:17:24"],
    [695,0,18.51,0,0,100,0,18,1.05,"ulm-heidenheimerstr-01-02",0,65536,"2026-01-01T01:32:39"],
    [696,0,18.2,0,0,100,0,18,1.05,"ulm-talkingtree-maja-01-02",0,65536,"2026-01-01T02:03:27"],
    [697,0,18.27,0,0,100,0,18,1.05,"ulm-talkingtree-pamina-01-02",0,65536,"2026-01-01T02:09:42"],
    [698,0,18.31,0,0,100,0,18,1.05,"ulm-talkingtree-quentin-01-02",0,65536,"2026-01-01T02:17:23"],
    [699,0,18.69,0,0,100,0,18,1.05,"ulm-heidenheimerstr-01-02",0,65536,"2026-01-01T05:32:38"],
    [700,0,18.53,0,0,100,0,18,1.05,"ulm-talkingtree-maja-01-02",0,65536,"2026-01-01T06:03:26"],
    [701,0,18.64,0,0,100,0,18,1.05,"ulm-talkingtree-pamina-01-02",0,65536,"2026-01-01T06:09:40"],
    [702,0,18.64,0,0,100,0,18,1.05,"ulm-talkingtree-quentin-01-02",0,65536,"2026-01-01T06:17:22"],
    [703,0,19.86,0,0,100,0,19,1.04,"ulm-heidenheimerstr-01-02",0,65536,"2026-01-01T09:32:37"],
    [704,0,19.67,0,0,100,0,19,1.04,"ulm-talkingtree-maja-01-02",0,65536,"2026-01-01T10:03:25"],
    [705,0,19.71,0,0,100,0,19,1.04,"ulm-talkingtree-pamina-01-02",0,65536,"2026-01-01T10:09:39"],
    [706,0,19.65,0,0,100,0,19,1.04,"ulm-talkingtree-quentin-01-02",0,65536,"2026-01-01T10:17:21"],
    [707,0,20.28,0,0,100,0,19,1.04,"ulm-heidenheimerstr-01-02",0,65536,"2026-01-01T13:32:35"],
    [708,0,19.89,0,0,100,0,19,1.04,"ulm-talkingtree-pamina-01-02",0,65536,"2026-01-01T14:09:38"],
    [709,0,19.92,0,0,100,0,19,1.04,"ulm-talkingtree-quentin-01-02",0,65536,"2026-01-01T14:17:20"],
    [710,0,20.04,0,0,100,0,19,1.04,"ulm-heidenheimerstr-01-02",0,65536,"2026-01-01T17:32:34"],
    [711,0,19.65,0,0,100,0,19,1.04,"ulm-talkingtree-maja-01-02",0,65536,"2026-01-01T18:03:23"],
    [712,0,19.57,0,0,100,0,19,1.04,"ulm-talkingtree-pamina-01-02",0,65536,"2026-01-01T18:09:36"],
    [713,0,19.67,0,0,100,0,19,1.04,"ulm-talkingtree-quentin-01-02",0,65536,"2026-01-01T18:17:19"],
    [714,0,18.46,0,0,100,0,18,1.05,"ulm-talkingtree-maja-01-02",0,65536,"2026-01-01T22:03:22"],
    [715,0,18.54,0,0,100,0,18,1.05,"ulm-talkingtree-pamina-01-02",0,65536,"2026-01-01T22:09:35"],
    [716,0,18.61,0,0,100,0,18,1.05,"ulm-talkingtree-quentin-01-02",0,65536,"2026-01-01T22:17:17"],
    [717,0,18.12,0,0,100,0,18,1.05,"ulm-talkingtree-maja-01-02",0,65536,"2026-01-02T02:03:21"],
    [718,0,18.15,0,0,100,0,18,1.05,"ulm-talkingtree-pamina-01-02",0,65536,"2026-01-02T02:09:34"],
    [719,0,18.26,0,0,100,0,17,1.05,"ulm-talkingtree-quentin-01-02",0,65536,"2026-01-02T02:17:16"],
    [720,0,18.87,0,0,100,0,18,1.05,"ulm-heidenheimerstr-01-02",0,65536,"2026-01-02T05:32:31"],
    [721,0,18.78,0,0,100,0,18,1.05,"ulm-talkingtree-maja-01-02",0,65536,"2026-01-02T06:03:20"],
    [722,0,18.85,0,0,100,0,18,1.05,"ulm-talkingtree-pamina-01-02",0,65536,"2026-01-02T06:09:33"],
    [723,0,18.81,0,0,100,0,19,1.05,"ulm-talkingtree-quentin-01-02",0,65536,"2026-01-02T06:17:15"],
    [724,0,19.77,0,0,100,0,19,1.04,"ulm-heidenheimerstr-01-02",0,65536,"2026-01-02T09:32:30"],
    [725,0,19.58,0,0,100,0,19,1.04,"ulm-talkingtree-maja-01-02",0,65536,"2026-01-02T10:03:19"],
    [726,0,19.57,0,0,100,0,19,1.04,"ulm-talkingtree-pamina-01-02",0,65536,"2026-01-02T10:09:31"],
    [727,0,19.62,0,0,100,0,19,1.04,"ulm-talkingtree-quentin-01-02",0,65536,"2026-01-02T10:17:14"],
    [728,0,20.18,0,0,100,0,19,1.04,"ulm-heidenheimerstr-01-02",0,65536,"2026-01-02T13:32:29"],
    [729,0,19.94,0,0,100,0,19,1.04,"ulm-talkingtree-maja-01-02",0,65536,"2026-01-02T14:03:18"],
    [730,0,19.9,0,0,100,0,19,1.04,"ulm-talkingtree-pamina-01-02",0,65536,"2026-01-02T14:09:30"],
    [731,0,19.34,0,0,100,0,18,1.04,"ulm-heidenheimerstr-01-02",0,65536,"2026-01-02T17:32:28"],
    [732,0,18.87,0,0,100,0,19,1.05,"ulm-talkingtree-maja-01-02",0,65536,"2026-01-02T18:03:17"],
    [733,0,18.85,0,0,100,0,18,1.05,"ulm-talkingtree-pamina-01-02",0,65536,"2026-01-02T18:09:29"],
    [734,0,19,0,0,100,0,18,1.04,"ulm-talkingtree-quentin-01-02",0,65536,"2026-01-02T18:17:11"],
    [735,0,18.71,0,0,100,0,18,1.05,"ulm-heidenheimerstr-01-02",0,65536,"2026-01-02T21:32:26"],
    [736,0,18.49,0,0,100,0,18,1.05,"ulm-talkingtree-pamina-01-02",0,65536,"2026-01-02T22:09:27"],
    [737,0,18.51,0,0,100,0,18,1.05,"ulm-talkingtree-quentin-01-02",0,65536,"2026-01-02T22:17:10"],
    [738,0,18.5,0,0,100,0,18,1.05,"ulm-heidenheimerstr-01-02",0,65536,"2026-01-03T01:32:25"],
    [739,0,18.24,0,0,100,0,18,1.05,"ulm-talkingtree-maja-01-02",0,65536,"2026-01-03T02:03:15"],
    [740,0,18.29,0,0,100,0,18,1.05,"ulm-talkingtree-pamina-01-02",0,65536,"2026-01-03T02:09:26"],
    [741,0,18.34,0,0,100,0,18,1.05,"ulm-talkingtree-quentin-01-02",0,65536,"2026-01-03T02:17:09"],
    [742,0,18.51,0,0,100,0,18,1.05,"ulm-heidenheimerstr-01-02",0,65536,"2026-01-03T05:32:24"],
    [743,0,18.08,0,0,100,0,18,1.05,"ulm-talkingtree-maja-01-02",0,65536,"2026-01-03T06:03:14"],
    [744,0,18.12,0,0,100,0,18,1.05,"ulm-talkingtree-pamina-01-02",0,65536,"2026-01-03T06:09:25"],
    [745,0,18.21,0,0,100,0,17,1.05,"ulm-talkingtree-quentin-01-02",0,65536,"2026-01-03T06:17:08"],
    [746,0,18.66,0,0,100,0,18,1.05,"ulm-heidenheimerstr-01-02",0,65536,"2026-01-03T09:32:23"],
    [747,0,18.39,0,0,100,0,18,1.05,"ulm-talkingtree-maja-01-02",0,65536,"2026-01-03T10:03:13"],
    [748,0,18.45,0,0,100,0,18,1.05,"ulm-talkingtree-pamina-01-02",0,65536,"2026-01-03T10:09:24"],
    [749,0,18.92,0,0,100,0,18,1.05,"ulm-heidenheimerstr-01-02",0,65536,"2026-01-03T13:32:22"],
    [750,0,18.62,0,0,100,0,18,1.05,"ulm-talkingtree-maja-01-02",0,65536,"2026-01-03T14:03:12"],
    [751,0,18.62,0,0,100,0,18,1.05,"ulm-talkingtree-pamina-01-02",0,65536,"2026-01-03T14:09:22"],
    [752,0,18.61,0,0,100,0,18,1.05,"ulm-talkingtree-quentin-01-02",0,65536,"2026-01-03T14:17:06"],
    [753,0,18.44,0,0,100,0,18,1.05,"ulm-heidenheimerstr-01-02",0,65536,"2026-01-03T17:32:21"],
    [754,0,18.17,0,0,100,0,18,1.05,"ulm-talkingtree-maja-01-02",0,65536,"2026-01-03T18:03:11"],
    [755,0,18.24,0,0,100,0,18,1.05,"ulm-talkingtree-pamina-01-02",0,65536,"2026-01-03T18:09:21"],
    [756,0,18.27,0,0,100,0,18,1.05,"ulm-talkingtree-quentin-01-02",0,65536,"2026-01-03T18:17:04"],
    [757,0,18.43,0,0,100,0,18,1.05,"ulm-heidenheimerstr-01-02",0,65536,"2026-01-03T21:32:20"],
    [758,0,18,0,0,100,0,18,1.05,"ulm-talkingtree-maja-01-02",0,65536,"2026-01-03T22:03:10"],
    [759,0,18.04,0,0,100,0,18,1.05,"ulm-talkingtree-pamina-01-02",0,65536,"2026-01-03T22:09:20"],
    [760,0,18.12,0,0,100,0,18,1.05,"ulm-talkingtree-quentin-01-02",0,65536,"2026-01-03T22:17:03"],
    [761,0,18.34,0,0,100,0,17,1.05,"ulm-heidenheimerstr-01-02",0,65536,"2026-01-04T01:32:19"],
    [762,0,17.94,0,0,100,0,17,1.07,"ulm-talkingtree-maja-01-02",0,65536,"2026-01-04T02:03:09"],
    [763,0,17.95,0,0,100,0,17,1.07,"ulm-talkingtree-pamina-01-02",0,65536,"2026-01-04T02:09:18"],
    [764,0,18.03,0,0,100,0,17,1.05,"ulm-talkingtree-quentin-01-02",0,65536,"2026-01-04T02:17:02"],
    [765,0,18.24,0,0,100,0,17,1.05,"ulm-heidenheimerstr-01-02",0,65536,"2026-01-04T05:32:17"],
    [766,0,17.94,0,0,100,0,17,1.07,"ulm-talkingtree-maja-01-02",0,65536,"2026-01-04T06:03:08"],
    [767,0,17.96,0,0,100,0,17,1.07,"ulm-talkingtree-pamina-01-02",0,65536,"2026-01-04T06:09:17"],
    [768,0,18.02,0,0,100,0,17,1.05,"ulm-talkingtree-quentin-01-02",0,65536,"2026-01-04T06:17:01"],
    [769,0,18.31,0,0,100,0,17,1.05,"ulm-heidenheimerstr-01-02",0,65536,"2026-01-04T09:32:16"],
    [770,0,18.18,0,0,100,0,18,1.05,"ulm-talkingtree-maja-01-02",0,65536,"2026-01-04T10:03:07"],
    [771,0,18.24,0,0,100,0,18,1.05,"ulm-talkingtree-pamina-01-02",0,65536,"2026-01-04T10:09:16"],
    [772,0,18.24,0,0,100,0,18,1.05,"ulm-talkingtree-quentin-01-02",0,65536,"2026-01-04T10:17:00"],
    [773,0,18.75,0,0,100,0,18,1.05,"ulm-heidenheimerstr-01-02",0,65536,"2026-01-04T13:32:15"],
    [774,0,18.41,0,0,100,0,18,1.05,"ulm-talkingtree-maja-01-02",0,65536,"2026-01-04T14:03:06"],
    [775,0,18.45,0,0,100,0,18,1.05,"ulm-talkingtree-pamina-01-02",0,65536,"2026-01-04T14:09:14"],
    [776,0,18.45,0,0,100,0,18,1.05,"ulm-talkingtree-quentin-01-02",0,65536,"2026-01-04T14:16:59"],
    [777,0,18.37,0,0,100,0,18,1.05,"ulm-heidenheimerstr-01-02",0,65536,"2026-01-04T17:32:14"],
    [778,0,18.04,0,0,100,0,18,1.05,"ulm-talkingtree-maja-01-02",0,65536,"2026-01-04T18:03:05"],
    [779,0,18.08,0,0,100,0,18,1.05,"ulm-talkingtree-pamina-01-02",0,65536,"2026-01-04T18:09:13"],
    [780,0,18.14,0,0,100,0,17,1.05,"ulm-talkingtree-quentin-01-02",0,65536,"2026-01-04T18:16:57"],
    [781,0,18.23,0,0,100,0,17,1.05,"ulm-heidenheimerstr-01-02",0,65536,"2026-01-04T21:32:13"],
    [782,0,17.94,0,0,100,0,17,1.07,"ulm-talkingtree-maja-01-02",0,65536,"2026-01-04T22:03:04"],
    [783,0,18.04,0,0,100,0,18,1.05,"ulm-talkingtree-pamina-01-02",0,65536,"2026-01-04T22:09:12"],
    [784,0,18.04,0,0,100,0,18,1.05,"ulm-talkingtree-quentin-01-02",0,65536,"2026-01-04T22:16:56"],
    [785,0,18.17,0,0,100,0,17,1.05,"ulm-heidenheimerstr-01-02",0,65536,"2026-01-05T01:32:12"],
    [786,0,17.87,0,0,100,0,17,1.07,"ulm-talkingtree-maja-01-02",0,65536,"2026-01-05T02:03:03"],
    [787,0,17.94,0,0,100,0,17,1.07,"ulm-talkingtree-pamina-01-02",0,65536,"2026-01-05T02:09:11"],
    [788,0,17.96,0,0,100,0,17,1.07,"ulm-talkingtree-quentin-01-02",0,65536,"2026-01-05T02:16:55"],
    [789,0,18.12,0,0,100,0,17,1.05,"ulm-heidenheimerstr-01-02",0,65536,"2026-01-05T05:32:11"],
    [790,0,17.94,0,0,100,0,17,1.07,"ulm-talkingtree-maja-01-02",0,65536,"2026-01-05T06:03:03"],
    [791,0,18.02,0,0,100,0,18,1.05,"ulm-talkingtree-pamina-01-02",0,65536,"2026-01-05T06:09:09"],
    [792,0,18.04,0,0,100,0,18,1.05,"ulm-talkingtree-quentin-01-02",0,65536,"2026-01-05T06:16:54"],
    [793,0,18.7,0,0,100,0,18,1.05,"ulm-heidenheimerstr-01-02",0,65536,"2026-01-05T09:32:10"],
    [794,0,18.67,0,0,100,0,18,1.05,"ulm-talkingtree-pamina-01-02",0,65536,"2026-01-05T10:09:08"],
    [795,0,18.64,0,0,100,0,18,1.05,"ulm-talkingtree-quentin-01-02",0,65536,"2026-01-05T10:16:53"],
    [796,0,19.39,0,0,100,0,19,1.04,"ulm-talkingtree-maja-01-02",0,65536,"2026-01-05T14:03:01"],
    [797,0,19.29,0,0,100,0,19,1.04,"ulm-talkingtree-pamina-01-02",0,65536,"2026-01-05T14:09:07"],
    [798,0,19.32,0,0,100,0,19,1.04,"ulm-talkingtree-quentin-01-02",0,65536,"2026-01-05T14:16:51"],
    [799,0,18.59,0,0,100,0,18,1.05,"ulm-talkingtree-pamina-01-02",0,65536,"2026-01-05T18:09:05"],
    [800,0,18.53,0,0,100,0,18,1.05,"ulm-heidenheimerstr-01-02",0,65536,"2026-01-05T21:32:06"],
    [801,0,18.29,0,0,100,0,18,1.05,"ulm-talkingtree-maja-01-02",0,65536,"2026-01-05T22:02:59"],
    [802,0,18.32,0,0,100,0,18,1.05,"ulm-talkingtree-pamina-01-02",0,65536,"2026-01-05T22:09:04"],
    [803,0,18.43,0,0,100,0,18,1.05,"ulm-talkingtree-quentin-01-02",0,65536,"2026-01-05T22:16:49"],
    [804,0,18.29,0,0,100,0,17,1.05,"ulm-heidenheimerstr-01-02",0,65536,"2026-01-06T01:32:05"],
    [805,0,18.12,0,0,100,0,18,1.05,"ulm-talkingtree-maja-01-02",0,65536,"2026-01-06T02:02:58"],
    [806,0,18.24,0,0,100,0,18,1.05,"ulm-talkingtree-pamina-01-02",0,65536,"2026-01-06T02:09:03"],
    [807,0,18.31,0,0,100,0,18,1.05,"ulm-talkingtree-quentin-01-02",0,65536,"2026-01-06T02:16:48"],
    [808,0,18.74,0,0,100,0,18,1.05,"ulm-heidenheimerstr-01-02",0,65536,"2026-01-06T05:32:04"],
    [809,0,18.64,0,0,100,0,18,1.05,"ulm-talkingtree-maja-01-02",0,65536,"2026-01-06T06:02:57"],
    [810,0,18.7,0,0,100,0,18,1.05,"ulm-talkingtree-pamina-01-02",0,65536,"2026-01-06T06:09:01"],
    [811,0,19.64,0,0,100,0,19,1.04,"ulm-talkingtree-maja-01-02",0,65536,"2026-01-06T10:02:56"],
    [812,0,19.61,0,0,100,0,19,1.04,"ulm-talkingtree-pamina-01-02",0,65536,"2026-01-06T10:09:00"],
    [813,0,19.67,0,0,100,0,19,1.04,"ulm-talkingtree-quentin-01-02",0,65536,"2026-01-06T10:16:46"],
    [814,0,19.03,0,0,100,0,18,1.04,"ulm-heidenheimerstr-01-02",0,65536,"2026-01-06T13:32:02"],
    [815,0,18.65,0,0,100,0,18,1.05,"ulm-talkingtree-maja-01-02",0,65536,"2026-01-06T14:02:55"],
    [816,0,18.69,0,0,100,0,18,1.05,"ulm-talkingtree-pamina-01-02",0,65536,"2026-01-06T14:08:59"],
    [817,0,18.83,0,0,100,0,18,1.05,"ulm-talkingtree-quentin-01-02",0,65536,"2026-01-06T14:16:44"],
    [818,0,18.7,0,0,100,0,18,1.05,"ulm-heidenheimerstr-01-02",0,65536,"2026-01-06T17:32:01"],
    [819,0,18.41,0,0,100,0,18,1.05,"ulm-talkingtree-pamina-01-02",0,65536,"2026-01-06T18:08:58"],
    [820,0,18.51,0,0,100,0,18,1.05,"ulm-talkingtree-quentin-01-02",0,65536,"2026-01-06T18:16:43"],
    [821,0,18.52,0,0,100,0,18,1.05,"ulm-heidenheimerstr-01-02",0,65536,"2026-01-06T21:32:00"],
    [822,0,18.31,0,0,100,0,18,1.05,"ulm-talkingtree-maja-01-02",0,65536,"2026-01-06T22:02:53"],
    [823,0,18.45,0,0,100,0,18,1.05,"ulm-talkingtree-quentin-01-02",0,65536,"2026-01-06T22:16:42"],
    [824,0,18.51,0,0,100,0,18,1.05,"ulm-heidenheimerstr-01-02",0,65536,"2026-01-07T01:31:59"],
    [825,0,18.31,0,0,100,0,18,1.05,"ulm-talkingtree-maja-01-02",0,65536,"2026-01-07T02:02:52"],
    [826,0,18.36,0,0,100,0,18,1.05,"ulm-talkingtree-pamina-01-02",0,65536,"2026-01-07T02:08:55"],
    [827,0,18.45,0,0,100,0,18,1.05,"ulm-talkingtree-quentin-01-02",0,65536,"2026-01-07T02:16:41"],
    [828,0,19.1,0,0,100,0,18,1.04,"ulm-heidenheimerstr-01-02",0,65536,"2026-01-07T05:31:57"],
    [829,0,19.04,0,0,100,0,18,1.04,"ulm-talkingtree-maja-01-02",0,65536,"2026-01-07T06:02:51"],
    [830,0,19.04,0,0,100,0,19,1.04,"ulm-talkingtree-pamina-01-02",0,65536,"2026-01-07T06:08:54"],
    [831,0,19.12,0,0,100,0,19,1.04,"ulm-talkingtree-quentin-01-02",0,65536,"2026-01-07T06:16:40"],
    [832,0,20.19,0,0,100,0,19,1.04,"ulm-heidenheimerstr-01-02",0,65536,"2026-01-07T09:31:56"],
    [833,0,20.04,0,0,100,0,19,1.04,"ulm-talkingtree-maja-01-02",0,65536,"2026-01-07T10:02:50"],
    [834,0,20.02,0,0,100,0,20,1.04,"ulm-talkingtree-pamina-01-02",0,65536,"2026-01-07T10:08:52"],
    [835,0,20.01,0,0,100,0,20,1.04,"ulm-talkingtree-quentin-01-02",0,65536,"2026-01-07T10:16:38"],
    [836,0,19.51,0,0,100,0,19,1.04,"ulm-heidenheimerstr-01-02",0,65536,"2026-01-07T13:31:55"],
    [837,0,19.15,0,0,100,0,19,1.04,"ulm-talkingtree-maja-01-02",0,65536,"2026-01-07T14:02:49"],
    [838,0,19.25,0,0,100,0,19,1.04,"ulm-talkingtree-pamina-01-02",0,65536,"2026-01-07T14:08:51"],
    [839,0,18.87,0,0,100,0,18,1.05,"ulm-heidenheimerstr-01-02",0,65536,"2026-01-07T17:31:54"],
    [840,0,18.67,0,0,100,0,18,1.05,"ulm-talkingtree-maja-01-02",0,65536,"2026-01-07T18:02:48"],
    [841,0,18.79,0,0,100,0,18,1.05,"ulm-talkingtree-pamina-01-02",0,65536,"2026-01-07T18:08:50"],
    [842,0,18.79,0,0,100,0,18,1.05,"ulm-heidenheimerstr-01-02",0,65536,"2026-01-07T21:31:53"],
    [843,0,18.45,0,0,100,0,18,1.05,"ulm-talkingtree-maja-01-02",0,65536,"2026-01-07T22:02:47"],
    [844,0,18.58,0,0,100,0,18,1.05,"ulm-talkingtree-pamina-01-02",0,65536,"2026-01-07T22:08:49"],
    [845,0,18.66,0,0,100,0,18,1.05,"ulm-talkingtree-quentin-01-02",0,65536,"2026-01-07T22:16:35"],
    [846,0,18.66,0,0,100,0,18,1.05,"ulm-heidenheimerstr-01-02",0,65536,"2026-01-08T01:31:52"],
    [847,0,18.31,0,0,100,0,18,1.05,"ulm-talkingtree-maja-01-02",0,65536,"2026-01-08T02:02:46"],
    [848,0,18.37,0,0,100,0,18,1.05,"ulm-talkingtree-pamina-01-02",0,65536,"2026-01-08T02:08:47"],
    [849,0,18.52,0,0,100,0,18,1.05,"ulm-talkingtree-quentin-01-02",0,65536,"2026-01-08T02:16:34"],
    [850,0,18.95,0,0,100,0,18,1.05,"ulm-heidenheimerstr-01-02",0,65536,"2026-01-08T05:31:51"],
    [851,0,18.89,0,0,100,0,18,1.05,"ulm-talkingtree-maja-01-02",0,65536,"2026-01-08T06:02:45"],
    [852,0,18.95,0,0,100,0,19,1.05,"ulm-talkingtree-pamina-01-02",0,65536,"2026-01-08T06:08:46"],
    [853,0,19.01,0,0,100,0,19,1.04,"ulm-talkingtree-quentin-01-02",0,65536,"2026-01-08T06:16:33"],
    [854,0,20.1,0,0,100,0,19,1.04,"ulm-heidenheimerstr-01-02",0,65536,"2026-01-08T09:31:50"],
    [855,0,19.9,0,0,100,0,19,1.04,"ulm-talkingtree-maja-01-02",0,65536,"2026-01-08T10:02:44"],
    [856,0,19.87,0,0,100,0,19,1.04,"ulm-talkingtree-pamina-01-02",0,65536,"2026-01-08T10:08:45"],
    [857,0,19.99,0,0,100,0,20,1.04,"ulm-talkingtree-quentin-01-02",0,65536,"2026-01-08T10:16:32"],
    [858,0,19.39,0,0,100,0,19,1.04,"ulm-heidenheimerstr-01-02",0,65536,"2026-01-08T13:31:48"],
    [859,0,19.04,0,0,100,0,19,1.04,"ulm-talkingtree-maja-01-02",0,65536,"2026-01-08T14:02:43"],
    [860,0,19.09,0,0,100,0,19,1.04,"ulm-talkingtree-pamina-01-02",0,65536,"2026-01-08T14:08:43"],
    [861,0,19.18,0,0,100,0,18,1.04,"ulm-talkingtree-quentin-01-02",0,65536,"2026-01-08T14:16:30"],
    [862,0,18.95,0,0,100,0,18,1.05,"ulm-heidenheimerstr-01-02",0,65536,"2026-01-08T17:31:47"],
    [863,0,18.78,0,0,100,0,18,1.05,"ulm-talkingtree-maja-01-02",0,65536,"2026-01-08T18:02:42"],
    [864,0,18.87,0,0,100,0,18,1.05,"ulm-talkingtree-pamina-01-02",0,65536,"2026-01-08T18:08:42"],
    [865,0,18.95,0,0,100,0,18,1.05,"ulm-talkingtree-quentin-01-02",0,65536,"2026-01-08T18:16:29"],
    [866,0,18.99,0,0,100,0,18,1.05,"ulm-heidenheimerstr-01-02",0,65536,"2026-01-08T21:31:46"],
    [867,0,18.6,0,0,100,0,18,1.05,"ulm-talkingtree-maja-01-02",0,65536,"2026-01-08T22:02:41"],
    [868,0,18.7,0,0,100,0,18,1.05,"ulm-talkingtree-pamina-01-02",0,65536,"2026-01-08T22:08:41"],
    [869,0,18.79,0,0,100,0,18,1.05,"ulm-talkingtree-quentin-01-02",0,65536,"2026-01-08T22:16:28"],
    [870,0,18.87,0,0,100,0,18,1.05,"ulm-heidenheimerstr-01-02",0,65536,"2026-01-09T01:31:45"],
    [871,0,18.59,0,0,100,0,18,1.05,"ulm-talkingtree-maja-01-02",0,65536,"2026-01-09T02:02:40"],
    [872,0,18.65,0,0,100,0,18,1.05,"ulm-talkingtree-pamina-01-02",0,65536,"2026-01-09T02:08:39"],
    [873,0,18.74,0,0,100,0,18,1.05,"ulm-talkingtree-quentin-01-02",0,65536,"2026-01-09T02:16:27"],
    [874,0,19.62,0,0,100,0,19,1.04,"ulm-heidenheimerstr-01-02",0,65536,"2026-01-09T05:31:44"],
    [875,0,19.51,0,0,100,0,19,1.04,"ulm-talkingtree-maja-01-02",0,65536,"2026-01-09T06:02:39"],
    [876,0,19.54,0,0,100,0,19,1.04,"ulm-talkingtree-pamina-01-02",0,65536,"2026-01-09T06:08:38"],
    [877,0,19.57,0,0,100,0,19,1.04,"ulm-talkingtree-quentin-01-02",0,65536,"2026-01-09T06:16:25"],
    [878,0,21.47,0,0,100,0,21,1.03,"ulm-heidenheimerstr-01-02",0,65536,"2026-01-09T09:31:43"],
    [879,0,21.58,0,0,100,0,21,1.03,"ulm-talkingtree-maja-01-02",0,65536,"2026-01-09T10:02:38"],
    [880,0,21.3,0,0,100,0,21,1.03,"ulm-talkingtree-pamina-01-02",0,65536,"2026-01-09T10:08:37"],
    [881,0,22.08,0,0,100,0,21,1.02,"ulm-heidenheimerstr-01-02",0,65536,"2026-01-09T13:31:42"],
    [882,0,21.78,0,0,100,0,21,1.03,"ulm-talkingtree-maja-01-02",0,65536,"2026-01-09T14:02:37"],
    [883,0,21.66,0,0,100,0,21,1.03,"ulm-talkingtree-pamina-01-02",0,65536,"2026-01-09T14:08:35"],
    [884,0,21.7,0,0,100,0,21,1.03,"ulm-talkingtree-quentin-01-02",0,65536,"2026-01-09T14:16:23"],
    [885,0,21,0,0,100,0,20,1.03,"ulm-heidenheimerstr-01-02",0,65536,"2026-01-09T17:31:41"],
    [886,0,20.55,0,0,100,0,20,1.04,"ulm-talkingtree-maja-01-02",0,65536,"2026-01-09T18:02:36"],
    [887,0,20.58,0,0,100,0,20,1.04,"ulm-talkingtree-pamina-01-02",0,65536,"2026-01-09T18:08:34"],
    [888,0,20.69,0,0,100,0,20,1.04,"ulm-talkingtree-quentin-01-02",0,65536,"2026-01-09T18:16:22"],
    [889,0,19.94,0,0,100,0,19,1.04,"ulm-heidenheimerstr-01-02",0,65536,"2026-01-09T21:31:39"],
    [890,0,19.56,0,0,100,0,19,1.04,"ulm-talkingtree-maja-01-02",0,65536,"2026-01-09T22:02:35"],
    [891,0,19.66,0,0,100,0,19,1.04,"ulm-talkingtree-pamina-01-02",0,65536,"2026-01-09T22:08:33"],
    [892,0,19.71,0,0,100,0,19,1.04,"ulm-talkingtree-quentin-01-02",0,65536,"2026-01-09T22:16:21"],
    [893,0,19.51,0,0,100,0,19,1.04,"ulm-heidenheimerstr-01-02",0,65536,"2026-01-10T01:31:38"],
    [894,0,19.14,0,0,100,0,19,1.04,"ulm-talkingtree-maja-01-02",0,65536,"2026-01-10T02:02:34"],
    [895,0,19.24,0,0,100,0,19,1.04,"ulm-talkingtree-pamina-01-02",0,65536,"2026-01-10T02:08:31"],
    [896,0,19.27,0,0,100,0,18,1.04,"ulm-heidenheimerstr-01-02",0,65536,"2026-01-10T05:31:37"],
    [897,0,18.96,0,0,100,0,19,1.05,"ulm-talkingtree-maja-01-02",0,65536,"2026-01-10T06:02:33"],
    [898,0,19.07,0,0,100,0,19,1.04,"ulm-talkingtree-pamina-01-02",0,65536,"2026-01-10T06:08:30"],
    [899,0,19.09,0,0,100,0,19,1.04,"ulm-talkingtree-quentin-01-02",0,65536,"2026-01-10T06:16:18"],
    [900,0,18.86,0,0,100,0,18,1.05,"ulm-talkingtree-maja-01-02",0,65536,"2026-01-10T10:02:32"],
    [901,0,19.11,0,0,100,0,18,1.04,"ulm-heidenheimerstr-01-02",0,65536,"2026-01-10T13:31:35"],
    [902,0,18.78,0,0,100,0,18,1.05,"ulm-talkingtree-maja-01-02",0,65536,"2026-01-10T14:02:31"],
    [903,0,18.84,0,0,100,0,18,1.05,"ulm-talkingtree-pamina-01-02",0,65536,"2026-01-10T14:08:28"],
    [904,0,18.96,0,0,100,0,18,1.05,"ulm-heidenheimerstr-01-02",0,65536,"2026-01-10T17:31:34"],
    [905,0,18.64,0,0,100,0,18,1.05,"ulm-talkingtree-maja-01-02",0,65536,"2026-01-10T18:02:30"],
    [906,0,18.7,0,0,100,0,18,1.05,"ulm-talkingtree-pamina-01-02",0,65536,"2026-01-10T18:08:26"],
    [907,0,18.75,0,0,100,0,18,1.05,"ulm-talkingtree-quentin-01-02",0,65536,"2026-01-10T18:16:15"],
    [908,0,18.95,0,0,100,0,18,1.05,"ulm-heidenheimerstr-01-02",0,65536,"2026-01-10T21:31:33"],
    [909,0,18.61,0,0,100,0,18,1.05,"ulm-talkingtree-maja-01-02",0,65536,"2026-01-10T22:02:29"],
    [910,0,18.92,0,0,100,0,18,1.05,"ulm-heidenheimerstr-01-02",0,65536,"2026-01-11T01:31:32"],
    [911,0,18.59,0,0,100,0,18,1.05,"ulm-talkingtree-maja-01-02",0,65536,"2026-01-11T02:02:28"],
    [912,0,18.65,0,0,100,0,18,1.05,"ulm-talkingtree-pamina-01-02",0,65536,"2026-01-11T02:08:24"],
    [913,0,18.75,0,0,100,0,18,1.05,"ulm-talkingtree-quentin-01-02",0,65536,"2026-01-11T02:16:12"],
    [914,0,18.67,0,0,100,0,18,1.05,"ulm-talkingtree-maja-01-02",0,65536,"2026-01-11T06:02:27"],
    [915,0,18.76,0,0,100,0,18,1.05,"ulm-talkingtree-pamina-01-02",0,65536,"2026-01-11T06:08:22"],
    [916,0,18.83,0,0,100,0,18,1.05,"ulm-talkingtree-quentin-01-02",0,65536,"2026-01-11T06:16:11"],
    [917,0,18.85,0,0,100,0,18,1.05,"ulm-heidenheimerstr-01-02",0,65536,"2026-01-11T09:31:29"],
    [918,0,18.73,0,0,100,0,18,1.05,"ulm-talkingtree-maja-01-02",0,65536,"2026-01-11T10:02:26"],
    [919,0,18.77,0,0,100,0,18,1.05,"ulm-talkingtree-pamina-01-02",0,65536,"2026-01-11T10:08:21"],
    [920,0,18.86,0,0,100,0,18,1.05,"ulm-talkingtree-quentin-01-02",0,65536,"2026-01-11T10:16:10"],
    [921,0,18.93,0,0,100,0,18,1.05,"ulm-heidenheimerstr-01-02",0,65536,"2026-01-11T13:31:28"],
    [922,0,18.74,0,0,100,0,18,1.05,"ulm-talkingtree-pamina-01-02",0,65536,"2026-01-11T14:08:20"],
    [923,0,18.84,0,0,100,0,18,1.05,"ulm-talkingtree-quentin-01-02",0,65536,"2026-01-11T14:16:09"],
    [924,0,18.85,0,0,100,0,18,1.05,"ulm-heidenheimerstr-01-02",0,65536,"2026-01-11T17:31:27"],
    [925,0,18.65,0,0,100,0,18,1.05,"ulm-talkingtree-maja-01-02",0,65536,"2026-01-11T18:02:25"],
    [926,0,18.79,0,0,100,0,18,1.05,"ulm-talkingtree-quentin-01-02",0,65536,"2026-01-11T18:16:08"],
    [927,0,18.83,0,0,100,0,18,1.05,"ulm-heidenheimerstr-01-02",0,65536,"2026-01-11T21:31:26"],
    [928,0,18.57,0,0,100,0,18,1.05,"ulm-talkingtree-maja-01-02",0,65536,"2026-01-11T22:02:23"],
    [929,0,18.62,0,0,100,0,18,1.05,"ulm-talkingtree-pamina-01-02",0,65536,"2026-01-11T22:08:17"],
    [930,0,18.51,0,0,100,0,18,1.05,"ulm-talkingtree-maja-01-02",0,65536,"2026-01-12T02:02:23"],
    [931,0,18.58,0,0,100,0,18,1.05,"ulm-talkingtree-pamina-01-02",0,65536,"2026-01-12T02:08:16"],
    [932,0,18.79,0,0,100,0,18,1.05,"ulm-heidenheimerstr-01-02",0,65536,"2026-01-12T05:31:24"],
    [933,0,18.74,0,0,100,0,18,1.05,"ulm-talkingtree-maja-01-02",0,65536,"2026-01-12T06:02:22"],
    [934,0,18.79,0,0,100,0,18,1.05,"ulm-talkingtree-pamina-01-02",0,65536,"2026-01-12T06:08:15"],
    [935,0,18.85,0,0,100,0,18,1.05,"ulm-talkingtree-quentin-01-02",0,65536,"2026-01-12T06:16:04"],
    [936,0,20.48,0,0,100,0,20,1.04,"ulm-heidenheimerstr-01-02",0,65536,"2026-01-12T09:31:23"],
    [937,0,20.58,0,0,100,0,20,1.04,"ulm-talkingtree-maja-01-02",0,65536,"2026-01-12T10:02:21"],
    [938,0,20.37,0,0,100,0,20,1.04,"ulm-talkingtree-pamina-01-02",0,65536,"2026-01-12T10:08:13"],
    [939,0,20.4,0,0,100,0,20,1.04,"ulm-talkingtree-quentin-01-02",0,65536,"2026-01-12T10:16:03"],
    [940,0,21.33,0,0,100,0,20,1.03,"ulm-heidenheimerstr-01-02",0,65536,"2026-01-12T13:31:21"],
    [941,0,21.16,0,0,100,0,20,1.03,"ulm-talkingtree-maja-01-02",0,65536,"2026-01-12T14:02:20"],
    [942,0,20.99,0,0,100,0,20,1.04,"ulm-talkingtree-pamina-01-02",0,65536,"2026-01-12T14:08:12"],
    [943,0,21.15,0,0,100,0,21,1.03,"ulm-talkingtree-quentin-01-02",0,65536,"2026-01-12T14:16:02"],
    [944,0,21.62,0,0,100,0,21,1.03,"ulm-heidenheimerstr-01-02",0,65536,"2026-01-12T17:31:20"],
    [945,0,21.15,0,0,100,0,21,1.03,"ulm-talkingtree-maja-01-02",0,65536,"2026-01-12T18:02:19"],
    [946,0,21.02,0,0,100,0,21,1.03,"ulm-talkingtree-pamina-01-02",0,65536,"2026-01-12T18:08:11"],
    [947,0,21.19,0,0,100,0,20,1.03,"ulm-talkingtree-quentin-01-02",0,65536,"2026-01-12T18:16:01"],
    [948,0,20.14,0,0,100,0,19,1.04,"ulm-heidenheimerstr-01-02",0,65536,"2026-01-12T21:31:19"],
    [949,0,19.73,0,0,100,0,19,1.04,"ulm-talkingtree-maja-01-02",0,65536,"2026-01-12T22:02:18"],
    [950,0,19.77,0,0,100,0,19,1.04,"ulm-talkingtree-pamina-01-02",0,65536,"2026-01-12T22:08:09"],
    [951,0,19.92,0,0,100,0,19,1.04,"ulm-talkingtree-quentin-01-02",0,65536,"2026-01-12T22:16:00"],
    [952,0,19.74,0,0,100,0,19,1.04,"ulm-heidenheimerstr-01-02",0,65536,"2026-01-13T01:31:18"],
    [953,0,19.44,0,0,100,0,19,1.04,"ulm-talkingtree-maja-01-02",0,65536,"2026-01-13T02:02:17"],
    [954,0,19.57,0,0,100,0,19,1.04,"ulm-talkingtree-quentin-01-02",0,65536,"2026-01-13T02:15:58"],
    [955,0,20.07,0,0,100,0,19,1.04,"ulm-heidenheimerstr-01-02",0,65536,"2026-01-13T05:31:17"],
    [956,0,20.08,0,0,100,0,19,1.04,"ulm-talkingtree-maja-01-02",0,65536,"2026-01-13T06:02:16"],
    [957,0,20.1,0,0,100,0,20,1.04,"ulm-talkingtree-pamina-01-02",0,65536,"2026-01-13T06:08:07"],
    [958,0,20.07,0,0,100,0,20,1.04,"ulm-talkingtree-quentin-01-02",0,65536,"2026-01-13T06:15:57"],
    [959,0,20.99,0,0,100,0,20,1.04,"ulm-heidenheimerstr-01-02",0,65536,"2026-01-13T09:31:16"],
    [960,0,20.69,0,0,100,0,20,1.04,"ulm-talkingtree-maja-01-02",0,65536,"2026-01-13T10:02:15"],
    [961,0,20.64,0,0,100,0,20,1.04,"ulm-talkingtree-pamina-01-02",0,65536,"2026-01-13T10:08:06"],
    [962,0,20.77,0,0,100,0,20,1.04,"ulm-talkingtree-quentin-01-02",0,65536,"2026-01-13T10:15:56"],
    [963,0,20.51,0,0,100,0,20,1.04,"ulm-heidenheimerstr-01-02",0,65536,"2026-01-13T13:31:15"],
    [964,0,21.27,0,0,100,0,20,1.03,"ulm-talkingtree-merle-01-02",0,65536,"2026-01-13T14:00:35"],
    [965,0,21.3,0,0,100,0,20,1.03,"ulm-talkingtree-merle-01-02",0,65536,"2026-01-13T14:01:06"],
    [966,0,21.29,0,0,100,0,20,1.03,"ulm-talkingtree-merle-01-02",0,65536,"2026-01-13T14:01:35"],
    [967,0,21.28,0,0,100,0,20,1.03,"ulm-talkingtree-merle-01-02",0,65536,"2026-01-13T14:02:05"],
    [968,0,20.12,0,0,100,0,20,1.04,"ulm-talkingtree-maja-01-02",0,65536,"2026-01-13T14:02:14"],
    [969,0,21.27,0,0,100,0,20,1.03,"ulm-talkingtree-merle-01-02",0,65536,"2026-01-13T14:02:35"],
    [970,0,21.26,0,0,100,0,20,1.03,"ulm-talkingtree-merle-01-02",0,65536,"2026-01-13T14:03:05"],
    [971,0,20.2,0,0,100,0,20,1.04,"ulm-talkingtree-pamina-01-02",0,65536,"2026-01-13T14:08:04"],
    [972,0,20.25,0,0,100,0,20,1.04,"ulm-talkingtree-quentin-01-02",0,65536,"2026-01-13T14:15:55"],
    [973,0,21.45,0,0,100,0,22,1.03,"ulm-blaubeurerstr-05-02",0,65536,"2026-01-13T15:42:36"],
    [974,0,21.52,0,0,100,0,22,1.03,"ulm-blaubeurerstr-05-02",0,65536,"2026-01-13T15:43:06"],
    [975,0,21.59,0,0,100,0,22,1.03,"ulm-blaubeurerstr-05-02",0,65536,"2026-01-13T15:43:36"],
    [976,0,21.61,0,0,100,0,22,1.03,"ulm-blaubeurerstr-05-02",0,65536,"2026-01-13T15:44:06"],
    [977,0,21.64,0,0,100,0,22,1.03,"ulm-blaubeurerstr-05-02",0,65536,"2026-01-13T15:44:36"],
    [978,0,21.67,0,0,100,0,22,1.03,"ulm-blaubeurerstr-05-02",0,65536,"2026-01-13T15:45:06"],
    [979,0,21.7,0,0,100,0,22,1.03,"ulm-blaubeurerstr-05-02",0,65536,"2026-01-13T15:45:36"],
    [980,0,21.74,0,0,100,0,22,1.03,"ulm-blaubeurerstr-05-02",0,65536,"2026-01-13T15:46:06"],
    [981,0,21.89,0,0,100,0,22,1.03,"ulm-schwambergerstr-02-02",0,65536,"2026-01-13T15:55:05"],
    [982,0,21.94,0,0,100,0,22,1.03,"ulm-schwambergerstr-02-02",0,65536,"2026-01-13T15:55:35"],
    [983,0,21.95,0,0,100,0,22,1.03,"ulm-schwambergerstr-02-02",0,65536,"2026-01-13T15:56:05"],
    [984,0,21.98,0,0,100,0,22,1.03,"ulm-schwambergerstr-02-02",0,65536,"2026-01-13T15:56:35"],
    [985,0,21.36,0,0,100,0,20,1.03,"ulm-heidenheimerstr-01-02",0,65536,"2026-01-13T17:31:14"],
    [986,0,20.99,0,0,100,0,20,1.04,"ulm-talkingtree-maja-01-02",0,65536,"2026-01-13T18:02:13"],
    [987,0,20.9,0,0,100,0,20,1.04,"ulm-talkingtree-pamina-01-02",0,65536,"2026-01-13T18:08:03"],
    [988,0,20.94,0,0,100,0,20,1.04,"ulm-talkingtree-quentin-01-02",0,65536,"2026-01-13T18:15:53"],
    [989,0,20.79,0,0,98,0,20,1.04,"ulm-talkingtree-merle-01-02",0,65536,"2026-01-13T19:36:27"],
    [990,0,20.44,0,0,98,0,20,1.04,"ulm-schwambergerstr-02-02",0,65536,"2026-01-13T19:56:53"],
    [991,0,20.37,0,0,100,0,20,1.04,"ulm-heidenheimerstr-01-02",0,65536,"2026-01-13T21:31:12"],
    [992,0,19.89,0,0,100,0,20,1.04,"ulm-talkingtree-maja-01-02",0,65536,"2026-01-13T22:02:12"],
    [993,0,20.02,0,0,100,0,19,1.04,"ulm-talkingtree-quentin-01-02",0,65536,"2026-01-13T22:15:52"],
    [994,0,19.84,0,0,98,0,19,1.04,"ulm-talkingtree-merle-01-02",0,65536,"2026-01-13T23:36:26"],
    [995,0,19.59,0,0,98,0,19,1.04,"ulm-blaubeurerstr-05-02",0,65536,"2026-01-13T23:46:35"],
    [996,0,19.64,0,0,98,0,19,1.04,"ulm-schwambergerstr-02-02",0,65536,"2026-01-13T23:56:52"],
    [997,0,19.77,0,0,100,0,19,1.04,"ulm-heidenheimerstr-01-02",0,65536,"2026-01-14T01:31:11"],
    [998,0,19.34,0,0,100,0,19,1.04,"ulm-talkingtree-maja-01-02",0,65536,"2026-01-14T02:02:11"],
    [999,0,19.5,0,0,100,0,19,1.04,"ulm-talkingtree-pamina-01-02",0,65536,"2026-01-14T02:08:00"],
    [1000,0,19.37,0,0,98,0,19,1.04,"ulm-talkingtree-merle-01-02",0,65536,"2026-01-14T03:36:24"],
    [1001,0,19.14,0,0,98,0,19,1.04,"ulm-blaubeurerstr-05-02",0,65536,"2026-01-14T03:46:34"],
    [1002,0,19.19,0,0,98,0,19,1.04,"ulm-schwambergerstr-02-02",0,65536,"2026-01-14T03:56:51"],
    [1003,0,20.37,0,0,100,0,19,1.04,"ulm-heidenheimerstr-01-02",0,65536,"2026-01-14T05:31:10"],
    [1004,0,20.18,0,0,100,0,20,1.04,"ulm-talkingtree-maja-01-02",0,65536,"2026-01-14T06:02:10"],
    [1005,0,20.17,0,0,100,0,20,1.04,"ulm-talkingtree-pamina-01-02",0,65536,"2026-01-14T06:07:59"],
    [1006,0,20.21,0,0,100,0,20,1.04,"ulm-talkingtree-quentin-01-02",0,65536,"2026-01-14T06:15:50"],
    [1007,0,20.89,0,0,99,0,20,1.04,"ulm-blaubeurerstr-05-02",0,65536,"2026-01-14T07:46:33"],
    [1008,0,21.16,0,0,98,0,20,1.03,"ulm-schwambergerstr-02-02",0,65536,"2026-01-14T07:56:49"],
    [1009,0,21.62,0,0,100,0,21,1.03,"ulm-heidenheimerstr-01-02",0,65536,"2026-01-14T09:31:09"],
    [1010,0,21.73,0,0,100,0,21,1.03,"ulm-talkingtree-maja-01-02",0,65536,"2026-01-14T10:02:09"],
    [1011,0,21.46,0,0,100,0,21,1.03,"ulm-talkingtree-pamina-01-02",0,65536,"2026-01-14T10:07:58"],
    [1012,0,21.42,0,0,100,0,21,1.03,"ulm-talkingtree-quentin-01-02",0,65536,"2026-01-14T10:15:49"],
    [1013,0,21.81,0,0,100,0,21,1.03,"ulm-heidenheimerstr-01-02",0,65536,"2026-01-14T13:31:08"],
    [1014,0,21.48,0,0,100,0,21,1.03,"ulm-talkingtree-maja-01-02",0,65536,"2026-01-14T14:02:08"],
    [1015,0,21.44,0,0,100,0,21,1.03,"ulm-talkingtree-pamina-01-02",0,65536,"2026-01-14T14:07:56"],
    [1016,0,21.47,0,0,100,0,21,1.03,"ulm-talkingtree-quentin-01-02",0,65536,"2026-01-14T14:15:47"],
    [1017,0,21.7,0,0,100,0,21,1.03,"ulm-heidenheimerstr-01-02",0,65536,"2026-01-14T17:31:07"],
    [1018,0,21.23,0,0,100,0,21,1.03,"ulm-talkingtree-maja-01-02",0,65536,"2026-01-14T18:02:07"],
    [1019,0,21.2,0,0,99,0,21,1.03,"ulm-talkingtree-pamina-01-02",0,65536,"2026-01-14T18:07:55"],
    [1020,0,21.26,0,0,100,0,21,1.03,"ulm-talkingtree-quentin-01-02",0,65536,"2026-01-14T18:15:46"],
    [1021,0,20.67,0,0,100,0,20,1.04,"ulm-heidenheimerstr-01-02",0,65536,"2026-01-14T21:31:05"],
    [1022,0,20.19,0,0,100,0,20,1.04,"ulm-talkingtree-maja-01-02",0,65536,"2026-01-14T22:02:06"],
    [1023,0,20.34,0,0,100,0,20,1.04,"ulm-talkingtree-pamina-01-02",0,65536,"2026-01-14T22:07:54"],
    [1024,0,19.95,0,0,100,0,19,1.04,"ulm-heidenheimerstr-01-02",0,65536,"2026-01-15T01:31:05"],
    [1025,0,19.58,0,0,100,0,19,1.04,"ulm-talkingtree-maja-01-02",0,65536,"2026-01-15T02:02:05"],
    [1026,0,19.7,0,0,100,0,19,1.04,"ulm-talkingtree-pamina-01-02",0,65536,"2026-01-15T02:07:52"],
    [1027,0,19.79,0,0,100,0,19,1.04,"ulm-heidenheimerstr-01-02",0,65536,"2026-01-15T05:31:03"],
    [1028,0,19.5,0,0,100,0,19,1.04,"ulm-talkingtree-maja-01-02",0,65536,"2026-01-15T06:02:04"],
    [1029,0,19.62,0,0,100,0,19,1.04,"ulm-talkingtree-pamina-01-02",0,65536,"2026-01-15T06:07:51"],
    [1030,0,19.67,0,0,100,0,19,1.04,"ulm-talkingtree-quentin-01-02",0,65536,"2026-01-15T06:15:43"],
    [1031,0,21.14,0,0,100,0,20,1.03,"ulm-heidenheimerstr-01-02",0,65536,"2026-01-15T09:31:02"],
    [1032,0,20.87,0,0,100,0,20,1.04,"ulm-talkingtree-maja-01-02",0,65536,"2026-01-15T10:02:03"],
    [1033,0,20.8,0,0,100,0,20,1.04,"ulm-talkingtree-pamina-01-02",0,65536,"2026-01-15T10:07:50"],
    [1034,0,20.88,0,0,100,0,20,1.04,"ulm-talkingtree-quentin-01-02",0,65536,"2026-01-15T10:15:42"],
    [1035,0,20.71,0,0,100,0,20,1.04,"ulm-heidenheimerstr-01-02",0,65536,"2026-01-15T13:31:01"],
    [1036,0,20.36,0,0,100,0,20,1.04,"ulm-talkingtree-maja-01-02",0,65536,"2026-01-15T14:02:02"],
    [1037,0,20.43,0,0,100,0,20,1.04,"ulm-talkingtree-quentin-01-02",0,65536,"2026-01-15T14:15:40"],
    [1038,0,19.83,0,0,100,0,19,1.04,"ulm-talkingtree-maja-01-02",0,65536,"2026-01-15T18:02:01"],
    [1039,0,19.96,0,0,100,0,20,1.04,"ulm-talkingtree-pamina-01-02",0,65536,"2026-01-15T18:07:47"],
    [1040,0,19.95,0,0,100,0,19,1.04,"ulm-talkingtree-quentin-01-02",0,65536,"2026-01-15T18:15:39"],
    [1041,0,19.78,0,0,100,0,19,1.04,"ulm-heidenheimerstr-01-02",0,65536,"2026-01-15T21:30:59"],
    [1042,0,19.37,0,0,100,0,19,1.04,"ulm-talkingtree-maja-01-02",0,65536,"2026-01-15T22:02:00"],
    [1043,0,19.53,0,0,100,0,19,1.04,"ulm-talkingtree-pamina-01-02",0,65536,"2026-01-15T22:07:46"],
    [1044,0,19.51,0,0,100,0,19,1.04,"ulm-talkingtree-quentin-01-02",0,65536,"2026-01-15T22:15:38"],
    [1045,0,19.59,0,0,100,0,19,1.04,"ulm-heidenheimerstr-01-02",0,65536,"2026-01-16T01:30:58"],
    [1046,0,19.28,0,0,100,0,19,1.04,"ulm-talkingtree-maja-01-02",0,65536,"2026-01-16T02:01:59"],
    [1047,0,19.44,0,0,100,0,19,1.04,"ulm-talkingtree-quentin-01-02",0,65536,"2026-01-16T02:15:37"],
    [1048,0,20.55,0,0,100,0,20,1.04,"ulm-heidenheimerstr-01-02",0,65536,"2026-01-16T05:30:56"],
    [1049,0,20.43,0,0,100,0,20,1.04,"ulm-talkingtree-maja-01-02",0,65536,"2026-01-16T06:01:58"],
    [1050,0,20.36,0,0,100,0,20,1.04,"ulm-talkingtree-pamina-01-02",0,65536,"2026-01-16T06:07:43"],
    [1051,0,20.37,0,0,100,0,20,1.04,"ulm-talkingtree-quentin-01-02",0,65536,"2026-01-16T06:15:36"],
    [1052,0,21.2,0,0,100,0,20,1.03,"ulm-heidenheimerstr-01-02",0,65536,"2026-01-16T09:30:56"],
    [1053,0,20.86,0,0,100,0,20,1.04,"ulm-talkingtree-maja-01-02",0,65536,"2026-01-16T10:01:57"],
    [1054,0,20.8,0,0,100,0,20,1.04,"ulm-talkingtree-pamina-01-02",0,65536,"2026-01-16T10:07:42"],
    [1055,0,20.87,0,0,100,0,20,1.04,"ulm-talkingtree-quentin-01-02",0,65536,"2026-01-16T10:15:34"],
    [1056,0,21.36,0,0,100,0,20,1.03,"ulm-heidenheimerstr-01-02",0,65536,"2026-01-16T13:30:54"],
    [1057,0,21.09,0,0,100,0,21,1.03,"ulm-talkingtree-maja-01-02",0,65536,"2026-01-16T14:01:56"],
    [1058,0,21.15,0,0,100,0,20,1.03,"ulm-talkingtree-quentin-01-02",0,65536,"2026-01-16T14:15:33"],
    [1059,0,20.8,0,0,100,0,20,1.04,"ulm-heidenheimerstr-01-02",0,65536,"2026-01-16T17:30:53"],
    [1060,0,20.49,0,0,100,0,20,1.04,"ulm-talkingtree-pamina-01-02",0,65536,"2026-01-16T18:07:39"],
    [1061,0,20.45,0,0,100,0,20,1.04,"ulm-talkingtree-quentin-01-02",0,65536,"2026-01-16T18:15:32"],
    [1062,0,20.07,0,0,100,0,19,1.04,"ulm-heidenheimerstr-01-02",0,65536,"2026-01-16T21:30:52"],
    [1063,0,19.59,0,0,100,0,19,1.04,"ulm-talkingtree-maja-01-02",0,65536,"2026-01-16T22:01:54"],
    [1064,0,19.84,0,0,100,0,19,1.04,"ulm-talkingtree-pamina-01-02",0,65536,"2026-01-16T22:07:38"],
    [1065,0,19.77,0,0,100,0,19,1.04,"ulm-talkingtree-quentin-01-02",0,65536,"2026-01-16T22:15:31"],
    [1066,0,19.67,0,0,100,0,19,1.04,"ulm-heidenheimerstr-01-02",0,65536,"2026-01-17T01:30:51"],
    [1067,0,19.2,0,0,100,0,19,1.04,"ulm-talkingtree-maja-01-02",0,65536,"2026-01-17T02:01:53"],
    [1068,0,19.45,0,0,100,0,19,1.04,"ulm-talkingtree-pamina-01-02",0,65536,"2026-01-17T02:07:37"],
    [1069,0,19.42,0,0,100,0,19,1.04,"ulm-talkingtree-quentin-01-02",0,65536,"2026-01-17T02:15:30"],
    [1070,0,19.62,0,0,100,0,19,1.04,"ulm-heidenheimerstr-01-02",0,65536,"2026-01-17T05:30:50"],
    [1071,0,19.14,0,0,100,0,19,1.04,"ulm-talkingtree-maja-01-02",0,65536,"2026-01-17T06:01:52"],
    [1072,0,19.36,0,0,100,0,19,1.04,"ulm-talkingtree-pamina-01-02",0,65536,"2026-01-17T06:07:35"],
    [1073,0,19.31,0,0,100,0,19,1.04,"ulm-talkingtree-quentin-01-02",0,65536,"2026-01-17T06:15:28"],
    [1074,0,19.54,0,0,100,0,19,1.04,"ulm-heidenheimerstr-01-02",0,65536,"2026-01-17T09:30:49"],
    [1075,0,19.07,0,0,100,0,19,1.04,"ulm-talkingtree-maja-01-02",0,65536,"2026-01-17T10:01:51"],
    [1076,0,19.26,0,0,100,0,19,1.04,"ulm-talkingtree-pamina-01-02",0,65536,"2026-01-17T10:07:34"],
    [1077,0,19.24,0,0,100,0,19,1.04,"ulm-talkingtree-quentin-01-02",0,65536,"2026-01-17T10:15:27"],
    [1078,0,19.44,0,0,100,0,19,1.04,"ulm-heidenheimerstr-01-02",0,65536,"2026-01-17T13:30:47"],
    [1079,0,19.01,0,0,100,0,19,1.04,"ulm-talkingtree-maja-01-02",0,65536,"2026-01-17T14:01:50"],
    [1080,0,19.17,0,0,100,0,19,1.04,"ulm-talkingtree-pamina-01-02",0,65536,"2026-01-17T14:07:33"],
    [1081,0,19.16,0,0,100,0,19,1.04,"ulm-talkingtree-quentin-01-02",0,65536,"2026-01-17T14:15:26"],
    [1082,0,19.36,0,0,100,0,18,1.04,"ulm-heidenheimerstr-01-02",0,65536,"2026-01-17T17:30:46"],
    [1083,0,18.87,0,0,100,0,19,1.05,"ulm-talkingtree-maja-01-02",0,65536,"2026-01-17T18:01:49"],
    [1084,0,19.06,0,0,100,0,19,1.04,"ulm-talkingtree-pamina-01-02",0,65536,"2026-01-17T18:07:31"],
    [1085,0,19.06,0,0,100,0,18,1.04,"ulm-talkingtree-quentin-01-02",0,65536,"2026-01-17T18:15:25"],
    [1086,0,19.16,0,0,100,0,18,1.04,"ulm-heidenheimerstr-01-02",0,65536,"2026-01-17T21:30:45"],
    [1087,0,18.74,0,0,100,0,18,1.05,"ulm-talkingtree-maja-01-02",0,65536,"2026-01-17T22:01:48"],
    [1088,0,18.9,0,0,100,0,18,1.05,"ulm-talkingtree-pamina-01-02",0,65536,"2026-01-17T22:07:30"],
    [1089,0,19.03,0,0,100,0,18,1.04,"ulm-heidenheimerstr-01-02",0,65536,"2026-01-18T01:30:44"],
    [1090,0,18.67,0,0,100,0,18,1.05,"ulm-talkingtree-maja-01-02",0,65536,"2026-01-18T02:01:47"],
    [1091,0,18.86,0,0,100,0,18,1.05,"ulm-talkingtree-quentin-01-02",0,65536,"2026-01-18T02:15:22"],
    [1092,0,18.94,0,0,100,0,18,1.05,"ulm-heidenheimerstr-01-02",0,65536,"2026-01-18T05:30:43"],
    [1093,0,18.66,0,0,100,0,18,1.05,"ulm-talkingtree-maja-01-02",0,65536,"2026-01-18T06:01:46"],
    [1094,0,18.82,0,0,100,0,18,1.05,"ulm-talkingtree-quentin-01-02",0,65536,"2026-01-18T06:15:21"],
    [1095,0,18.99,0,0,100,0,18,1.05,"ulm-heidenheimerstr-01-02",0,65536,"2026-01-18T09:30:42"],
    [1096,0,18.58,0,0,100,0,18,1.05,"ulm-talkingtree-maja-01-02",0,65536,"2026-01-18T10:01:45"],
    [1097,0,18.74,0,0,100,0,18,1.05,"ulm-talkingtree-pamina-01-02",0,65536,"2026-01-18T10:07:26"],
    [1098,0,18.75,0,0,100,0,18,1.05,"ulm-talkingtree-quentin-01-02",0,65536,"2026-01-18T10:15:20"],
    [1099,0,18.62,0,0,100,0,18,1.05,"ulm-talkingtree-maja-01-02",0,65536,"2026-01-18T14:01:45"],
    [1100,0,18.76,0,0,100,0,18,1.05,"ulm-talkingtree-quentin-01-02",0,65536,"2026-01-18T14:15:19"],
    [1101,0,18.95,0,0,100,0,18,1.05,"ulm-heidenheimerstr-01-02",0,65536,"2026-01-18T17:30:40"],
    [1102,0,18.64,0,0,100,0,18,1.05,"ulm-talkingtree-maja-01-02",0,65536,"2026-01-18T18:01:43"],
    [1103,0,18.74,0,0,100,0,18,1.05,"ulm-talkingtree-pamina-01-02",0,65536,"2026-01-18T18:07:24"],
    [1104,0,18.76,0,0,100,0,18,1.05,"ulm-talkingtree-quentin-01-02",0,65536,"2026-01-18T18:15:18"],
    [1105,0,18.84,0,0,100,0,18,1.05,"ulm-heidenheimerstr-01-02",0,65536,"2026-01-18T21:30:38"],
    [1106,0,18.54,0,0,100,0,18,1.05,"ulm-talkingtree-maja-01-02",0,65536,"2026-01-18T22:01:42"],
    [1107,0,18.66,0,0,100,0,18,1.05,"ulm-talkingtree-pamina-01-02",0,65536,"2026-01-18T22:07:22"],
    [1108,0,18.86,0,0,100,0,18,1.05,"ulm-heidenheimerstr-01-02",0,65536,"2026-01-19T01:30:37"],
    [1109,0,18.49,0,0,100,0,18,1.05,"ulm-talkingtree-maja-01-02",0,65536,"2026-01-19T02:01:41"],
    [1110,0,18.61,0,0,100,0,18,1.05,"ulm-talkingtree-pamina-01-02",0,65536,"2026-01-19T02:07:21"],
    [1111,0,18.93,0,0,100,0,18,1.05,"ulm-heidenheimerstr-01-02",0,65536,"2026-01-19T05:30:36"],
    [1112,0,18.83,0,0,100,0,18,1.05,"ulm-talkingtree-maja-01-02",0,65536,"2026-01-19T06:01:40"],
    [1113,0,20.29,0,0,100,0,19,1.04,"ulm-heidenheimerstr-01-02",0,65536,"2026-01-19T09:30:35"],
    [1114,0,20.36,0,0,100,0,20,1.04,"ulm-talkingtree-maja-01-02",0,65536,"2026-01-19T10:01:39"],
    [1115,0,20.29,0,0,100,0,20,1.04,"ulm-talkingtree-quentin-01-02",0,65536,"2026-01-19T10:15:13"],
    [1116,0,19.94,0,0,100,0,20,1.04,"ulm-talkingtree-maja-01-02",0,65536,"2026-01-19T14:01:39"],
    [1117,0,20,0,0,100,0,20,1.04,"ulm-talkingtree-pamina-01-02",0,65536,"2026-01-19T14:07:17"],
    [1118,0,19.33,0,0,100,0,19,1.04,"ulm-talkingtree-pamina-01-02",0,65536,"2026-01-19T18:07:16"],
    [1119,0,19.29,0,0,100,0,19,1.04,"ulm-talkingtree-quentin-01-02",0,65536,"2026-01-19T18:15:11"],
    [1120,0,19.4,0,0,100,0,19,1.04,"ulm-heidenheimerstr-01-02",0,65536,"2026-01-19T21:30:32"],
    [1121,0,18.98,0,0,100,0,19,1.05,"ulm-talkingtree-maja-01-02",0,65536,"2026-01-19T22:01:37"],
    [1122,0,19.19,0,0,100,0,19,1.04,"ulm-talkingtree-pamina-01-02",0,65536,"2026-01-19T22:07:14"],
    [1123,0,19.14,0,0,100,0,19,1.04,"ulm-talkingtree-quentin-01-02",0,65536,"2026-01-19T22:15:09"],
    [1124,0,19.24,0,0,100,0,18,1.04,"ulm-heidenheimerstr-01-02",0,65536,"2026-01-20T01:30:31"],
    [1125,0,18.87,0,0,100,0,18,1.05,"ulm-talkingtree-maja-01-02",0,65536,"2026-01-20T02:01:36"],
    [1126,0,19.06,0,0,100,0,19,1.04,"ulm-talkingtree-pamina-01-02",0,65536,"2026-01-20T02:07:13"],
    [1127,0,19.04,0,0,100,0,18,1.04,"ulm-talkingtree-quentin-01-02",0,65536,"2026-01-20T02:15:08"],
    [1128,0,19.48,0,0,100,0,19,1.04,"ulm-heidenheimerstr-01-02",0,65536,"2026-01-20T05:30:29"],
    [1129,0,19.39,0,0,100,0,19,1.04,"ulm-talkingtree-maja-01-02",0,65536,"2026-01-20T06:01:35"],
    [1130,0,19.29,0,0,100,0,19,1.04,"ulm-talkingtree-pamina-01-02",0,65536,"2026-01-20T06:07:12"],
    [1131,0,20.79,0,0,100,0,20,1.04,"ulm-heidenheimerstr-01-02",0,65536,"2026-01-20T09:30:28"],
    [1132,0,20.77,0,0,100,0,20,1.04,"ulm-talkingtree-maja-01-02",0,65536,"2026-01-20T10:01:34"],
    [1133,0,20.5,0,0,100,0,20,1.04,"ulm-talkingtree-pamina-01-02",0,65536,"2026-01-20T10:07:11"],
    [1134,0,20.78,0,0,100,0,20,1.04,"ulm-talkingtree-quentin-01-02",0,65536,"2026-01-20T10:15:06"],
    [1135,0,20.28,0,0,100,0,20,1.04,"ulm-talkingtree-maja-01-02",0,65536,"2026-01-20T14:01:33"],
    [1136,0,20.37,0,0,100,0,20,1.04,"ulm-talkingtree-pamina-01-02",0,65536,"2026-01-20T14:07:09"],
    [1137,0,20.37,0,0,100,0,20,1.04,"ulm-talkingtree-quentin-01-02",0,65536,"2026-01-20T14:15:05"],
    [1138,0,20.25,0,0,100,0,19,1.04,"ulm-heidenheimerstr-01-02",0,65536,"2026-01-20T17:30:26"],
    [1139,0,19.71,0,0,100,0,19,1.04,"ulm-talkingtree-maja-01-02",0,65536,"2026-01-20T18:01:32"],
    [1140,0,19.94,0,0,100,0,19,1.04,"ulm-talkingtree-pamina-01-02",0,65536,"2026-01-20T18:07:08"],
    [1141,0,19.87,0,0,100,0,19,1.04,"ulm-talkingtree-quentin-01-02",0,65536,"2026-01-20T18:15:04"],
    [1142,0,19.54,0,0,100,0,19,1.04,"ulm-heidenheimerstr-01-02",0,65536,"2026-01-20T21:30:25"],
    [1143,0,19.19,0,0,100,0,19,1.04,"ulm-talkingtree-maja-01-02",0,65536,"2026-01-20T22:01:31"],
    [1144,0,19.45,0,0,100,0,19,1.04,"ulm-talkingtree-pamina-01-02",0,65536,"2026-01-20T22:07:07"],
    [1145,0,19.37,0,0,100,0,19,1.04,"ulm-talkingtree-quentin-01-02",0,65536,"2026-01-20T22:15:02"],
    [1146,0,19.44,0,0,100,0,19,1.04,"ulm-heidenheimerstr-01-02",0,65536,"2026-01-21T01:30:24"],
    [1147,0,19,0,0,100,0,19,1.04,"ulm-talkingtree-maja-01-02",0,65536,"2026-01-21T02:01:30"],
    [1148,0,19.23,0,0,100,0,19,1.04,"ulm-talkingtree-pamina-01-02",0,65536,"2026-01-21T02:07:05"],
    [1149,0,19.74,0,0,100,0,19,1.04,"ulm-heidenheimerstr-01-02",0,65536,"2026-01-21T05:30:23"],
    [1150,0,19.62,0,0,100,0,19,1.04,"ulm-talkingtree-maja-01-02",0,65536,"2026-01-21T06:01:29"],
    [1151,0,19.54,0,0,100,0,19,1.04,"ulm-talkingtree-pamina-01-02",0,65536,"2026-01-21T06:07:04"],
    [1152,0,20.9,0,0,100,0,20,1.04,"ulm-heidenheimerstr-01-02",0,65536,"2026-01-21T09:30:22"],
    [1153,0,20.93,0,0,100,0,20,1.04,"ulm-talkingtree-maja-01-02",0,65536,"2026-01-21T10:01:28"],
    [1154,0,20.58,0,0,100,0,20,1.04,"ulm-talkingtree-pamina-01-02",0,65536,"2026-01-21T10:07:03"],
    [1155,0,20.86,0,0,100,0,20,1.04,"ulm-talkingtree-quentin-01-02",0,65536,"2026-01-21T10:14:59"],
    [1156,0,21.29,0,0,100,0,20,1.03,"ulm-heidenheimerstr-01-02",0,65536,"2026-01-21T13:30:20"],
    [1157,0,21,0,0,100,0,20,1.03,"ulm-talkingtree-maja-01-02",0,65536,"2026-01-21T14:01:27"],
    [1158,0,20.89,0,0,100,0,20,1.04,"ulm-talkingtree-pamina-01-02",0,65536,"2026-01-21T14:07:01"],
    [1159,0,21.03,0,0,100,0,20,1.03,"ulm-talkingtree-quentin-01-02",0,65536,"2026-01-21T14:14:58"],
    [1160,0,20.85,0,0,100,0,20,1.04,"ulm-heidenheimerstr-01-02",0,65536,"2026-01-21T17:30:19"],
    [1161,0,20.45,0,0,100,0,20,1.04,"ulm-talkingtree-pamina-01-02",0,65536,"2026-01-21T18:07:00"],
    [1162,0,20.44,0,0,100,0,20,1.04,"ulm-talkingtree-quentin-01-02",0,65536,"2026-01-21T18:14:56"],
    [1163,0,19.79,0,0,100,0,19,1.04,"ulm-heidenheimerstr-01-02",0,65536,"2026-01-21T21:30:18"],
    [1164,0,19.45,0,0,100,0,19,1.04,"ulm-talkingtree-maja-01-02",0,65536,"2026-01-21T22:01:25"],
    [1165,0,19.64,0,0,100,0,19,1.04,"ulm-talkingtree-quentin-01-02",0,65536,"2026-01-21T22:14:55"],
    [1166,0,19.54,0,0,100,0,19,1.04,"ulm-heidenheimerstr-01-02",0,65536,"2026-01-22T01:30:17"],
    [1167,0,19.09,0,0,100,0,19,1.04,"ulm-talkingtree-maja-01-02",0,65536,"2026-01-22T02:01:24"],
    [1168,0,19.35,0,0,100,0,19,1.04,"ulm-talkingtree-pamina-01-02",0,65536,"2026-01-22T02:06:57"],
    [1169,0,19.26,0,0,100,0,19,1.04,"ulm-talkingtree-quentin-01-02",0,65536,"2026-01-22T02:14:54"],
    [1170,0,19.29,0,0,100,0,18,1.04,"ulm-heidenheimerstr-01-02",0,65536,"2026-01-22T05:30:16"],
    [1171,0,18.81,0,0,100,0,18,1.05,"ulm-talkingtree-maja-01-02",0,65536,"2026-01-22T06:01:23"],
    [1172,0,19.04,0,0,100,0,19,1.04,"ulm-talkingtree-pamina-01-02",0,65536,"2026-01-22T06:06:56"],
    [1173,0,19.06,0,0,100,0,18,1.04,"ulm-talkingtree-quentin-01-02",0,65536,"2026-01-22T06:14:53"],
    [1174,0,20.48,0,0,100,0,20,1.04,"ulm-heidenheimerstr-01-02",0,65536,"2026-01-22T09:30:15"],
    [1175,0,20.44,0,0,100,0,20,1.04,"ulm-talkingtree-maja-01-02",0,65536,"2026-01-22T10:01:22"],
    [1176,0,20.23,0,0,100,0,20,1.04,"ulm-talkingtree-pamina-01-02",0,65536,"2026-01-22T10:06:55"],
    [1177,0,20.46,0,0,100,0,20,1.04,"ulm-talkingtree-quentin-01-02",0,65536,"2026-01-22T10:14:52"],
    [1178,0,20.63,0,0,100,0,20,1.04,"ulm-talkingtree-maja-01-02",0,65536,"2026-01-22T14:01:21"],
    [1179,0,20.63,0,0,100,0,20,1.04,"ulm-talkingtree-pamina-01-02",0,65536,"2026-01-22T14:06:53"],
    [1180,0,20.73,0,0,100,0,20,1.04,"ulm-talkingtree-quentin-01-02",0,65536,"2026-01-22T14:14:50"],
    [1181,0,19.57,0,0,100,0,19,1.04,"ulm-talkingtree-maja-01-02",0,65536,"2026-01-22T18:01:20"],
    [1182,0,19.75,0,0,100,0,19,1.04,"ulm-talkingtree-quentin-01-02",0,65536,"2026-01-22T18:14:49"],
    [1183,0,19.2,0,0,100,0,19,1.04,"ulm-talkingtree-maja-01-02",0,65536,"2026-01-22T22:01:19"],
    [1184,0,19.48,0,0,100,0,19,1.04,"ulm-talkingtree-pamina-01-02",0,65536,"2026-01-22T22:06:51"],
    [1185,0,19.39,0,0,100,0,19,1.04,"ulm-talkingtree-quentin-01-02",0,65536,"2026-01-22T22:14:48"],
    [1186,0,18.95,0,0,100,0,19,1.05,"ulm-talkingtree-maja-01-02",0,65536,"2026-01-23T02:01:18"],
    [1187,0,19.2,0,0,100,0,19,1.04,"ulm-talkingtree-pamina-01-02",0,65536,"2026-01-23T02:06:50"],
    [1188,0,20.04,0,0,100,0,19,1.04,"ulm-heidenheimerstr-01-02",0,65536,"2026-01-23T05:30:09"],
    [1189,0,20.11,0,0,100,0,19,1.04,"ulm-talkingtree-maja-01-02",0,65536,"2026-01-23T06:01:17"],
    [1190,0,19.9,0,0,100,0,19,1.04,"ulm-talkingtree-pamina-01-02",0,65536,"2026-01-23T06:06:48"],
    [1191,0,20.04,0,0,100,0,20,1.04,"ulm-talkingtree-quentin-01-02",0,65536,"2026-01-23T06:14:46"],
    [1192,0,21.16,0,0,100,0,20,1.03,"ulm-heidenheimerstr-01-02",0,65536,"2026-01-23T09:30:08"],
    [1193,0,21.08,0,0,100,0,20,1.03,"ulm-talkingtree-maja-01-02",0,65536,"2026-01-23T10:01:16"],
    [1194,0,21.08,0,0,100,0,20,1.03,"ulm-talkingtree-quentin-01-02",0,65536,"2026-01-23T10:14:44"],
    [1195,0,21.15,0,0,100,0,20,1.03,"ulm-heidenheimerstr-01-02",0,65536,"2026-01-23T13:30:07"],
    [1196,0,20.77,0,0,100,0,20,1.04,"ulm-talkingtree-maja-01-02",0,65536,"2026-01-23T14:01:15"],
    [1197,0,20.55,0,0,100,0,20,1.04,"ulm-heidenheimerstr-01-02",0,65536,"2026-01-23T17:30:06"],
    [1198,0,19.99,0,0,100,0,20,1.04,"ulm-talkingtree-maja-01-02",0,65536,"2026-01-23T18:01:14"],
    [1199,0,20.2,0,0,100,0,20,1.04,"ulm-talkingtree-pamina-01-02",0,65536,"2026-01-23T18:06:44"],
    [1200,0,19.62,0,0,100,0,19,1.04,"ulm-heidenheimerstr-01-02",0,65536,"2026-01-23T21:30:05"],
    [1201,0,19.19,0,0,100,0,19,1.04,"ulm-talkingtree-maja-01-02",0,65536,"2026-01-23T22:01:13"],
    [1202,0,19.52,0,0,100,0,19,1.04,"ulm-talkingtree-pamina-01-02",0,65536,"2026-01-23T22:06:43"],
    [1203,0,19.4,0,0,100,0,19,1.04,"ulm-talkingtree-quentin-01-02",0,65536,"2026-01-23T22:14:41"],
    [1204,0,19.29,0,0,100,0,18,1.04,"ulm-heidenheimerstr-01-02",0,65536,"2026-01-24T01:30:04"],
    [1205,0,19.01,0,0,100,0,19,1.04,"ulm-talkingtree-maja-01-02",0,65536,"2026-01-24T02:01:12"],
    [1206,0,19.23,0,0,100,0,19,1.04,"ulm-talkingtree-pamina-01-02",0,65536,"2026-01-24T02:06:42"],
    [1207,0,19.19,0,0,100,0,19,1.04,"ulm-talkingtree-quentin-01-02",0,65536,"2026-01-24T02:14:40"],
    [1208,0,19.31,0,0,100,0,18,1.04,"ulm-heidenheimerstr-01-02",0,65536,"2026-01-24T05:30:02"],
    [1209,0,18.79,0,0,100,0,18,1.05,"ulm-talkingtree-maja-01-02",0,65536,"2026-01-24T06:01:11"],
    [1210,0,19.01,0,0,100,0,18,1.04,"ulm-talkingtree-pamina-01-02",0,65536,"2026-01-24T06:06:40"],
    [1211,0,18.99,0,0,100,0,18,1.05,"ulm-talkingtree-quentin-01-02",0,65536,"2026-01-24T06:14:39"],
    [1212,0,19.25,0,0,100,0,18,1.04,"ulm-heidenheimerstr-01-02",0,65536,"2026-01-24T09:30:01"],
    [1213,0,18.96,0,0,100,0,18,1.05,"ulm-talkingtree-maja-01-02",0,65536,"2026-01-24T10:01:10"],
    [1214,0,19.07,0,0,100,0,19,1.04,"ulm-talkingtree-pamina-01-02",0,65536,"2026-01-24T10:06:39"],
    [1215,0,19.09,0,0,100,0,18,1.04,"ulm-talkingtree-quentin-01-02",0,65536,"2026-01-24T10:14:37"],
    [1216,0,19.25,0,0,100,0,18,1.04,"ulm-heidenheimerstr-01-02",0,65536,"2026-01-24T13:30:00"],
    [1217,0,18.99,0,0,100,0,18,1.05,"ulm-talkingtree-maja-01-02",0,65536,"2026-01-24T14:01:09"],
    [1218,0,19.06,0,0,100,0,19,1.04,"ulm-talkingtree-pamina-01-02",0,65536,"2026-01-24T14:06:38"],
    [1219,0,19.08,0,0,100,0,18,1.04,"ulm-talkingtree-quentin-01-02",0,65536,"2026-01-24T14:14:36"],
    [1220,0,19.14,0,0,100,0,18,1.04,"ulm-heidenheimerstr-01-02",0,65536,"2026-01-24T17:29:59"],
    [1221,0,18.69,0,0,100,0,18,1.05,"ulm-talkingtree-maja-01-02",0,65536,"2026-01-24T18:01:08"],
    [1222,0,18.86,0,0,100,0,18,1.05,"ulm-talkingtree-pamina-01-02",0,65536,"2026-01-24T18:06:37"],
    [1223,0,18.9,0,0,100,0,18,1.05,"ulm-talkingtree-quentin-01-02",0,65536,"2026-01-24T18:14:35"],
    [1224,0,19.14,0,0,100,0,18,1.04,"ulm-heidenheimerstr-01-02",0,65536,"2026-01-24T21:29:58"],
    [1225,0,18.65,0,0,100,0,18,1.05,"ulm-talkingtree-maja-01-02",0,65536,"2026-01-24T22:01:07"],
    [1226,0,18.82,0,0,100,0,18,1.05,"ulm-talkingtree-pamina-01-02",0,65536,"2026-01-24T22:06:35"],
    [1227,0,18.84,0,0,100,0,18,1.05,"ulm-talkingtree-quentin-01-02",0,65536,"2026-01-24T22:14:34"],
    [1228,0,19,0,0,100,0,18,1.04,"ulm-heidenheimerstr-01-02",0,65536,"2026-01-25T01:29:57"],
    [1229,0,18.76,0,0,100,0,18,1.05,"ulm-talkingtree-maja-01-02",0,65536,"2026-01-25T02:01:06"],
    [1230,0,18.87,0,0,100,0,18,1.05,"ulm-talkingtree-pamina-01-02",0,65536,"2026-01-25T02:06:34"],
    [1231,0,18.89,0,0,100,0,18,1.05,"ulm-talkingtree-quentin-01-02",0,65536,"2026-01-25T02:14:33"],
    [1232,0,19.08,0,0,100,0,18,1.04,"ulm-heidenheimerstr-01-02",0,65536,"2026-01-25T05:29:56"],
    [1233,0,18.7,0,0,100,0,18,1.05,"ulm-talkingtree-maja-01-02",0,65536,"2026-01-25T06:01:05"],
    [1234,0,18.84,0,0,100,0,18,1.05,"ulm-talkingtree-pamina-01-02",0,65536,"2026-01-25T06:06:33"],
    [1235,0,18.84,0,0,100,0,18,1.05,"ulm-talkingtree-quentin-01-02",0,65536,"2026-01-25T06:14:31"],
    [1236,0,18.82,0,0,100,0,18,1.05,"ulm-heidenheimerstr-01-02",0,65536,"2026-01-25T09:29:54"],
    [1237,0,18.51,0,0,100,0,18,1.05,"ulm-talkingtree-maja-01-02",0,65536,"2026-01-25T10:01:04"],
    [1238,0,18.66,0,0,100,0,18,1.05,"ulm-talkingtree-pamina-01-02",0,65536,"2026-01-25T10:06:31"],
    [1239,0,18.69,0,0,100,0,18,1.05,"ulm-talkingtree-quentin-01-02",0,65536,"2026-01-25T10:14:30"],
    [1240,0,19.02,0,0,100,0,18,1.04,"ulm-heidenheimerstr-01-02",0,65536,"2026-01-25T13:29:53"],
    [1241,0,18.51,0,0,100,0,18,1.05,"ulm-talkingtree-maja-01-02",0,65536,"2026-01-25T14:01:03"],
    [1242,0,18.66,0,0,100,0,18,1.05,"ulm-talkingtree-pamina-01-02",0,65536,"2026-01-25T14:06:30"],
    [1243,0,18.74,0,0,100,0,18,1.05,"ulm-talkingtree-quentin-01-02",0,65536,"2026-01-25T14:14:29"],
    [1244,0,18.96,0,0,100,0,18,1.05,"ulm-heidenheimerstr-01-02",0,65536,"2026-01-25T17:29:52"],
    [1245,0,18.69,0,0,100,0,18,1.05,"ulm-talkingtree-maja-01-02",0,65536,"2026-01-25T18:01:02"],
    [1246,0,18.78,0,0,100,0,18,1.05,"ulm-talkingtree-pamina-01-02",0,65536,"2026-01-25T18:06:29"],
    [1247,0,18.81,0,0,100,0,18,1.05,"ulm-talkingtree-quentin-01-02",0,65536,"2026-01-25T18:14:28"],
    [1248,0,18.87,0,0,100,0,18,1.05,"ulm-heidenheimerstr-01-02",0,65536,"2026-01-25T21:29:51"],
    [1249,0,18.66,0,0,100,0,18,1.05,"ulm-talkingtree-maja-01-02",0,65536,"2026-01-25T22:01:01"],
    [1250,0,18.69,0,0,100,0,18,1.05,"ulm-talkingtree-pamina-01-02",0,65536,"2026-01-25T22:06:27"],
    [1251,0,18.79,0,0,100,0,18,1.05,"ulm-talkingtree-quentin-01-02",0,65536,"2026-01-25T22:14:27"],
    [1252,0,18.87,0,0,100,0,18,1.05,"ulm-heidenheimerstr-01-02",0,65536,"2026-01-26T01:29:50"],
    [1253,0,18.69,0,0,100,0,18,1.05,"ulm-talkingtree-maja-01-02",0,65536,"2026-01-26T02:01:00"],
    [1254,0,18.76,0,0,100,0,18,1.05,"ulm-talkingtree-pamina-01-02",0,65536,"2026-01-26T02:06:26"],
    [1255,0,18.95,0,0,100,0,18,1.05,"ulm-heidenheimerstr-01-02",0,65536,"2026-01-26T05:29:49"],
    [1256,0,19.04,0,0,100,0,18,1.04,"ulm-talkingtree-maja-01-02",0,65536,"2026-01-26T06:00:59"],
    [1257,0,18.94,0,0,100,0,18,1.05,"ulm-talkingtree-pamina-01-02",0,65536,"2026-01-26T06:06:25"],
    [1258,0,19.09,0,0,100,0,19,1.04,"ulm-talkingtree-quentin-01-02",0,65536,"2026-01-26T06:14:24"],
    [1259,0,20.12,0,0,100,0,19,1.04,"ulm-heidenheimerstr-01-02",0,65536,"2026-01-26T09:29:48"],
    [1260,0,19.77,0,0,100,0,19,1.04,"ulm-talkingtree-maja-01-02",0,65536,"2026-01-26T10:00:58"],
    [1261,0,19.66,0,0,100,0,19,1.04,"ulm-talkingtree-pamina-01-02",0,65536,"2026-01-26T10:06:23"],
    [1262,0,19.82,0,0,100,0,19,1.04,"ulm-talkingtree-quentin-01-02",0,65536,"2026-01-26T10:14:23"],
    [1263,0,19.79,0,0,100,0,19,1.04,"ulm-heidenheimerstr-01-02",0,65536,"2026-01-26T13:29:47"],
    [1264,0,19.36,0,0,100,0,19,1.04,"ulm-talkingtree-maja-01-02",0,65536,"2026-01-26T14:00:58"],
    [1265,0,19.46,0,0,100,0,19,1.04,"ulm-talkingtree-pamina-01-02",0,65536,"2026-01-26T14:06:22"],
    [1266,0,19.54,0,0,100,0,19,1.04,"ulm-talkingtree-quentin-01-02",0,65536,"2026-01-26T14:14:22"],
    [1267,0,19.35,0,0,100,0,18,1.04,"ulm-heidenheimerstr-01-02",0,65536,"2026-01-26T17:29:45"],
    [1268,0,18.93,0,0,100,0,19,1.05,"ulm-talkingtree-maja-01-02",0,65536,"2026-01-26T18:00:56"],
    [1269,0,19.14,0,0,100,0,19,1.04,"ulm-talkingtree-pamina-01-02",0,65536,"2026-01-26T18:06:21"],
    [1270,0,19.12,0,0,100,0,18,1.04,"ulm-talkingtree-quentin-01-02",0,65536,"2026-01-26T18:14:21"],
    [1271,0,19.39,0,0,100,0,19,1.04,"ulm-heidenheimerstr-01-02",0,65536,"2026-01-26T21:29:44"],
    [1272,0,18.99,0,0,100,0,19,1.05,"ulm-talkingtree-maja-01-02",0,65536,"2026-01-26T22:00:56"],
    [1273,0,19.2,0,0,100,0,18,1.04,"ulm-heidenheimerstr-01-02",0,65536,"2026-01-27T01:29:43"],
    [1274,0,18.76,0,0,100,0,18,1.05,"ulm-talkingtree-maja-01-02",0,65536,"2026-01-27T02:00:55"],
    [1275,0,18.94,0,0,100,0,18,1.05,"ulm-talkingtree-pamina-01-02",0,65536,"2026-01-27T02:06:18"],
    [1276,0,19.34,0,0,100,0,18,1.04,"ulm-heidenheimerstr-01-02",0,65536,"2026-01-27T05:29:42"],
    [1277,0,19.06,0,0,100,0,19,1.04,"ulm-talkingtree-maja-01-02",0,65536,"2026-01-27T06:00:54"],
    [1278,0,19.14,0,0,100,0,19,1.04,"ulm-talkingtree-pamina-01-02",0,65536,"2026-01-27T06:06:17"],
    [1279,0,19.21,0,0,100,0,19,1.04,"ulm-talkingtree-quentin-01-02",0,65536,"2026-01-27T06:14:17"],
    [1280,0,20.95,0,0,100,0,20,1.04,"ulm-heidenheimerstr-01-02",0,65536,"2026-01-27T09:29:41"],
    [1281,0,21.23,0,0,100,0,20,1.03,"ulm-talkingtree-maja-01-02",0,65536,"2026-01-27T10:00:53"],
    [1282,0,20.74,0,0,100,0,20,1.04,"ulm-talkingtree-pamina-01-02",0,65536,"2026-01-27T10:06:16"],
    [1283,0,21.15,0,0,100,0,21,1.03,"ulm-talkingtree-quentin-01-02",0,65536,"2026-01-27T10:14:16"],
    [1284,0,21.75,0,0,100,0,21,1.03,"ulm-heidenheimerstr-01-02",0,65536,"2026-01-27T13:29:40"],
    [1285,0,21.54,0,0,100,0,21,1.03,"ulm-talkingtree-maja-01-02",0,65536,"2026-01-27T14:00:52"],
    [1286,0,21.36,0,0,100,0,21,1.03,"ulm-talkingtree-pamina-01-02",0,65536,"2026-01-27T14:06:14"],
    [1287,0,21.59,0,0,100,0,21,1.03,"ulm-talkingtree-quentin-01-02",0,65536,"2026-01-27T14:14:15"],
    [1288,0,21.39,0,0,100,0,20,1.03,"ulm-heidenheimerstr-01-02",0,65536,"2026-01-27T17:29:39"],
    [1289,0,20.79,0,0,100,0,20,1.04,"ulm-talkingtree-maja-01-02",0,65536,"2026-01-27T18:00:51"],
    [1290,0,21.02,0,0,100,0,21,1.03,"ulm-talkingtree-pamina-01-02",0,65536,"2026-01-27T18:06:13"],
    [1291,0,20.98,0,0,100,0,20,1.04,"ulm-talkingtree-quentin-01-02",0,65536,"2026-01-27T18:14:14"],
    [1292,0,20.34,0,0,100,0,19,1.04,"ulm-heidenheimerstr-01-02",0,65536,"2026-01-27T21:29:38"],
    [1293,0,19.84,0,0,100,0,20,1.04,"ulm-talkingtree-maja-01-02",0,65536,"2026-01-27T22:00:50"],
    [1294,0,20.16,0,0,100,0,20,1.04,"ulm-talkingtree-pamina-01-02",0,65536,"2026-01-27T22:06:12"],
    [1295,0,20,0,0,100,0,19,1.04,"ulm-talkingtree-quentin-01-02",0,65536,"2026-01-27T22:14:12"],
    [1296,0,19.74,0,0,100,0,19,1.04,"ulm-heidenheimerstr-01-02",0,65536,"2026-01-28T01:29:36"],
    [1297,0,19.24,0,0,100,0,19,1.04,"ulm-talkingtree-maja-01-02",0,65536,"2026-01-28T02:00:49"],
    [1298,0,19.44,0,0,100,0,19,1.04,"ulm-talkingtree-quentin-01-02",0,65536,"2026-01-28T02:14:11"],
    [1299,0,20.53,0,0,100,0,20,1.04,"ulm-heidenheimerstr-01-02",0,65536,"2026-01-28T05:29:35"],
    [1300,0,20.33,0,0,100,0,20,1.04,"ulm-talkingtree-maja-01-02",0,65536,"2026-01-28T06:00:48"],
    [1301,0,20.18,0,0,100,0,20,1.04,"ulm-talkingtree-pamina-01-02",0,65536,"2026-01-28T06:06:09"],
    [1302,0,20.44,0,0,100,0,20,1.04,"ulm-talkingtree-quentin-01-02",0,65536,"2026-01-28T06:14:10"],
    [1303,0,21.36,0,0,100,0,20,1.03,"ulm-heidenheimerstr-01-02",0,65536,"2026-01-28T09:29:34"],
    [1304,0,21.28,0,0,100,0,21,1.03,"ulm-talkingtree-maja-01-02",0,65536,"2026-01-28T10:00:47"],
    [1305,0,21.03,0,0,100,0,21,1.03,"ulm-talkingtree-pamina-01-02",0,65536,"2026-01-28T10:06:08"],
    [1306,0,21.27,0,0,100,0,20,1.03,"ulm-talkingtree-quentin-01-02",0,65536,"2026-01-28T10:14:09"],
    [1307,0,21.48,0,0,100,0,20,1.03,"ulm-heidenheimerstr-01-02",0,65536,"2026-01-28T13:29:33"],
    [1308,0,21.22,0,0,100,0,21,1.03,"ulm-talkingtree-maja-01-02",0,65536,"2026-01-28T14:00:46"],
    [1309,0,21.09,0,0,100,0,21,1.03,"ulm-talkingtree-pamina-01-02",0,65536,"2026-01-28T14:06:06"],
    [1310,0,21.18,0,0,100,0,20,1.03,"ulm-talkingtree-quentin-01-02",0,65536,"2026-01-28T14:14:08"],
    [1311,0,20.99,0,0,100,0,20,1.04,"ulm-heidenheimerstr-01-02",0,65536,"2026-01-28T17:29:32"],
    [1312,0,20.54,0,0,100,0,20,1.04,"ulm-talkingtree-maja-01-02",0,65536,"2026-01-28T18:00:45"],
    [1313,0,20.67,0,0,100,0,20,1.04,"ulm-talkingtree-pamina-01-02",0,65536,"2026-01-28T18:06:05"],
    [1314,0,20.34,0,0,100,0,20,1.04,"ulm-heidenheimerstr-01-02",0,65536,"2026-01-28T21:29:31"],
    [1315,0,19.84,0,0,100,0,19,1.04,"ulm-talkingtree-maja-01-02",0,65536,"2026-01-28T22:00:44"],
    [1316,0,20.09,0,0,100,0,20,1.04,"ulm-talkingtree-pamina-01-02",0,65536,"2026-01-28T22:06:04"],
    [1317,0,19.94,0,0,100,0,19,1.04,"ulm-talkingtree-quentin-01-02",0,65536,"2026-01-28T22:14:05"],
    [1318,0,19.78,0,0,100,0,19,1.04,"ulm-heidenheimerstr-01-02",0,65536,"2026-01-29T01:29:30"],
    [1319,0,19.34,0,0,100,0,19,1.04,"ulm-talkingtree-maja-01-02",0,65536,"2026-01-29T02:00:43"],
    [1320,0,19.59,0,0,100,0,19,1.04,"ulm-talkingtree-pamina-01-02",0,65536,"2026-01-29T02:06:03"],
    [1321,0,19.44,0,0,100,0,19,1.04,"ulm-talkingtree-quentin-01-02",0,65536,"2026-01-29T02:14:04"],
    [1322,0,19.64,0,0,100,0,19,1.04,"ulm-heidenheimerstr-01-02",0,65536,"2026-01-29T05:29:29"],
    [1323,0,19.29,0,0,100,0,19,1.04,"ulm-talkingtree-maja-01-02",0,65536,"2026-01-29T06:00:42"],
    [1324,0,19.49,0,0,100,0,19,1.04,"ulm-talkingtree-pamina-01-02",0,65536,"2026-01-29T06:06:01"],
    [1325,0,20.8,0,0,100,0,20,1.04,"ulm-heidenheimerstr-01-02",0,65536,"2026-01-29T09:29:27"],
    [1326,0,20.82,0,0,100,0,20,1.04,"ulm-talkingtree-maja-01-02",0,65536,"2026-01-29T10:00:41"],
    [1327,0,20.6,0,0,100,0,20,1.04,"ulm-talkingtree-pamina-01-02",0,65536,"2026-01-29T10:06:00"],
    [1328,0,20.91,0,0,100,0,20,1.04,"ulm-talkingtree-quentin-01-02",0,65536,"2026-01-29T10:14:02"],
    [1329,0,20.6,0,0,100,0,20,1.04,"ulm-heidenheimerstr-01-02",0,65536,"2026-01-29T13:29:26"],
    [1330,0,20.2,0,0,100,0,20,1.04,"ulm-talkingtree-maja-01-02",0,65536,"2026-01-29T14:00:40"],
    [1331,0,20.33,0,0,100,0,20,1.04,"ulm-talkingtree-pamina-01-02",0,65536,"2026-01-29T14:05:59"],
    [1332,0,20.27,0,0,100,0,20,1.04,"ulm-talkingtree-quentin-01-02",0,65536,"2026-01-29T14:14:00"],
    [1333,0,20.09,0,0,100,0,19,1.04,"ulm-heidenheimerstr-01-02",0,65536,"2026-01-29T17:29:25"],
    [1334,0,19.65,0,0,100,0,19,1.04,"ulm-talkingtree-maja-01-02",0,65536,"2026-01-29T18:00:39"],
    [1335,0,19.89,0,0,100,0,19,1.04,"ulm-talkingtree-pamina-01-02",0,65536,"2026-01-29T18:05:57"],
    [1336,0,19.79,0,0,100,0,19,1.04,"ulm-talkingtree-quentin-01-02",0,65536,"2026-01-29T18:13:59"],
    [1337,0,19.71,0,0,100,0,19,1.04,"ulm-heidenheimerstr-01-02",0,65536,"2026-01-29T21:29:24"],
    [1338,0,19.39,0,0,100,0,19,1.04,"ulm-talkingtree-maja-01-02",0,65536,"2026-01-29T22:00:38"],
    [1339,0,19.64,0,0,100,0,19,1.04,"ulm-talkingtree-pamina-01-02",0,65536,"2026-01-29T22:05:56"],
    [1340,0,19.53,0,0,100,0,19,1.04,"ulm-talkingtree-quentin-01-02",0,65536,"2026-01-29T22:13:58"],
    [1341,0,19.71,0,0,100,0,19,1.04,"ulm-heidenheimerstr-01-02",0,65536,"2026-01-30T01:29:23"],
    [1342,0,19.32,0,0,100,0,19,1.04,"ulm-talkingtree-maja-01-02",0,65536,"2026-01-30T02:00:37"],
    [1343,0,19.52,0,0,100,0,19,1.04,"ulm-talkingtree-pamina-01-02",0,65536,"2026-01-30T02:05:55"],
    [1344,0,19.44,0,0,100,0,19,1.04,"ulm-talkingtree-quentin-01-02",0,65536,"2026-01-30T02:13:57"],
    [1345,0,20.07,0,0,100,0,19,1.04,"ulm-heidenheimerstr-01-02",0,65536,"2026-01-30T05:29:22"],
    [1346,0,20.17,0,0,100,0,20,1.04,"ulm-talkingtree-maja-01-02",0,65536,"2026-01-30T06:00:36"],
    [1347,0,20.07,0,0,100,0,20,1.04,"ulm-talkingtree-pamina-01-02",0,65536,"2026-01-30T06:05:53"],
    [1348,0,20.25,0,0,100,0,20,1.04,"ulm-talkingtree-quentin-01-02",0,65536,"2026-01-30T06:13:56"],
    [1349,0,20.99,0,0,100,0,20,1.04,"ulm-heidenheimerstr-01-02",0,65536,"2026-01-30T09:29:21"],
    [1350,0,20.91,0,0,100,0,20,1.04,"ulm-talkingtree-maja-01-02",0,65536,"2026-01-30T10:00:35"],
    [1351,0,20.75,0,0,100,0,20,1.04,"ulm-talkingtree-pamina-01-02",0,65536,"2026-01-30T10:05:52"],
    [1352,0,20.99,0,0,100,0,20,1.04,"ulm-talkingtree-quentin-01-02",0,65536,"2026-01-30T10:13:55"],
    [1353,0,20.33,0,0,100,0,20,1.04,"ulm-talkingtree-maja-01-02",0,65536,"2026-01-30T14:00:34"],
    [1354,0,20.37,0,0,100,0,20,1.04,"ulm-talkingtree-quentin-01-02",0,65536,"2026-01-30T14:13:53"],
    [1355,0,20.2,0,0,100,0,19,1.04,"ulm-heidenheimerstr-01-02",0,65536,"2026-01-30T17:29:18"],
    [1356,0,19.71,0,0,100,0,19,1.04,"ulm-talkingtree-maja-01-02",0,65536,"2026-01-30T18:00:33"],
    [1357,0,19.96,0,0,100,0,19,1.04,"ulm-talkingtree-pamina-01-02",0,65536,"2026-01-30T18:05:50"],
    [1358,0,19.85,0,0,100,0,19,1.04,"ulm-talkingtree-quentin-01-02",0,65536,"2026-01-30T18:13:52"],
    [1359,0,19.64,0,0,100,0,19,1.04,"ulm-heidenheimerstr-01-02",0,65536,"2026-01-30T21:29:17"],
    [1360,0,19.21,0,0,100,0,19,1.04,"ulm-talkingtree-maja-01-02",0,65536,"2026-01-30T22:00:32"],
    [1361,0,19.44,0,0,100,0,19,1.04,"ulm-talkingtree-pamina-01-02",0,65536,"2026-01-30T22:05:48"],
    [1362,0,19.37,0,0,100,0,19,1.04,"ulm-talkingtree-quentin-01-02",0,65536,"2026-01-30T22:13:51"],
    [1363,0,19.61,0,0,100,0,19,1.04,"ulm-heidenheimerstr-01-02",0,65536,"2026-01-31T01:29:16"],
    [1364,0,19.21,0,0,100,0,19,1.04,"ulm-talkingtree-maja-01-02",0,65536,"2026-01-31T02:00:31"],
    [1365,0,19.39,0,0,100,0,19,1.04,"ulm-talkingtree-pamina-01-02",0,65536,"2026-01-31T02:05:47"],
    [1366,0,19.34,0,0,100,0,19,1.04,"ulm-talkingtree-quentin-01-02",0,65536,"2026-01-31T02:13:50"],
    [1367,0,19.51,0,0,100,0,19,1.04,"ulm-heidenheimerstr-01-02",0,65536,"2026-01-31T05:29:15"],
    [1368,0,19.09,0,0,100,0,19,1.04,"ulm-talkingtree-maja-01-02",0,65536,"2026-01-31T06:00:30"],
    [1369,0,19.27,0,0,100,0,19,1.04,"ulm-talkingtree-pamina-01-02",0,65536,"2026-01-31T06:05:45"],
    [1370,0,19.2,0,0,100,0,19,1.04,"ulm-talkingtree-quentin-01-02",0,65536,"2026-01-31T06:13:49"],
    [1371,0,19.37,0,0,100,0,19,1.04,"ulm-heidenheimerstr-01-02",0,65536,"2026-01-31T09:29:14"],
    [1372,0,19.12,0,0,100,0,19,1.04,"ulm-talkingtree-maja-01-02",0,65536,"2026-01-31T10:00:29"],
    [1373,0,19.24,0,0,100,0,19,1.04,"ulm-talkingtree-pamina-01-02",0,65536,"2026-01-31T10:05:44"],
    [1374,0,19.24,0,0,100,0,19,1.04,"ulm-talkingtree-quentin-01-02",0,65536,"2026-01-31T10:13:47"],
    [1375,0,19.45,0,0,100,0,19,1.04,"ulm-heidenheimerstr-01-02",0,65536,"2026-01-31T13:29:13"],
    [1376,0,19.07,0,0,100,0,19,1.04,"ulm-talkingtree-maja-01-02",0,65536,"2026-01-31T14:00:28"],
    [1377,0,19.16,0,0,100,0,19,1.04,"ulm-talkingtree-pamina-01-02",0,65536,"2026-01-31T14:05:43"],
    [1378,0,19.16,0,0,100,0,19,1.04,"ulm-talkingtree-quentin-01-02",0,65536,"2026-01-31T14:13:46"],
    [1379,0,19.39,0,0,100,0,19,1.04,"ulm-heidenheimerstr-01-02",0,65536,"2026-01-31T17:29:12"],
    [1380,0,19.06,0,0,100,0,19,1.04,"ulm-talkingtree-maja-01-02",0,65536,"2026-01-31T18:00:27"],
    [1381,0,19.19,0,0,100,0,19,1.04,"ulm-talkingtree-pamina-01-02",0,65536,"2026-01-31T18:05:42"],
    [1382,0,18.95,0,0,100,0,19,1.05,"ulm-talkingtree-maja-01-02",0,65536,"2026-01-31T22:00:26"],
    [1383,0,19.06,0,0,100,0,18,1.04,"ulm-talkingtree-quentin-01-02",0,65536,"2026-01-31T22:13:44"],
    [1384,0,19.36,0,0,100,0,19,1.04,"ulm-heidenheimerstr-01-02",0,65536,"2026-02-01T01:29:09"],
    [1385,0,18.99,0,0,100,0,19,1.05,"ulm-talkingtree-maja-01-02",0,65536,"2026-02-01T02:00:25"],
    [1386,0,19.04,0,0,100,0,19,1.04,"ulm-talkingtree-pamina-01-02",0,65536,"2026-02-01T02:05:39"],
    [1387,0,19.08,0,0,100,0,18,1.04,"ulm-talkingtree-quentin-01-02",0,65536,"2026-02-01T02:13:43"],
    [1388,0,19.23,0,0,100,0,18,1.04,"ulm-heidenheimerstr-01-02",0,65536,"2026-02-01T05:29:08"],
    [1389,0,18.82,0,0,100,0,18,1.05,"ulm-talkingtree-maja-01-02",0,65536,"2026-02-01T06:00:24"],
    [1390,0,18.95,0,0,100,0,18,1.05,"ulm-talkingtree-pamina-01-02",0,65536,"2026-02-01T06:05:38"],
    [1391,0,18.94,0,0,100,0,18,1.05,"ulm-talkingtree-quentin-01-02",0,65536,"2026-02-01T06:13:41"],
    [1392,0,19.11,0,0,100,0,18,1.04,"ulm-heidenheimerstr-01-02",0,65536,"2026-02-01T09:29:07"],
    [1393,0,18.87,0,0,100,0,18,1.05,"ulm-talkingtree-maja-01-02",0,65536,"2026-02-01T10:00:23"],
    [1394,0,18.98,0,0,100,0,19,1.05,"ulm-talkingtree-pamina-01-02",0,65536,"2026-02-01T10:05:36"],
    [1395,0,18.99,0,0,100,0,18,1.05,"ulm-talkingtree-quentin-01-02",0,65536,"2026-02-01T10:13:40"],
    [1396,0,19.2,0,0,100,0,18,1.04,"ulm-heidenheimerstr-01-02",0,65536,"2026-02-01T13:29:06"],
    [1397,0,18.98,0,0,100,0,18,1.05,"ulm-talkingtree-maja-01-02",0,65536,"2026-02-01T14:00:22"],
    [1398,0,19,0,0,100,0,19,1.04,"ulm-talkingtree-pamina-01-02",0,65536,"2026-02-01T14:05:35"],
    [1399,0,19.06,0,0,100,0,18,1.04,"ulm-talkingtree-quentin-01-02",0,65536,"2026-02-01T14:13:39"],
    [1400,0,19.23,0,0,100,0,18,1.04,"ulm-heidenheimerstr-01-02",0,65536,"2026-02-01T17:29:05"],
    [1401,0,19.03,0,0,100,0,19,1.04,"ulm-talkingtree-maja-01-02",0,65536,"2026-02-01T18:00:21"],
    [1402,0,19.1,0,0,100,0,18,1.04,"ulm-talkingtree-quentin-01-02",0,65536,"2026-02-01T18:13:38"],
    [1403,0,19.26,0,0,100,0,18,1.04,"ulm-heidenheimerstr-01-02",0,65536,"2026-02-01T21:29:04"],
    [1404,0,18.87,0,0,100,0,18,1.05,"ulm-talkingtree-maja-01-02",0,65536,"2026-02-01T22:00:20"],
    [1405,0,18.98,0,0,100,0,18,1.05,"ulm-talkingtree-pamina-01-02",0,65536,"2026-02-01T22:05:32"],
    [1406,0,18.98,0,0,100,0,18,1.05,"ulm-talkingtree-quentin-01-02",0,65536,"2026-02-01T22:13:37"],
    [1407,0,18.99,0,0,100,0,18,1.05,"ulm-heidenheimerstr-01-02",0,65536,"2026-02-02T01:29:03"],
    [1408,0,18.64,0,0,100,0,18,1.05,"ulm-talkingtree-maja-01-02",0,65536,"2026-02-02T02:00:19"],
    [1409,0,18.76,0,0,100,0,18,1.05,"ulm-talkingtree-pamina-01-02",0,65536,"2026-02-02T02:05:31"],
    [1410,0,18.76,0,0,100,0,18,1.05,"ulm-talkingtree-quentin-01-02",0,65536,"2026-02-02T02:13:36"],
    [1411,0,18.94,0,0,100,0,18,1.05,"ulm-heidenheimerstr-01-02",0,65536,"2026-02-02T05:29:01"],
    [1412,0,18.64,0,0,100,0,18,1.05,"ulm-talkingtree-maja-01-02",0,65536,"2026-02-02T06:00:18"],
    [1413,0,18.71,0,0,100,0,18,1.05,"ulm-talkingtree-pamina-01-02",0,65536,"2026-02-02T06:05:30"],
    [1414,0,18.79,0,0,100,0,18,1.05,"ulm-talkingtree-quentin-01-02",0,65536,"2026-02-02T06:13:34"],
    [1415,0,19.14,0,0,100,0,18,1.04,"ulm-heidenheimerstr-01-02",0,65536,"2026-02-02T09:29:00"],
    [1416,0,19.04,0,0,100,0,19,1.04,"ulm-talkingtree-maja-01-02",0,65536,"2026-02-02T10:00:17"],
    [1417,0,19.04,0,0,100,0,19,1.04,"ulm-talkingtree-pamina-01-02",0,65536,"2026-02-02T10:05:29"],
    [1418,0,19.19,0,0,100,0,19,1.04,"ulm-talkingtree-quentin-01-02",0,65536,"2026-02-02T10:13:33"],
    [1419,0,19.62,0,0,100,0,19,1.04,"ulm-heidenheimerstr-01-02",0,65536,"2026-02-02T13:28:59"],
    [1420,0,19.51,0,0,100,0,19,1.04,"ulm-talkingtree-pamina-01-02",0,65536,"2026-02-02T14:05:27"],
    [1421,0,19.69,0,0,100,0,19,1.04,"ulm-talkingtree-quentin-01-02",0,65536,"2026-02-02T14:13:32"],
    [1422,0,20.39,0,0,100,0,20,1.04,"ulm-heidenheimerstr-01-02",0,65536,"2026-02-02T17:28:58"],
    [1423,0,20.08,0,0,100,0,20,1.04,"ulm-talkingtree-maja-01-02",0,65536,"2026-02-02T18:00:15"],
    [1424,0,20.06,0,0,100,0,20,1.04,"ulm-talkingtree-pamina-01-02",0,65536,"2026-02-02T18:05:26"],
    [1425,0,20.19,0,0,100,0,20,1.04,"ulm-talkingtree-quentin-01-02",0,65536,"2026-02-02T18:13:31"],
    [1426,0,19.69,0,0,100,0,19,1.04,"ulm-heidenheimerstr-01-02",0,65536,"2026-02-02T21:28:57"],
    [1427,0,19.25,0,0,100,0,19,1.04,"ulm-talkingtree-maja-01-02",0,65536,"2026-02-02T22:00:14"],
    [1428,0,19.53,0,0,100,0,19,1.04,"ulm-talkingtree-pamina-01-02",0,65536,"2026-02-02T22:05:25"],
    [1429,0,19.39,0,0,100,0,19,1.04,"ulm-talkingtree-quentin-01-02",0,65536,"2026-02-02T22:13:30"],
    [1430,0,19.45,0,0,100,0,19,1.04,"ulm-heidenheimerstr-01-02",0,65536,"2026-02-03T01:28:56"],
    [1431,0,19.04,0,0,100,0,19,1.04,"ulm-talkingtree-maja-01-02",0,65536,"2026-02-03T02:00:13"],
    [1432,0,19.24,0,0,100,0,19,1.04,"ulm-talkingtree-pamina-01-02",0,65536,"2026-02-03T02:05:23"],
    [1433,0,19.16,0,0,100,0,19,1.04,"ulm-talkingtree-quentin-01-02",0,65536,"2026-02-03T02:13:28"],
    [1434,0,19.76,0,0,100,0,19,1.04,"ulm-heidenheimerstr-01-02",0,65536,"2026-02-03T05:28:55"],
    [1435,0,19.81,0,0,100,0,19,1.04,"ulm-talkingtree-maja-01-02",0,65536,"2026-02-03T06:00:12"],
    [1436,0,19.71,0,0,100,0,19,1.04,"ulm-talkingtree-pamina-01-02",0,65536,"2026-02-03T06:05:22"],
    [1437,0,19.87,0,0,100,0,19,1.04,"ulm-talkingtree-quentin-01-02",0,65536,"2026-02-03T06:13:27"],
    [1438,0,20.95,0,0,100,0,20,1.04,"ulm-heidenheimerstr-01-02",0,65536,"2026-02-03T09:28:54"],
    [1439,0,20.91,0,0,100,0,20,1.04,"ulm-talkingtree-maja-01-02",0,65536,"2026-02-03T10:00:11"],
    [1440,0,20.75,0,0,100,0,20,1.04,"ulm-talkingtree-pamina-01-02",0,65536,"2026-02-03T10:05:21"],
    [1441,0,20.99,0,0,100,0,20,1.04,"ulm-talkingtree-quentin-01-02",0,65536,"2026-02-03T10:13:26"],
    [1442,0,21.9,0,0,100,0,21,1.03,"ulm-heidenheimerstr-01-02",0,65536,"2026-02-03T13:28:52"],
    [1443,0,21.73,0,0,100,0,21,1.03,"ulm-talkingtree-maja-01-02",0,65536,"2026-02-03T14:00:11"],
    [1444,0,21.54,0,0,99,0,21,1.03,"ulm-talkingtree-pamina-01-02",0,65536,"2026-02-03T14:05:19"],
    [1445,0,21.78,0,0,100,0,21,1.03,"ulm-talkingtree-quentin-01-02",0,65536,"2026-02-03T14:13:25"],
    [1446,0,21.78,0,0,100,0,21,1.03,"ulm-heidenheimerstr-01-02",0,65536,"2026-02-03T17:28:51"],
    [1447,0,21.27,0,0,100,0,21,1.03,"ulm-talkingtree-maja-01-02",0,65536,"2026-02-03T18:00:09"],
    [1448,0,21.47,0,0,100,0,21,1.03,"ulm-talkingtree-pamina-01-02",0,65536,"2026-02-03T18:05:18"],
    [1449,0,21.31,0,0,100,0,21,1.03,"ulm-talkingtree-quentin-01-02",0,65536,"2026-02-03T18:13:24"],
    [1450,0,20.94,0,0,100,0,20,1.04,"ulm-heidenheimerstr-01-02",0,65536,"2026-02-03T21:28:50"],
    [1451,0,20.25,0,0,100,0,20,1.04,"ulm-talkingtree-maja-01-02",0,65536,"2026-02-03T22:00:08"],
    [1452,0,20.76,0,0,100,0,20,1.04,"ulm-talkingtree-pamina-01-02",0,65536,"2026-02-03T22:05:17"],
    [1453,0,20.31,0,0,100,0,20,1.04,"ulm-talkingtree-quentin-01-02",0,65536,"2026-02-03T22:13:22"],
    [1454,0,20.16,0,0,100,0,19,1.04,"ulm-heidenheimerstr-01-02",0,65536,"2026-02-04T01:28:49"],
    [1455,0,19.49,0,0,100,0,19,1.04,"ulm-talkingtree-maja-01-02",0,65536,"2026-02-04T02:00:08"],
    [1456,0,20.04,0,0,100,0,20,1.04,"ulm-talkingtree-pamina-01-02",0,65536,"2026-02-04T02:05:15"],
    [1457,0,19.59,0,0,100,0,19,1.04,"ulm-talkingtree-quentin-01-02",0,65536,"2026-02-04T02:13:21"],
    [1458,0,20.04,0,0,100,0,19,1.04,"ulm-heidenheimerstr-01-02",0,65536,"2026-02-04T05:28:48"],
    [1459,0,19.83,0,0,100,0,19,1.04,"ulm-talkingtree-maja-01-02",0,65536,"2026-02-04T06:00:07"],
    [1460,0,19.82,0,0,100,0,19,1.04,"ulm-talkingtree-pamina-01-02",0,65536,"2026-02-04T06:05:14"],
    [1461,0,24.83,0,0,99,0,19,1,"ulm-talkingtree-maja-01-02",0,65536,"2026-03-11T12:34:05"],
    [1462,0,10.9,0,52,100,0,8,42.82,"ulm-talkingtree-maja-01-02",3,65536,"2026-03-11T16:34:04"],
    [1463,0,10.26,0,58,100,0,8,52.33,"ulm-talkingtree-maja-01-02",3,65536,"2026-03-11T20:34:03"],
    [1464,0,9.96,0,58,100,0,7,52.83,"ulm-talkingtree-maja-01-02",3,65536,"2026-03-12T00:34:02"],
    [1465,0,9.72,0,59,100,0,7,53.56,"ulm-talkingtree-maja-01-02",3,65536,"2026-03-12T04:34:01"],
    [1466,0,9.53,0,59,100,0,6,53.79,"ulm-talkingtree-maja-01-02",3,65536,"2026-03-12T08:34:00"],
    [1467,0,9.35,0,59,100,0,17,54.12,"ulm-talkingtree-maja-01-02",3,65536,"2026-03-12T12:33:59"],
    [1468,0,9.42,0,59,100,0,14,54.11,"ulm-talkingtree-maja-01-02",3,65536,"2026-03-12T16:33:58"],
    [1469,0,9.67,0,59,100,0,5,53.6,"ulm-talkingtree-maja-01-02",3,65536,"2026-03-12T20:33:57"],
    [1470,0,9.78,0,59,100,0,2,53.5,"ulm-talkingtree-maja-01-02",3,65536,"2026-03-13T00:33:57"],
    [1471,0,9.6,0,59,100,0,0,53.39,"ulm-talkingtree-maja-01-02",3,65536,"2026-03-13T04:33:56"],
    [1472,0,8.92,0,59,99,0,19,54.19,"ulm-talkingtree-maja-01-02",4,65536,"2026-03-13T12:33:54"],
    [1473,0,8.97,0,59,100,0,14,54.26,"ulm-talkingtree-maja-01-02",4,65536,"2026-03-13T16:33:53"],
    [1474,0,9.32,0,59,100,0,7,53.51,"ulm-talkingtree-maja-01-02",3,65536,"2026-03-13T20:33:52"],
    [1475,0,9.47,0,59,100,0,6,53.13,"ulm-talkingtree-maja-01-02",3,65536,"2026-03-14T00:33:51"],
    [1476,0,9.39,0,58,100,0,5,52.93,"ulm-talkingtree-maja-01-02",3,65536,"2026-03-14T04:33:50"],
    [1477,0,9.24,0,58,100,0,8,52.88,"ulm-talkingtree-maja-01-02",3,65536,"2026-03-14T08:33:50"],
    [1478,0,9.07,0,58,100,0,6,52.85,"ulm-talkingtree-maja-01-02",4,65536,"2026-03-14T12:33:49"],
    [1479,0,8.97,0,58,100,0,5,52.87,"ulm-talkingtree-maja-01-02",4,65536,"2026-03-14T16:33:48"],
    [1480,0,8.84,0,58,100,0,3,52.91,"ulm-talkingtree-maja-01-02",4,65536,"2026-03-14T20:33:47"],
    [1481,0,8.72,0,58,100,0,3,52.9,"ulm-talkingtree-maja-01-02",4,65536,"2026-03-15T00:33:46"],
    [1482,0,8.56,0,59,100,0,3,53.18,"ulm-talkingtree-maja-01-02",4,65536,"2026-03-15T04:33:45"],
    [1483,0,8.38,0,59,100,0,4,53.43,"ulm-talkingtree-maja-01-02",4,65536,"2026-03-15T08:33:45"],
    [1484,0,8.18,0,59,100,0,6,53.61,"ulm-talkingtree-maja-01-02",4,65536,"2026-03-15T12:33:44"],
    [1485,0,8.09,0,59,100,0,6,53.77,"ulm-talkingtree-maja-01-02",4,65536,"2026-03-15T16:33:43"],
    [1486,0,8.08,0,59,100,0,4,53.74,"ulm-talkingtree-maja-01-02",4,65536,"2026-03-15T20:33:42"],
    [1487,0,8.01,0,59,100,0,2,53.86,"ulm-talkingtree-maja-01-02",4,65536,"2026-03-16T00:33:41"],
    [1488,0,7.69,0,59,100,0,3,53.5,"ulm-talkingtree-maja-01-02",4,65536,"2026-03-16T08:33:40"],
    [1489,0,7.45,0,59,100,0,9,53.61,"ulm-talkingtree-maja-01-02",4,65536,"2026-03-16T12:33:39"],
    [1490,0,7.35,0,59,100,0,5,53.68,"ulm-talkingtree-maja-01-02",4,65536,"2026-03-16T16:33:38"],
    [1491,0,7.4,0,59,100,0,3,53.26,"ulm-talkingtree-maja-01-02",4,65536,"2026-03-16T20:33:37"],
    [1492,0,7.24,0,66,100,0,3,61.52,"ulm-talkingtree-maja-01-02",4,65536,"2026-03-17T00:33:36"],
    [1493,0,7.15,0,64,100,0,3,59.7,"ulm-talkingtree-maja-01-02",4,65536,"2026-03-17T04:33:36"],
    [1494,0,7.06,0,63,100,0,5,59.14,"ulm-talkingtree-maja-01-02",4,65536,"2026-03-17T08:33:35"],
    [1495,0,6.98,0,63,100,0,8,58.66,"ulm-talkingtree-maja-01-02",4,65536,"2026-03-17T12:33:34"],
    [1496,0,7.05,0,63,100,0,7,58.39,"ulm-talkingtree-maja-01-02",4,65536,"2026-03-17T16:33:33"],
    [1497,0,7.16,0,62,100,0,4,57.88,"ulm-talkingtree-maja-01-02",4,65536,"2026-03-17T20:33:32"],
    [1498,0,7.28,0,62,100,0,1,57.61,"ulm-talkingtree-maja-01-02",4,65536,"2026-03-18T00:33:31"],
    [1499,0,7.2,0,62,100,0,0,57.29,"ulm-talkingtree-maja-01-02",4,65536,"2026-03-18T04:33:31"],
    [1500,0,7.06,0,62,100,0,2,57.21,"ulm-talkingtree-maja-01-02",4,65536,"2026-03-18T08:33:30"],
    [1501,0,7.11,0,61,100,0,5,56.8,"ulm-talkingtree-maja-01-02",4,65536,"2026-03-18T20:33:27"],
    [1502,0,7.31,0,61,100,0,4,56.27,"ulm-talkingtree-maja-01-02",4,65536,"2026-03-19T00:33:26"],
    [1503,0,7.28,0,61,100,0,3,56.11,"ulm-talkingtree-maja-01-02",4,65536,"2026-03-19T04:33:25"],
    [1504,0,7.15,0,61,100,0,6,55.98,"ulm-talkingtree-maja-01-02",4,65536,"2026-03-19T08:33:25"],
    [1505,0,7,0,61,100,0,17,56.21,"ulm-talkingtree-maja-01-02",4,65536,"2026-03-19T12:33:24"],
    [1506,0,7.12,0,61,100,0,15,56.13,"ulm-talkingtree-maja-01-02",4,65536,"2026-03-19T16:33:23"],
    [1507,0,7.57,0,60,100,0,4,55.56,"ulm-talkingtree-maja-01-02",4,65536,"2026-03-19T20:33:22"],
    [1508,0,7.77,0,60,100,0,1,55.07,"ulm-talkingtree-maja-01-02",4,65536,"2026-03-20T00:33:21"],
    [1509,0,7.73,0,60,100,0,0,54.77,"ulm-talkingtree-maja-01-02",4,65536,"2026-03-20T04:33:20"],
    [1510,0,7.5,0,60,100,0,5,54.6,"ulm-talkingtree-maja-01-02",4,65536,"2026-03-20T08:33:20"],
    [1511,0,7.26,0,60,99,0,21,54.63,"ulm-talkingtree-maja-01-02",4,65536,"2026-03-20T12:33:19"],
    [1512,0,7.41,0,60,100,0,17,54.77,"ulm-talkingtree-maja-01-02",4,65536,"2026-03-20T16:33:18"],
    [1513,0,7.94,0,59,100,0,7,54.2,"ulm-talkingtree-maja-01-02",4,65536,"2026-03-20T20:33:17"],
    [1514,0,8.27,0,59,100,0,5,53.65,"ulm-talkingtree-maja-01-02",4,65536,"2026-03-21T00:33:16"],
    [1515,0,8.32,0,59,100,0,2,53.33,"ulm-talkingtree-maja-01-02",4,65536,"2026-03-21T04:33:15"],
    [1516,0,8.2,0,59,100,0,7,53.12,"ulm-talkingtree-maja-01-02",4,65536,"2026-03-21T08:33:14"],
    [1517,0,8.08,0,58,100,0,12,52.92,"ulm-talkingtree-maja-01-02",4,65536,"2026-03-21T16:33:12"],
    [1518,0,8.37,0,58,100,0,6,52.69,"ulm-talkingtree-maja-01-02",4,65536,"2026-03-21T20:33:11"],
    [1519,0,8.43,0,58,100,0,4,52.17,"ulm-talkingtree-maja-01-02",4,65536,"2026-03-22T04:33:10"],
    [1520,0,8.32,0,58,100,0,5,52.16,"ulm-talkingtree-maja-01-02",4,65536,"2026-03-22T08:33:09"],
    [1521,0,8.14,0,58,100,0,20,52.05,"ulm-talkingtree-maja-01-02",4,65536,"2026-03-22T12:33:08"],
    [1522,0,8.97,0,57,100,0,3,51.4,"ulm-talkingtree-maja-01-02",4,65536,"2026-03-23T00:33:05"],
    [1523,0,8.88,0,57,100,0,1,51.14,"ulm-talkingtree-maja-01-02",4,65536,"2026-03-23T04:33:05"],
    [1524,0,8.68,0,57,100,0,5,51.04,"ulm-talkingtree-maja-01-02",4,65536,"2026-03-23T08:33:04"],
    [1525,0,8.43,0,57,100,0,20,51,"ulm-talkingtree-maja-01-02",4,65536,"2026-03-23T12:33:03"],
    [1526,0,8.43,0,57,100,0,11,50.94,"ulm-talkingtree-maja-01-02",4,65536,"2026-03-23T16:33:02"],
    [1527,0,8.71,0,57,100,0,4,50.52,"ulm-talkingtree-maja-01-02",4,65536,"2026-03-23T20:33:01"],
    [1528,0,8.79,0,57,100,0,1,50.43,"ulm-talkingtree-maja-01-02",4,65536,"2026-03-24T00:33:00"],
    [1529,0,8.68,0,57,100,0,0,50.25,"ulm-talkingtree-maja-01-02",4,65536,"2026-03-24T04:33:00"],
    [1530,0,8.39,0,57,100,0,6,50.36,"ulm-talkingtree-maja-01-02",4,65536,"2026-03-24T08:32:59"],
    [1531,0,8.14,0,57,100,0,22,50.8,"ulm-talkingtree-maja-01-02",4,65536,"2026-03-24T12:32:58"],
    [1532,0,8.63,0,30,99,0,12,16.61,"ulm-talkingtree-willi-01-02",27,65536,"2026-03-24T16:21:08"],
    [1533,0,8.3,0,57,100,0,18,50.68,"ulm-talkingtree-maja-01-02",4,65536,"2026-03-24T16:32:57"],
    [1534,0,19.34,0,0,98,0,19,1.04,"ulm-talkingtree-friedl-01-02",0,65536,"2026-03-24T17:08:40"],
    [1535,0,8.33,0,30,100,0,8,16.61,"ulm-talkingtree-willi-01-02",27,65536,"2026-03-24T20:21:06"],
    [1536,0,8.83,0,56,100,0,8,49.92,"ulm-talkingtree-maja-01-02",4,65536,"2026-03-24T20:32:56"],
    [1537,0,18.07,0,0,98,0,18,1.05,"ulm-talkingtree-friedl-01-02",0,65536,"2026-03-24T21:08:39"],
    [1538,0,8.3,0,30,100,0,6,16.81,"ulm-talkingtree-willi-01-02",27,65536,"2026-03-25T00:21:04"],
    [1539,0,9.14,0,56,100,0,6,49.59,"ulm-talkingtree-maja-01-02",4,65536,"2026-03-25T00:32:55"],
    [1540,0,17.21,0,0,99,0,17,1.07,"ulm-talkingtree-friedl-01-02",0,65536,"2026-03-25T01:08:38"],
    [1541,0,8.2,0,30,100,0,4,16.85,"ulm-talkingtree-willi-01-02",28,65536,"2026-03-25T04:21:03"],
    [1542,0,9.14,0,56,100,0,4,49.45,"ulm-talkingtree-maja-01-02",4,65536,"2026-03-25T04:32:54"],
    [1543,0,17.03,0,0,99,0,16,1.07,"ulm-talkingtree-friedl-01-02",0,65536,"2026-03-25T05:08:37"],
    [1544,0,7.99,0,30,100,0,6,16.99,"ulm-talkingtree-willi-01-02",28,65536,"2026-03-25T08:21:01"],
    [1545,0,9.01,0,56,100,0,11,49.24,"ulm-talkingtree-maja-01-02",4,65536,"2026-03-25T08:32:53"],
    [1546,0,17.75,0,0,99,0,16,1.07,"ulm-talkingtree-friedl-01-02",0,65536,"2026-03-25T09:08:36"],
    [1547,0,7.84,0,30,100,0,10,16.91,"ulm-talkingtree-willi-01-02",28,65536,"2026-03-25T12:21:00"],
    [1548,0,8.84,0,56,100,0,11,49.04,"ulm-talkingtree-maja-01-02",4,65536,"2026-03-25T12:32:52"],
    [1549,0,18.39,0,0,99,0,17,1.05,"ulm-talkingtree-friedl-01-02",0,65536,"2026-03-25T13:08:35"],
    [1550,0,7.84,0,30,100,0,7,17.04,"ulm-talkingtree-willi-01-02",28,65536,"2026-03-25T16:20:58"],
    [1551,0,8.85,0,56,100,0,6,48.94,"ulm-talkingtree-maja-01-02",4,65536,"2026-03-25T16:32:52"],
    [1552,0,18.56,0,0,99,0,18,1.05,"ulm-talkingtree-friedl-01-02",0,65536,"2026-03-25T17:08:34"],
    [1553,0,7.88,0,30,100,0,4,17.12,"ulm-talkingtree-willi-01-02",28,65536,"2026-03-25T20:20:57"],
    [1554,0,8.88,0,56,100,0,2,48.82,"ulm-talkingtree-maja-01-02",4,65536,"2026-03-25T20:32:51"],
    [1555,0,19.04,0,0,99,0,18,1.04,"ulm-talkingtree-friedl-01-02",0,65536,"2026-03-25T21:08:32"],
    [1556,0,7.84,0,30,100,0,3,17.17,"ulm-talkingtree-willi-01-02",28,65536,"2026-03-26T00:20:55"],
    [1557,0,8.81,0,56,100,0,2,48.71,"ulm-talkingtree-maja-01-02",4,65536,"2026-03-26T00:32:50"],
    [1558,0,19.27,0,0,99,0,19,1.04,"ulm-talkingtree-friedl-01-02",0,65536,"2026-03-26T01:08:31"],
    [1559,0,7.67,0,30,100,0,3,17.29,"ulm-talkingtree-willi-01-02",28,65536,"2026-03-26T04:20:54"],
    [1560,0,8.63,0,56,100,0,2,48.8,"ulm-talkingtree-maja-01-02",4,65536,"2026-03-26T04:32:49"],
    [1561,0,8.39,0,56,100,0,2,49.12,"ulm-talkingtree-maja-01-02",4,65536,"2026-03-26T08:32:48"],
    [1562,0,19.67,0,0,99,0,19,1.04,"ulm-talkingtree-friedl-01-02",0,65536,"2026-03-26T09:08:29"],
    [1563,0,7.26,0,31,100,0,5,17.58,"ulm-talkingtree-willi-01-02",28,65536,"2026-03-26T12:20:51"],
    [1564,0,8.18,0,56,100,0,4,49.18,"ulm-talkingtree-maja-01-02",4,65536,"2026-03-26T12:32:47"],
    [1565,0,19.98,0,0,99,0,19,1.04,"ulm-talkingtree-friedl-01-02",0,65536,"2026-03-26T13:08:28"],
    [1566,0,7.12,0,31,100,0,5,17.64,"ulm-talkingtree-willi-01-02",28,65536,"2026-03-26T16:20:49"],
    [1567,0,8.09,0,55,100,0,7,48.28,"ulm-talkingtree-maja-01-02",4,65536,"2026-03-26T16:32:47"],
    [1568,0,19.41,0,0,99,0,19,1.04,"ulm-talkingtree-friedl-01-02",0,65536,"2026-03-26T17:08:27"],
    [1569,0,7.1,0,31,100,0,2,17.73,"ulm-talkingtree-willi-01-02",28,65536,"2026-03-26T20:20:48"],
    [1570,0,8.14,0,55,100,0,1,48.19,"ulm-talkingtree-maja-01-02",4,65536,"2026-03-26T20:32:46"],
    [1571,0,18.07,0,0,99,0,18,1.05,"ulm-talkingtree-friedl-01-02",0,65536,"2026-03-26T21:08:26"],
    [1572,0,7.01,0,31,100,0,1,17.79,"ulm-talkingtree-willi-01-02",29,65536,"2026-03-27T00:20:46"],
    [1573,0,8.09,0,55,100,0,0,48.14,"ulm-talkingtree-maja-01-02",4,65536,"2026-03-27T00:32:45"],
    [1574,0,17.18,0,0,99,0,17,1.07,"ulm-talkingtree-friedl-01-02",0,65536,"2026-03-27T01:08:24"],
    [1575,0,6.81,0,31,100,0,1,17.82,"ulm-talkingtree-willi-01-02",29,65536,"2026-03-27T04:20:45"],
    [1576,0,7.88,0,55,100,0,-1,48.22,"ulm-talkingtree-maja-01-02",4,65536,"2026-03-27T04:32:44"],
    [1577,0,6.59,0,31,100,0,0,17.99,"ulm-talkingtree-willi-01-02",29,65536,"2026-03-27T08:20:43"],
    [1578,0,7.59,0,56,100,0,3,48.6,"ulm-talkingtree-maja-01-02",4,65536,"2026-03-27T08:32:44"],
    [1579,0,18.12,0,0,99,0,17,1.05,"ulm-talkingtree-friedl-01-02",0,65536,"2026-03-27T09:08:22"],
    [1580,0,6.27,0,50,100,0,6,39.79,"ulm-talkingtree-willi-01-02",29,65536,"2026-03-27T12:20:42"],
    [1581,0,7.32,0,56,100,0,10,48.62,"ulm-talkingtree-maja-01-02",4,65536,"2026-03-27T12:32:43"],
    [1582,0,18.7,0,0,99,0,18,1.05,"ulm-talkingtree-friedl-01-02",0,65536,"2026-03-27T13:08:21"],
    [1583,0,6.3,0,51,100,0,6,40.18,"ulm-talkingtree-willi-01-02",29,65536,"2026-03-27T16:20:40"],
    [1584,0,7.26,0,56,100,0,7,48.88,"ulm-talkingtree-maja-01-02",4,65536,"2026-03-27T16:32:42"],
    [1585,0,18.76,0,0,100,0,18,1.05,"ulm-talkingtree-friedl-01-02",0,65536,"2026-03-27T17:08:20"],
    [1586,0,6.46,0,49,100,0,3,37.34,"ulm-talkingtree-willi-01-02",29,65536,"2026-03-27T20:20:39"],
    [1587,0,7.42,0,56,100,0,0,48.55,"ulm-talkingtree-maja-01-02",4,65536,"2026-03-27T20:32:41"],
    [1588,0,18.64,0,0,99,0,18,1.05,"ulm-talkingtree-friedl-01-02",0,65536,"2026-03-27T21:08:19"],
    [1589,0,6.5,0,47,100,0,1,33.56,"ulm-talkingtree-willi-01-02",29,65536,"2026-03-28T00:20:37"],
    [1590,0,18.42,0,0,99,0,18,1.05,"ulm-talkingtree-friedl-01-02",0,65536,"2026-03-28T01:08:18"],
    [1591,0,6.38,0,45,100,0,0,31.32,"ulm-talkingtree-willi-01-02",29,65536,"2026-03-28T04:20:36"],
    [1592,0,7.29,0,56,100,0,-3,48.5,"ulm-talkingtree-maja-01-02",4,65536,"2026-03-28T04:32:40"],
    [1593,0,18.27,0,0,99,0,18,1.05,"ulm-talkingtree-friedl-01-02",0,65536,"2026-03-28T05:08:16"],
    [1594,0,6.18,0,44,100,0,0,30.51,"ulm-talkingtree-willi-01-02",29,65536,"2026-03-28T08:20:34"],
    [1595,0,7,0,55,100,0,3,48.29,"ulm-talkingtree-maja-01-02",4,65536,"2026-03-28T08:32:39"],
    [1596,0,18.39,0,0,99,0,18,1.05,"ulm-talkingtree-friedl-01-02",0,65536,"2026-03-28T09:08:15"],
    [1597,0,5.92,0,53,100,0,8,43.75,"ulm-talkingtree-willi-01-02",29,65536,"2026-03-28T12:20:33"],
    [1598,0,6.74,0,55,100,0,16,47.88,"ulm-talkingtree-maja-01-02",4,65536,"2026-03-28T12:32:38"],
    [1599,0,18.79,0,0,99,0,18,1.05,"ulm-talkingtree-friedl-01-02",0,65536,"2026-03-28T13:08:14"],
    [1600,0,5.96,0,52,100,0,8,41.83,"ulm-talkingtree-willi-01-02",29,65536,"2026-03-28T16:20:31"],
    [1601,0,6.84,0,55,100,0,5,47.82,"ulm-talkingtree-maja-01-02",4,65536,"2026-03-28T16:32:37"],
    [1602,0,18.74,0,0,99,0,18,1.05,"ulm-talkingtree-friedl-01-02",0,65536,"2026-03-28T17:08:13"],
    [1603,0,6.27,0,50,100,0,4,38.54,"ulm-talkingtree-willi-01-02",29,65536,"2026-03-28T20:20:30"],
    [1604,0,7.17,0,55,100,0,2,47.48,"ulm-talkingtree-maja-01-02",4,65536,"2026-03-28T20:32:36"],
    [1605,0,18.57,0,0,100,0,18,1.05,"ulm-talkingtree-friedl-01-02",0,65536,"2026-03-28T21:08:12"],
    [1606,0,6.39,0,49,100,0,3,36.87,"ulm-talkingtree-willi-01-02",29,65536,"2026-03-29T00:20:28"],
    [1607,0,7.31,0,55,100,0,2,47.22,"ulm-talkingtree-maja-01-02",4,65536,"2026-03-29T00:32:36"],
    [1608,0,18.45,0,0,100,0,18,1.05,"ulm-talkingtree-friedl-01-02",0,65536,"2026-03-29T01:08:11"],
    [1609,0,6.37,0,48,100,0,2,35.48,"ulm-talkingtree-willi-01-02",29,65536,"2026-03-29T04:20:27"],
    [1610,0,7.28,0,55,100,0,2,47.23,"ulm-talkingtree-maja-01-02",4,65536,"2026-03-29T04:32:35"],
    [1611,0,18.4,0,0,100,0,18,1.05,"ulm-talkingtree-friedl-01-02",0,65536,"2026-03-29T05:08:09"],
    [1612,0,6.28,0,47,100,0,3,34.75,"ulm-talkingtree-willi-01-02",29,65536,"2026-03-29T08:20:25"],
    [1613,0,7.14,0,55,100,0,4,47.35,"ulm-talkingtree-maja-01-02",4,65536,"2026-03-29T08:32:34"],
    [1614,0,18.44,0,0,99,0,18,1.05,"ulm-talkingtree-friedl-01-02",0,65536,"2026-03-29T09:08:08"],
    [1615,0,6.19,0,50,100,0,6,38.68,"ulm-talkingtree-willi-01-02",29,65536,"2026-03-29T12:20:24"],
    [1616,0,7.03,0,55,100,0,12,47.63,"ulm-talkingtree-maja-01-02",4,65536,"2026-03-29T12:32:33"],
    [1617,0,18.74,0,0,99,0,18,1.05,"ulm-talkingtree-friedl-01-02",0,65536,"2026-03-29T13:08:07"],
    [1618,0,6.18,0,50,100,0,6,38.5,"ulm-talkingtree-willi-01-02",29,65536,"2026-03-29T16:20:22"],
    [1619,0,7.12,0,55,100,0,7,47.62,"ulm-talkingtree-maja-01-02",4,65536,"2026-03-29T16:32:32"],
    [1620,0,18.49,0,0,99,0,18,1.05,"ulm-talkingtree-friedl-01-02",0,65536,"2026-03-29T17:08:06"],
    [1621,0,6.33,0,48,100,0,3,35.4,"ulm-talkingtree-willi-01-02",29,65536,"2026-03-29T20:20:21"],
    [1622,0,18.2,0,0,100,0,18,1.05,"ulm-talkingtree-friedl-01-02",0,65536,"2026-03-29T21:08:05"],
    [1623,0,6.37,0,46,100,0,2,33.53,"ulm-talkingtree-willi-01-02",29,65536,"2026-03-30T00:20:19"],
    [1624,0,7.56,0,54,100,0,2,46.61,"ulm-talkingtree-maja-01-02",4,65536,"2026-03-30T00:32:31"],
    [1625,0,18.03,0,0,99,0,18,1.05,"ulm-talkingtree-friedl-01-02",0,65536,"2026-03-30T01:08:04"],
    [1626,0,6.3,0,46,100,0,2,32.54,"ulm-talkingtree-willi-01-02",29,65536,"2026-03-30T04:20:18"],
    [1627,0,7.48,0,54,100,0,2,46.51,"ulm-talkingtree-maja-01-02",4,65536,"2026-03-30T04:32:30"],
    [1628,0,17.89,0,0,100,0,17,1.07,"ulm-talkingtree-friedl-01-02",0,65536,"2026-03-30T05:08:03"],
    [1629,0,6.16,0,45,100,0,3,31.97,"ulm-talkingtree-willi-01-02",29,65536,"2026-03-30T08:20:16"],
    [1630,0,7.33,0,54,100,0,3,46.46,"ulm-talkingtree-maja-01-02",4,65536,"2026-03-30T08:32:29"],
    [1631,0,17.12,0,0,100,0,17,1.07,"ulm-talkingtree-friedl-01-02",0,65536,"2026-03-30T09:08:01"],
    [1632,0,6.06,0,45,100,0,6,31.74,"ulm-talkingtree-willi-01-02",29,65536,"2026-03-30T12:20:15"],
    [1633,0,7.17,0,55,100,0,8,46.88,"ulm-talkingtree-maja-01-02",4,65536,"2026-03-30T12:32:28"],
    [1634,0,17.54,0,0,100,0,17,1.07,"ulm-talkingtree-friedl-01-02",0,65536,"2026-03-30T13:08:00"],
    [1635,0,6.05,0,45,100,0,6,31.99,"ulm-talkingtree-willi-01-02",29,65536,"2026-03-30T16:20:13"],
    [1636,0,17.98,0,0,100,0,18,1.07,"ulm-talkingtree-friedl-01-02",0,65536,"2026-03-30T17:07:59"],
    [1637,0,6.14,0,45,100,0,3,31.83,"ulm-talkingtree-willi-01-02",29,65536,"2026-03-30T20:20:12"],
    [1638,0,7.4,0,54,100,0,1,46.72,"ulm-talkingtree-maja-01-02",4,65536,"2026-03-30T20:32:26"],
    [1639,0,18.17,0,0,99,0,18,1.05,"ulm-talkingtree-friedl-01-02",0,65536,"2026-03-30T21:07:58"],
    [1640,0,7.43,0,54,100,0,2,46.53,"ulm-talkingtree-maja-01-02",4,65536,"2026-03-31T00:32:26"],
    [1641,0,6.08,0,45,100,0,2,31.31,"ulm-talkingtree-willi-01-02",29,65536,"2026-03-31T04:20:09"],
    [1642,0,7.31,0,54,100,0,1,46.56,"ulm-talkingtree-maja-01-02",4,65536,"2026-03-31T04:32:25"],
    [1643,0,5.93,0,45,100,0,2,31.18,"ulm-talkingtree-willi-01-02",29,65536,"2026-03-31T08:20:07"],
    [1644,0,7.12,0,55,100,0,4,46.88,"ulm-talkingtree-maja-01-02",4,65536,"2026-03-31T08:32:24"],
    [1645,0,18.34,0,0,100,0,18,1.05,"ulm-talkingtree-friedl-01-02",0,65536,"2026-03-31T09:07:55"],
    [1646,0,5.82,0,45,100,0,5,31.08,"ulm-talkingtree-willi-01-02",30,65536,"2026-03-31T12:20:06"],
    [1647,0,6.98,0,55,100,0,6,46.95,"ulm-talkingtree-maja-01-02",4,65536,"2026-03-31T12:32:23"],
    [1648,0,18.65,0,0,100,0,18,1.05,"ulm-talkingtree-friedl-01-02",0,65536,"2026-03-31T13:07:54"],
    [1649,0,5.82,0,45,100,0,6,30.99,"ulm-talkingtree-willi-01-02",30,65536,"2026-03-31T16:20:05"],
    [1650,0,6.96,0,55,100,0,8,47.07,"ulm-talkingtree-maja-01-02",4,65536,"2026-03-31T16:32:22"],
    [1651,0,18.79,0,0,99,0,19,1.05,"ulm-talkingtree-friedl-01-02",0,65536,"2026-03-31T17:07:52"],
    [1652,0,5.87,0,45,100,0,3,30.91,"ulm-talkingtree-willi-01-02",30,65536,"2026-03-31T20:20:03"],
    [1653,0,7.06,0,55,100,0,2,47.1,"ulm-talkingtree-maja-01-02",4,65536,"2026-03-31T20:32:22"],
    [1654,0,18.62,0,0,100,0,18,1.05,"ulm-talkingtree-friedl-01-02",0,65536,"2026-03-31T21:07:51"],
    [1655,0,5.92,0,45,100,0,2,30.81,"ulm-talkingtree-willi-01-02",29,65536,"2026-04-01T00:20:02"],
    [1656,0,7.08,0,54,100,0,2,46.8,"ulm-talkingtree-maja-01-02",4,65536,"2026-04-01T00:32:21"],
    [1657,0,18.45,0,0,100,0,18,1.05,"ulm-talkingtree-friedl-01-02",0,65536,"2026-04-01T01:07:50"],
    [1658,0,7.02,0,54,100,0,1,46.83,"ulm-talkingtree-maja-01-02",4,65536,"2026-04-01T04:32:20"],
    [1659,0,18.24,0,0,100,0,18,1.05,"ulm-talkingtree-friedl-01-02",0,65536,"2026-04-01T05:07:49"],
    [1660,0,5.75,0,44,100,0,3,30.71,"ulm-talkingtree-willi-01-02",30,65536,"2026-04-01T08:19:59"],
    [1661,0,6.88,0,55,100,0,5,47.14,"ulm-talkingtree-maja-01-02",4,65536,"2026-04-01T08:32:19"],
    [1662,0,18.04,0,0,100,0,18,1.05,"ulm-talkingtree-friedl-01-02",0,65536,"2026-04-01T09:07:48"],
    [1663,0,5.67,0,44,100,0,6,30.66,"ulm-talkingtree-willi-01-02",30,65536,"2026-04-01T12:19:57"],
    [1664,0,6.79,0,55,100,0,12,47.02,"ulm-talkingtree-maja-01-02",4,65536,"2026-04-01T12:32:18"],
    [1665,0,17.87,0,0,100,0,18,1.07,"ulm-talkingtree-friedl-01-02",0,65536,"2026-04-01T13:07:47"],
    [1666,0,5.71,0,44,100,0,8,30.47,"ulm-talkingtree-willi-01-02",30,65536,"2026-04-01T16:19:56"],
    [1667,0,6.86,0,55,100,0,9,47.01,"ulm-talkingtree-maja-01-02",4,65536,"2026-04-01T16:32:17"],
    [1668,0,18.19,0,0,100,0,18,1.05,"ulm-talkingtree-friedl-01-02",0,65536,"2026-04-01T17:07:45"],
    [1669,0,5.91,0,44,100,0,4,30.38,"ulm-talkingtree-willi-01-02",29,65536,"2026-04-01T20:19:54"],
    [1670,0,7.21,0,54,100,0,3,46.5,"ulm-talkingtree-maja-01-02",4,65536,"2026-04-01T20:32:17"],
    [1671,0,18.36,0,0,100,0,18,1.05,"ulm-talkingtree-friedl-01-02",0,65536,"2026-04-01T21:07:44"],
    [1672,0,6.05,0,44,100,0,2,30.06,"ulm-talkingtree-willi-01-02",29,65536,"2026-04-02T00:19:53"],
    [1673,0,7.41,0,54,100,0,1,46.19,"ulm-talkingtree-maja-01-02",4,65536,"2026-04-02T00:32:16"],
    [1674,0,18.33,0,0,100,0,18,1.05,"ulm-talkingtree-friedl-01-02",0,65536,"2026-04-02T01:07:43"],
    [1675,0,6.05,0,44,100,0,1,30.21,"ulm-talkingtree-willi-01-02",29,65536,"2026-04-02T04:19:51"],
    [1676,0,18.07,0,0,100,0,18,1.05,"ulm-talkingtree-friedl-01-02",0,65536,"2026-04-02T05:07:42"],
    [1677,0,5.92,0,44,100,0,4,30.32,"ulm-talkingtree-willi-01-02",29,65536,"2026-04-02T08:19:50"],
    [1678,0,7.21,0,54,100,0,7,45.99,"ulm-talkingtree-maja-01-02",4,65536,"2026-04-02T08:32:14"],
    [1679,0,17.5,0,0,100,0,17,1.07,"ulm-talkingtree-friedl-01-02",0,65536,"2026-04-02T09:07:41"],
    [1680,0,5.82,0,42,100,0,9,28.08,"ulm-talkingtree-willi-01-02",30,65536,"2026-04-02T12:19:48"],
    [1681,0,6.99,0,54,100,0,18,46.41,"ulm-talkingtree-maja-01-02",4,65536,"2026-04-02T12:32:13"],
    [1682,0,5.96,0,42,100,0,10,27.94,"ulm-talkingtree-willi-01-02",29,65536,"2026-04-02T16:19:47"],
    [1683,0,7.21,0,54,100,0,13,46.36,"ulm-talkingtree-maja-01-02",4,65536,"2026-04-02T16:32:12"],
    [1684,0,18.39,0,0,100,0,18,1.05,"ulm-talkingtree-friedl-01-02",0,65536,"2026-04-02T17:07:39"],
    [1685,0,6.33,0,42,100,0,6,27.96,"ulm-talkingtree-willi-01-02",29,65536,"2026-04-02T20:19:45"],
    [1686,0,7.72,0,54,100,0,5,45.82,"ulm-talkingtree-maja-01-02",4,65536,"2026-04-02T20:32:11"],
    [1687,0,18.54,0,0,100,0,18,1.05,"ulm-talkingtree-friedl-01-02",0,65536,"2026-04-02T21:07:37"],
    [1688,0,6.55,0,42,100,0,3,27.88,"ulm-talkingtree-willi-01-02",29,65536,"2026-04-03T00:19:44"],
    [1689,0,7.97,0,54,100,0,1,45.36,"ulm-talkingtree-maja-01-02",4,65536,"2026-04-03T00:32:11"],
    [1690,0,18.44,0,0,100,0,18,1.05,"ulm-talkingtree-friedl-01-02",0,65536,"2026-04-03T01:07:36"],
    [1691,0,6.55,0,42,100,0,2,27.94,"ulm-talkingtree-willi-01-02",29,65536,"2026-04-03T04:19:42"],
    [1692,0,18.34,0,0,100,0,18,1.05,"ulm-talkingtree-friedl-01-02",0,65536,"2026-04-03T05:07:35"],
    [1693,0,6.44,0,42,100,0,5,27.94,"ulm-talkingtree-willi-01-02",29,65536,"2026-04-03T08:19:41"],
    [1694,0,7.73,0,53,100,0,6,45.05,"ulm-talkingtree-maja-01-02",4,65536,"2026-04-03T08:32:09"],
    [1695,0,6.33,0,42,100,0,11,27.8,"ulm-talkingtree-willi-01-02",29,65536,"2026-04-03T12:19:39"],
    [1696,0,7.56,0,54,100,0,16,45.31,"ulm-talkingtree-maja-01-02",4,65536,"2026-04-03T12:32:08"],
    [1697,0,18.89,0,0,100,0,18,1.05,"ulm-talkingtree-friedl-01-02",0,65536,"2026-04-03T13:07:33"],
    [1698,0,6.51,0,42,100,0,13,27.64,"ulm-talkingtree-willi-01-02",29,65536,"2026-04-03T16:19:38"],
    [1699,0,7.68,0,54,100,0,15,45.22,"ulm-talkingtree-maja-01-02",4,65536,"2026-04-03T16:32:07"],
    [1700,0,19.02,0,0,100,0,19,1.04,"ulm-talkingtree-friedl-01-02",0,65536,"2026-04-03T17:07:32"],
    [1701,0,6.89,0,42,100,0,9,27.44,"ulm-talkingtree-willi-01-02",29,65536,"2026-04-03T20:19:36"],
    [1702,0,18.9,0,0,100,0,19,1.05,"ulm-talkingtree-friedl-01-02",0,65536,"2026-04-03T21:07:30"],
    [1703,0,7.19,0,42,100,0,7,27.43,"ulm-talkingtree-willi-01-02",28,65536,"2026-04-04T00:19:35"],
    [1704,0,8.35,0,53,100,0,8,44.71,"ulm-talkingtree-maja-01-02",4,65536,"2026-04-04T00:32:05"],
    [1705,0,18.79,0,0,100,0,18,1.05,"ulm-talkingtree-friedl-01-02",0,65536,"2026-04-04T01:07:29"],
    [1706,0,8.43,0,53,100,0,8,44.71,"ulm-talkingtree-maja-01-02",4,65536,"2026-04-04T04:32:04"],
    [1707,0,18.74,0,0,100,0,18,1.05,"ulm-talkingtree-friedl-01-02",0,65536,"2026-04-04T05:07:28"],
    [1708,0,7.33,0,42,100,0,8,27.32,"ulm-talkingtree-willi-01-02",28,65536,"2026-04-04T08:19:31"],
    [1709,0,8.41,0,53,100,0,10,44.49,"ulm-talkingtree-maja-01-02",4,65536,"2026-04-04T08:32:04"],
    [1710,0,18.77,0,0,100,0,18,1.05,"ulm-talkingtree-friedl-01-02",0,65536,"2026-04-04T09:07:27"],
    [1711,0,7.33,0,42,100,0,10,27.17,"ulm-talkingtree-willi-01-02",28,65536,"2026-04-04T12:19:30"],
    [1712,0,8.38,0,53,100,0,13,44.47,"ulm-talkingtree-maja-01-02",4,65536,"2026-04-04T12:32:03"],
    [1713,0,18.84,0,0,100,0,18,1.05,"ulm-talkingtree-friedl-01-02",0,65536,"2026-04-04T13:07:26"],
    [1714,0,7.4,0,42,100,0,10,27.12,"ulm-talkingtree-willi-01-02",28,65536,"2026-04-04T16:19:28"],
    [1715,0,8.43,0,53,100,0,13,44.44,"ulm-talkingtree-maja-01-02",4,65536,"2026-04-04T16:32:02"],
    [1716,0,18.89,0,0,100,0,18,1.05,"ulm-talkingtree-friedl-01-02",0,65536,"2026-04-04T17:07:25"],
    [1717,0,7.56,0,41,100,0,8,26.99,"ulm-talkingtree-willi-01-02",28,65536,"2026-04-04T20:19:27"],
    [1718,0,8.57,0,53,100,0,8,44.34,"ulm-talkingtree-maja-01-02",4,65536,"2026-04-04T20:32:01"],
    [1719,0,18.89,0,0,100,0,18,1.05,"ulm-talkingtree-friedl-01-02",0,65536,"2026-04-04T21:07:24"],
    [1720,0,7.65,0,41,100,0,6,27,"ulm-talkingtree-willi-01-02",28,65536,"2026-04-05T00:19:25"],
    [1721,0,18.79,0,0,100,0,18,1.05,"ulm-talkingtree-friedl-01-02",0,65536,"2026-04-05T01:07:22"],
    [1722,0,7.68,0,41,100,0,5,27.08,"ulm-talkingtree-willi-01-02",28,65536,"2026-04-05T04:19:24"],
    [1723,0,18.66,0,0,100,0,18,1.05,"ulm-talkingtree-friedl-01-02",0,65536,"2026-04-05T05:07:21"],
    [1724,0,7.59,0,41,100,0,8,27.01,"ulm-talkingtree-willi-01-02",28,65536,"2026-04-05T08:19:22"],
    [1725,0,18.79,0,0,100,0,18,1.05,"ulm-talkingtree-friedl-01-02",0,65536,"2026-04-05T09:07:20"],
    [1726,0,7.55,0,41,100,0,15,26.96,"ulm-talkingtree-willi-01-02",28,65536,"2026-04-05T12:19:21"],
    [1727,0,8.38,0,53,99,0,26,44,"ulm-talkingtree-maja-01-02",4,65536,"2026-04-05T12:31:57"],
    [1728,0,19.24,0,0,100,0,19,1.04,"ulm-talkingtree-friedl-01-02",0,65536,"2026-04-05T13:07:19"],
    [1729,0,7.77,0,41,100,0,15,26.83,"ulm-talkingtree-willi-01-02",28,65536,"2026-04-05T16:19:19"],
    [1730,0,8.66,0,53,100,0,20,43.87,"ulm-talkingtree-maja-01-02",4,65536,"2026-04-05T16:31:56"],
    [1731,0,19.27,0,0,100,0,19,1.04,"ulm-talkingtree-friedl-01-02",0,65536,"2026-04-05T17:07:18"],
    [1732,0,9.21,0,53,100,0,12,43.65,"ulm-talkingtree-maja-01-02",3,65536,"2026-04-05T20:31:55"],
    [1733,0,19.21,0,0,100,0,19,1.04,"ulm-talkingtree-friedl-01-02",0,65536,"2026-04-05T21:07:17"],
    [1734,0,8.53,0,41,100,0,9,26.79,"ulm-talkingtree-willi-01-02",27,65536,"2026-04-06T00:19:16"],
    [1735,0,19.16,0,0,100,0,19,1.04,"ulm-talkingtree-friedl-01-02",0,65536,"2026-04-06T01:07:15"],
    [1736,0,8.63,0,41,100,0,8,26.8,"ulm-talkingtree-willi-01-02",27,65536,"2026-04-06T04:19:15"],
    [1737,0,9.64,0,53,100,0,8,43.59,"ulm-talkingtree-maja-01-02",3,65536,"2026-04-06T04:31:54"],
    [1738,0,19.06,0,0,100,0,19,1.04,"ulm-talkingtree-friedl-01-02",0,65536,"2026-04-06T05:07:14"],
    [1739,0,8.63,0,41,100,0,9,26.9,"ulm-talkingtree-willi-01-02",27,65536,"2026-04-06T08:19:13"],
    [1740,0,9.58,0,53,100,0,13,43.43,"ulm-talkingtree-maja-01-02",3,65536,"2026-04-06T08:31:53"],
    [1741,0,19.19,0,0,100,0,19,1.04,"ulm-talkingtree-friedl-01-02",0,65536,"2026-04-06T09:07:13"],
    [1742,0,8.62,0,41,100,0,15,26.72,"ulm-talkingtree-willi-01-02",27,65536,"2026-04-06T12:19:11"],
    [1743,0,9.5,0,53,100,0,22,43.55,"ulm-talkingtree-maja-01-02",3,65536,"2026-04-06T12:31:52"],
    [1744,0,19.6,0,0,100,0,19,1.04,"ulm-talkingtree-friedl-01-02",0,65536,"2026-04-06T13:07:12"],
    [1745,0,8.8,0,41,100,0,15,26.62,"ulm-talkingtree-willi-01-02",27,65536,"2026-04-06T16:19:10"],
    [1746,0,9.74,0,53,100,0,19,43.47,"ulm-talkingtree-maja-01-02",3,65536,"2026-04-06T16:31:51"],
    [1747,0,19.67,0,0,100,0,19,1.04,"ulm-talkingtree-friedl-01-02",0,65536,"2026-04-06T17:07:11"],
    [1748,0,9.14,0,41,100,0,10,26.59,"ulm-talkingtree-willi-01-02",27,65536,"2026-04-06T20:19:08"],
    [1749,0,10.18,0,53,100,0,9,43.55,"ulm-talkingtree-maja-01-02",3,65536,"2026-04-06T20:31:50"],
    [1750,0,19.54,0,0,100,0,19,1.04,"ulm-talkingtree-friedl-01-02",0,65536,"2026-04-06T21:07:10"],
    [1751,0,9.32,0,41,100,0,8,26.51,"ulm-talkingtree-willi-01-02",27,65536,"2026-04-07T00:19:07"],
    [1752,0,10.44,0,52,100,0,5,43.29,"ulm-talkingtree-maja-01-02",3,65536,"2026-04-07T00:31:49"],
    [1753,0,19.34,0,0,100,0,19,1.04,"ulm-talkingtree-friedl-01-02",0,65536,"2026-04-07T01:07:09"],
    [1754,0,9.28,0,41,100,0,6,26.51,"ulm-talkingtree-willi-01-02",27,65536,"2026-04-07T04:19:05"],
    [1755,0,10.39,0,52,100,0,3,43.22,"ulm-talkingtree-maja-01-02",3,65536,"2026-04-07T04:31:48"],
    [1756,0,18.87,0,0,100,0,19,1.05,"ulm-talkingtree-friedl-01-02",0,65536,"2026-04-07T05:07:07"],
    [1757,0,9.14,0,41,100,0,9,26.51,"ulm-talkingtree-willi-01-02",27,65536,"2026-04-07T08:19:04"],
    [1758,0,10.18,0,52,100,0,12,43.21,"ulm-talkingtree-maja-01-02",3,65536,"2026-04-07T08:31:47"],
    [1759,0,18.54,0,0,100,0,18,1.05,"ulm-talkingtree-friedl-01-02",0,65536,"2026-04-07T09:07:06"],
    [1760,0,9.01,0,41,100,0,16,26.51,"ulm-talkingtree-willi-01-02",27,65536,"2026-04-07T12:19:02"],
    [1761,0,9.97,0,52,99,0,28,43.26,"ulm-talkingtree-maja-01-02",3,65536,"2026-04-07T12:31:46"],
    [1762,0,20.04,0,0,100,0,20,1.04,"ulm-talkingtree-friedl-01-02",0,65536,"2026-04-07T13:07:05"],
    [1763,0,19.54,0,0,100,0,19,1.04,"ulm-talkingtree-friedl-01-02",0,65536,"2026-04-07T17:07:04"],
    [1764,0,9.72,0,41,100,0,12,26.4,"ulm-talkingtree-willi-01-02",26,65536,"2026-04-07T20:18:59"],
    [1765,0,18.25,0,0,100,0,18,1.05,"ulm-talkingtree-friedl-01-02",0,65536,"2026-04-07T21:07:03"],
    [1766,0,9.97,0,41,100,0,9,26.4,"ulm-talkingtree-willi-01-02",26,65536,"2026-04-08T00:18:57"],
    [1767,0,11.22,0,52,100,0,6,42.98,"ulm-talkingtree-maja-01-02",3,65536,"2026-04-08T00:31:44"],
    [1768,0,17.28,0,0,100,0,17,1.07,"ulm-talkingtree-friedl-01-02",0,65536,"2026-04-08T01:07:02"],
    [1769,0,9.97,0,41,100,0,6,26.4,"ulm-talkingtree-willi-01-02",26,65536,"2026-04-08T04:18:56"],
    [1770,0,11.24,0,52,100,0,4,42.83,"ulm-talkingtree-maja-01-02",3,65536,"2026-04-08T04:31:43"],
    [1771,0,16.67,0,0,100,0,16,1.08,"ulm-talkingtree-friedl-01-02",0,65536,"2026-04-08T05:07:01"],
    [1772,0,9.78,0,41,100,0,8,26.5,"ulm-talkingtree-willi-01-02",26,65536,"2026-04-08T08:18:54"],
    [1773,0,11.02,0,52,100,0,11,42.86,"ulm-talkingtree-maja-01-02",3,65536,"2026-04-08T08:31:42"],
    [1774,0,17.17,0,0,100,0,17,1.07,"ulm-talkingtree-friedl-01-02",0,65536,"2026-04-08T09:06:59"],
    [1775,0,9.58,0,41,100,0,16,26.34,"ulm-talkingtree-willi-01-02",27,65536,"2026-04-08T12:18:53"],
    [1776,0,10.78,0,52,99,0,27,42.82,"ulm-talkingtree-maja-01-02",3,65536,"2026-04-08T12:31:41"],
    [1777,0,19.36,0,0,100,0,19,1.04,"ulm-talkingtree-friedl-01-02",0,65536,"2026-04-08T13:06:58"],
    [1778,0,9.72,0,41,100,0,18,26.31,"ulm-talkingtree-willi-01-02",26,65536,"2026-04-08T16:18:51"],
    [1779,0,19.37,0,0,100,0,19,1.04,"ulm-talkingtree-friedl-01-02",0,65536,"2026-04-08T17:06:57"],
    [1780,0,10.14,0,41,100,0,11,26.23,"ulm-talkingtree-willi-01-02",26,65536,"2026-04-08T20:18:50"],
    [1781,0,11.56,0,52,100,0,9,42.67,"ulm-talkingtree-maja-01-02",3,65536,"2026-04-08T20:31:39"],
    [1782,0,17.96,0,0,100,0,17,1.07,"ulm-talkingtree-friedl-01-02",0,65536,"2026-04-08T21:06:56"],
    [1783,0,10.36,0,41,100,0,9,26.19,"ulm-talkingtree-willi-01-02",26,65536,"2026-04-09T00:18:48"],
    [1784,0,11.83,0,52,100,0,5,42.61,"ulm-talkingtree-maja-01-02",3,65536,"2026-04-09T00:31:38"],
    [1785,0,16.98,0,0,100,0,16,1.08,"ulm-talkingtree-friedl-01-02",0,65536,"2026-04-09T01:06:55"],
    [1786,0,10.29,0,41,100,0,7,26.19,"ulm-talkingtree-willi-01-02",26,65536,"2026-04-09T04:18:47"],
    [1787,0,11.76,0,52,100,0,3,42.44,"ulm-talkingtree-maja-01-02",3,65536,"2026-04-09T04:31:37"],
    [1788,0,16.54,0,0,100,0,16,1.08,"ulm-talkingtree-friedl-01-02",0,65536,"2026-04-09T05:06:54"],
    [1789,0,11.5,0,52,100,0,11,42.47,"ulm-talkingtree-maja-01-02",3,65536,"2026-04-09T08:31:37"],
    [1790,0,17.79,0,0,100,0,17,1.07,"ulm-talkingtree-friedl-01-02",0,65536,"2026-04-09T09:06:53"],
    [1791,0,9.85,0,41,100,0,16,26.3,"ulm-talkingtree-willi-01-02",26,65536,"2026-04-09T12:18:43"],
    [1792,0,11.19,0,52,100,0,24,42.5,"ulm-talkingtree-maja-01-02",3,65536,"2026-04-09T12:31:36"],
    [1793,0,9.92,0,41,100,0,16,26.28,"ulm-talkingtree-willi-01-02",26,65536,"2026-04-09T16:18:42"],
    [1794,0,11.27,0,52,100,0,22,42.28,"ulm-talkingtree-maja-01-02",3,65536,"2026-04-09T16:31:35"],
    [1795,0,18.94,0,0,100,0,18,1.05,"ulm-talkingtree-friedl-01-02",0,65536,"2026-04-09T17:06:50"],
    [1796,0,10.22,0,41,100,0,11,26.2,"ulm-talkingtree-willi-01-02",26,65536,"2026-04-09T20:18:40"],
    [1797,0,11.66,0,52,100,0,11,42.32,"ulm-talkingtree-maja-01-02",3,65536,"2026-04-09T20:31:34"],
    [1798,0,17.89,0,0,100,0,17,1.07,"ulm-talkingtree-friedl-01-02",0,65536,"2026-04-09T21:06:49"],
    [1799,0,10.36,0,41,100,0,10,26.23,"ulm-talkingtree-willi-01-02",26,65536,"2026-04-10T00:18:39"],
    [1800,0,11.88,0,52,100,0,8,42.21,"ulm-talkingtree-maja-01-02",3,65536,"2026-04-10T00:31:33"],
    [1801,0,17.18,0,0,100,0,16,1.07,"ulm-talkingtree-friedl-01-02",0,65536,"2026-04-10T01:06:48"],
    [1802,0,10.36,0,41,100,0,8,26.19,"ulm-talkingtree-willi-01-02",26,65536,"2026-04-10T04:18:37"],
    [1803,0,17.37,0,0,100,0,17,1.07,"ulm-talkingtree-friedl-01-02",0,65536,"2026-04-10T05:06:47"],
    [1804,0,10.22,0,41,100,0,9,26.14,"ulm-talkingtree-willi-01-02",26,65536,"2026-04-10T08:18:36"],
    [1805,0,11.66,0,52,100,0,10,42.17,"ulm-talkingtree-maja-01-02",3,65536,"2026-04-10T08:31:31"],
    [1806,0,10.1,0,41,100,0,11,26.09,"ulm-talkingtree-willi-01-02",26,65536,"2026-04-10T12:18:34"],
    [1807,0,11.49,0,52,100,0,12,41.97,"ulm-talkingtree-maja-01-02",3,65536,"2026-04-10T12:31:30"],
    [1808,0,17.45,0,0,100,0,17,1.07,"ulm-talkingtree-friedl-01-02",0,65536,"2026-04-10T13:06:45"],
    [1809,0,10.03,0,40,100,0,12,25.88,"ulm-talkingtree-willi-01-02",26,65536,"2026-04-10T16:18:33"],
    [1810,0,11.4,0,52,100,0,13,41.82,"ulm-talkingtree-maja-01-02",3,65536,"2026-04-10T16:31:29"],
    [1811,0,17.52,0,0,100,0,17,1.07,"ulm-talkingtree-friedl-01-02",0,65536,"2026-04-10T17:06:43"],
    [1812,0,10.05,0,40,100,0,9,25.78,"ulm-talkingtree-willi-01-02",26,65536,"2026-04-10T20:18:31"],
    [1813,0,11.37,0,51,100,0,9,41.68,"ulm-talkingtree-maja-01-02",3,65536,"2026-04-10T20:31:28"],
    [1814,0,16.93,0,0,100,0,16,1.08,"ulm-talkingtree-friedl-01-02",0,65536,"2026-04-10T21:06:42"],
    [1815,0,10.06,0,40,100,0,8,25.81,"ulm-talkingtree-willi-01-02",26,65536,"2026-04-11T00:18:29"],
    [1816,0,11.31,0,52,100,0,7,41.74,"ulm-talkingtree-maja-01-02",3,65536,"2026-04-11T00:31:27"],
    [1817,0,16.49,0,0,100,0,16,1.08,"ulm-talkingtree-friedl-01-02",0,65536,"2026-04-11T01:06:41"],
    [1818,0,9.97,0,40,100,0,8,25.83,"ulm-talkingtree-willi-01-02",26,65536,"2026-04-11T04:18:28"],
    [1819,0,11.19,0,51,100,0,8,41.55,"ulm-talkingtree-maja-01-02",3,65536,"2026-04-11T04:31:27"],
    [1820,0,9.83,0,40,100,0,9,25.87,"ulm-talkingtree-willi-01-02",26,65536,"2026-04-11T08:18:26"],
    [1821,0,11.04,0,51,100,0,11,41.62,"ulm-talkingtree-maja-01-02",3,65536,"2026-04-11T08:31:26"],
    [1822,0,16.68,0,0,100,0,16,1.08,"ulm-talkingtree-friedl-01-02",0,65536,"2026-04-11T09:06:39"],
    [1823,0,9.75,0,40,100,0,17,25.82,"ulm-talkingtree-willi-01-02",26,65536,"2026-04-11T12:18:25"],
    [1824,0,10.9,0,51,99,0,26,41.39,"ulm-talkingtree-maja-01-02",3,65536,"2026-04-11T12:31:25"],
    [1825,0,19.25,0,0,100,0,19,1.04,"ulm-talkingtree-friedl-01-02",0,65536,"2026-04-11T13:06:38"],
    [1826,0,9.89,0,40,100,0,18,25.04,"ulm-talkingtree-willi-01-02",26,65536,"2026-04-11T16:18:23"],
    [1827,0,11.18,0,51,100,0,25,41.3,"ulm-talkingtree-maja-01-02",3,65536,"2026-04-11T16:31:24"],
    [1828,0,19.24,0,0,100,0,19,1.04,"ulm-talkingtree-friedl-01-02",0,65536,"2026-04-11T17:06:37"],
    [1829,0,10.37,0,40,100,0,14,24.97,"ulm-talkingtree-willi-01-02",26,65536,"2026-04-11T20:18:22"],
    [1830,0,18.19,0,0,100,0,17,1.05,"ulm-talkingtree-friedl-01-02",0,65536,"2026-04-11T21:06:35"],
    [1831,0,10.69,0,40,100,0,11,24.95,"ulm-talkingtree-willi-01-02",26,65536,"2026-04-12T00:18:20"],
    [1832,0,12.3,0,51,100,0,11,41.08,"ulm-talkingtree-maja-01-02",3,65536,"2026-04-12T00:31:22"],
    [1833,0,17.45,0,0,100,0,17,1.07,"ulm-talkingtree-friedl-01-02",0,65536,"2026-04-12T01:06:34"],
    [1834,0,10.79,0,40,100,0,11,24.95,"ulm-talkingtree-willi-01-02",26,65536,"2026-04-12T04:18:18"],
    [1835,0,12.4,0,51,100,0,11,40.84,"ulm-talkingtree-maja-01-02",3,65536,"2026-04-12T04:31:21"],
    [1836,0,17.14,0,0,100,0,16,1.07,"ulm-talkingtree-friedl-01-02",0,65536,"2026-04-12T05:06:33"],
    [1837,0,10.74,0,40,100,0,10,24.95,"ulm-talkingtree-willi-01-02",26,65536,"2026-04-12T08:18:17"],
    [1838,0,17.04,0,0,100,0,16,1.07,"ulm-talkingtree-friedl-01-02",0,65536,"2026-04-12T09:06:32"],
    [1839,0,10.66,0,40,100,0,10,25.04,"ulm-talkingtree-willi-01-02",26,65536,"2026-04-12T12:18:16"],
    [1840,0,12.2,0,51,100,0,9,40.7,"ulm-talkingtree-maja-01-02",3,65536,"2026-04-12T12:31:19"],
    [1841,0,17.25,0,0,100,0,17,1.07,"ulm-talkingtree-friedl-01-02",0,65536,"2026-04-12T13:06:31"],
    [1842,0,10.58,0,40,100,0,9,25.12,"ulm-talkingtree-willi-01-02",26,65536,"2026-04-12T16:18:14"],
    [1843,0,12.09,0,51,100,0,8,40.61,"ulm-talkingtree-maja-01-02",3,65536,"2026-04-12T16:31:18"],
    [1844,0,17.01,0,0,100,0,16,1.07,"ulm-talkingtree-friedl-01-02",0,65536,"2026-04-12T17:06:30"],
    [1845,0,10.46,0,40,100,0,8,25.08,"ulm-talkingtree-willi-01-02",26,65536,"2026-04-12T20:18:12"],
    [1846,0,11.95,0,51,100,0,7,40.49,"ulm-talkingtree-maja-01-02",3,65536,"2026-04-12T20:31:17"],
    [1847,0,16.52,0,0,100,0,16,1.08,"ulm-talkingtree-friedl-01-02",0,65536,"2026-04-12T21:06:29"],
    [1848,0,10.32,0,40,100,0,8,25.07,"ulm-talkingtree-willi-01-02",26,65536,"2026-04-13T00:18:11"],
    [1849,0,11.79,0,51,100,0,7,40.29,"ulm-talkingtree-maja-01-02",3,65536,"2026-04-13T00:31:17"],
    [1850,0,16.19,0,0,100,0,15,1.08,"ulm-talkingtree-friedl-01-02",0,65536,"2026-04-13T01:06:28"],
    [1851,0,10.18,0,40,100,0,7,24.97,"ulm-talkingtree-willi-01-02",26,65536,"2026-04-13T04:18:09"],
    [1852,0,15.99,0,0,100,0,15,1.09,"ulm-talkingtree-friedl-01-02",0,65536,"2026-04-13T05:06:26"],
    [1853,0,10.01,0,40,100,0,8,25.08,"ulm-talkingtree-willi-01-02",26,65536,"2026-04-13T08:18:08"],
    [1854,0,11.43,0,51,100,0,8,40,"ulm-talkingtree-maja-01-02",3,65536,"2026-04-13T08:31:15"],
    [1855,0,16.94,0,0,100,0,16,1.08,"ulm-talkingtree-friedl-01-02",0,65536,"2026-04-13T09:06:25"],
    [1856,0,9.88,0,40,100,0,11,25.1,"ulm-talkingtree-willi-01-02",26,65536,"2026-04-13T12:18:06"],
    [1857,0,14.52,0,0,100,0,14,1.1,"ulm-talkingtree-friedl-01-02",0,65536,"2026-04-13T13:06:24"],
    [1858,0,9.85,0,40,100,0,10,25.21,"ulm-talkingtree-willi-01-02",26,65536,"2026-04-13T16:18:05"],
    [1859,0,11.18,0,51,100,0,9,39.97,"ulm-talkingtree-maja-01-02",3,65536,"2026-04-13T16:31:13"],
    [1860,0,16.11,0,0,100,0,15,1.08,"ulm-talkingtree-friedl-01-02",0,65536,"2026-04-13T17:06:23"],
    [1861,0,9.89,0,40,100,0,9,25.19,"ulm-talkingtree-willi-01-02",26,65536,"2026-04-13T20:18:03"],
    [1862,0,11.23,0,50,100,0,8,39.89,"ulm-talkingtree-maja-01-02",3,65536,"2026-04-13T20:31:12"],
    [1863,0,16.12,0,0,100,0,15,1.08,"ulm-talkingtree-friedl-01-02",0,65536,"2026-04-13T21:06:22"],
    [1864,0,9.93,0,40,100,0,8,25.18,"ulm-talkingtree-willi-01-02",26,65536,"2026-04-14T00:18:01"],
    [1865,0,11.19,0,50,100,0,8,39.68,"ulm-talkingtree-maja-01-02",3,65536,"2026-04-14T00:31:11"],
    [1866,0,15.97,0,0,100,0,15,1.09,"ulm-talkingtree-friedl-01-02",0,65536,"2026-04-14T01:06:21"],
    [1867,0,9.83,0,40,100,0,8,25.26,"ulm-talkingtree-willi-01-02",26,65536,"2026-04-14T04:18:00"],
    [1868,0,11.09,0,50,100,0,7,39.57,"ulm-talkingtree-maja-01-02",3,65536,"2026-04-14T04:31:10"],
    [1869,0,14.95,0,0,100,0,15,1.1,"ulm-talkingtree-friedl-01-02",0,65536,"2026-04-14T05:06:20"],
    [1870,0,9.72,0,40,100,0,8,25.22,"ulm-talkingtree-willi-01-02",26,65536,"2026-04-14T08:17:58"],
    [1871,0,14.86,0,0,100,0,14,1.1,"ulm-talkingtree-friedl-01-02",0,65536,"2026-04-14T09:06:18"],
    [1872,0,9.64,0,40,100,0,9,25.19,"ulm-talkingtree-willi-01-02",26,65536,"2026-04-14T12:17:57"],
    [1873,0,10.87,0,50,100,0,9,39.52,"ulm-talkingtree-maja-01-02",3,65536,"2026-04-14T12:31:09"],
    [1874,0,15.85,0,0,100,0,15,1.09,"ulm-talkingtree-friedl-01-02",0,65536,"2026-04-14T13:06:17"],
    [1875,0,9.59,0,40,100,0,10,25.14,"ulm-talkingtree-willi-01-02",27,65536,"2026-04-14T16:17:55"],
    [1876,0,10.8,0,50,100,0,9,39.5,"ulm-talkingtree-maja-01-02",3,65536,"2026-04-14T16:31:08"],
    [1877,0,16.2,0,0,100,0,15,1.08,"ulm-talkingtree-friedl-01-02",0,65536,"2026-04-14T17:06:16"],
    [1878,0,9.64,0,40,100,0,8,25.27,"ulm-talkingtree-willi-01-02",26,65536,"2026-04-14T20:17:54"],
    [1879,0,16.04,0,0,100,0,15,1.08,"ulm-talkingtree-friedl-01-02",0,65536,"2026-04-14T21:06:15"],
    [1880,0,9.63,0,40,100,0,7,25.21,"ulm-talkingtree-willi-01-02",26,65536,"2026-04-15T00:17:52"],
    [1881,0,10.77,0,50,100,0,7,39.32,"ulm-talkingtree-maja-01-02",3,65536,"2026-04-15T00:31:06"],
    [1882,0,15.82,0,0,100,0,15,1.09,"ulm-talkingtree-friedl-01-02",0,65536,"2026-04-15T01:06:14"],
    [1883,0,9.58,0,40,100,0,7,25.08,"ulm-talkingtree-willi-01-02",27,65536,"2026-04-15T04:17:51"],
    [1884,0,15.45,0,0,100,0,15,1.09,"ulm-talkingtree-friedl-01-02",0,65536,"2026-04-15T05:06:13"],
    [1885,0,9.45,0,40,100,0,8,25.08,"ulm-talkingtree-willi-01-02",27,65536,"2026-04-15T08:17:49"],
    [1886,0,10.58,0,50,100,0,10,39.2,"ulm-talkingtree-maja-01-02",3,65536,"2026-04-15T08:31:04"],
    [1887,0,15.15,0,0,100,0,14,1.09,"ulm-talkingtree-friedl-01-02",0,65536,"2026-04-15T09:06:12"],
    [1888,0,9.38,0,40,100,0,13,25.08,"ulm-talkingtree-willi-01-02",27,65536,"2026-04-15T12:17:48"],
    [1889,0,10.5,0,50,100,0,14,39.25,"ulm-talkingtree-maja-01-02",3,65536,"2026-04-15T12:31:03"],
    [1890,0,9.47,0,40,100,0,12,24.98,"ulm-talkingtree-willi-01-02",27,65536,"2026-04-15T16:17:46"],
    [1891,0,16.49,0,0,100,0,16,1.08,"ulm-talkingtree-friedl-01-02",0,65536,"2026-04-15T17:06:10"],
    [1892,0,9.64,0,40,100,0,10,24.96,"ulm-talkingtree-willi-01-02",26,65536,"2026-04-15T20:17:45"],
    [1893,0,10.69,0,50,100,0,10,38.99,"ulm-talkingtree-maja-01-02",3,65536,"2026-04-15T20:31:01"],
    [1894,0,16.39,0,0,100,0,16,1.08,"ulm-talkingtree-friedl-01-02",0,65536,"2026-04-15T21:06:08"],
    [1895,0,9.78,0,40,100,0,9,24.96,"ulm-talkingtree-willi-01-02",26,65536,"2026-04-16T00:17:43"],
    [1896,0,10.75,0,50,100,0,10,38.84,"ulm-talkingtree-maja-01-02",3,65536,"2026-04-16T00:31:00"],
    [1897,0,16.25,0,0,100,0,15,1.08,"ulm-talkingtree-friedl-01-02",0,65536,"2026-04-16T01:06:07"],
    [1898,0,9.83,0,40,100,0,8,24.97,"ulm-talkingtree-willi-01-02",26,65536,"2026-04-16T04:17:41"],
    [1899,0,10.77,0,50,100,0,8,38.71,"ulm-talkingtree-maja-01-02",3,65536,"2026-04-16T04:31:00"],
    [1900,0,15.54,0,0,100,0,15,1.09,"ulm-talkingtree-friedl-01-02",0,65536,"2026-04-16T05:06:06"],
    [1901,0,9.78,0,40,100,0,10,24.99,"ulm-talkingtree-willi-01-02",26,65536,"2026-04-16T08:17:40"],
    [1902,0,10.73,0,50,100,0,14,38.7,"ulm-talkingtree-maja-01-02",3,65536,"2026-04-16T08:30:59"],
    [1903,0,17.24,0,0,100,0,16,1.07,"ulm-talkingtree-friedl-01-02",0,65536,"2026-04-16T09:06:05"],
    [1904,0,9.77,0,39,100,0,16,24.87,"ulm-talkingtree-willi-01-02",26,65536,"2026-04-16T12:17:39"],
    [1905,0,10.69,0,50,100,0,19,38.59,"ulm-talkingtree-maja-01-02",3,65536,"2026-04-16T12:30:58"],
    [1906,0,9.97,0,39,100,0,15,24.7,"ulm-talkingtree-willi-01-02",26,65536,"2026-04-16T16:17:37"],
    [1907,0,10.92,0,50,100,0,18,38.5,"ulm-talkingtree-maja-01-02",3,65536,"2026-04-16T16:30:57"],
    [1908,0,18.11,0,0,100,0,17,1.05,"ulm-talkingtree-friedl-01-02",0,65536,"2026-04-16T17:06:03"],
    [1909,0,10.24,0,39,100,0,11,24.73,"ulm-talkingtree-willi-01-02",26,65536,"2026-04-16T20:17:35"],
    [1910,0,11.21,0,50,100,0,10,38.54,"ulm-talkingtree-maja-01-02",3,65536,"2026-04-16T20:30:56"],
    [1911,0,17.37,0,0,100,0,17,1.07,"ulm-talkingtree-friedl-01-02",0,65536,"2026-04-16T21:06:02"],
    [1912,0,10.44,0,39,100,0,9,24.72,"ulm-talkingtree-willi-01-02",26,65536,"2026-04-17T00:17:34"],
    [1913,0,16.65,0,0,100,0,16,1.08,"ulm-talkingtree-friedl-01-02",0,65536,"2026-04-17T01:06:00"],
    [1914,0,10.42,0,39,100,0,8,24.71,"ulm-talkingtree-willi-01-02",26,65536,"2026-04-17T04:17:32"],
    [1915,0,11.32,0,50,100,0,4,38.39,"ulm-talkingtree-maja-01-02",3,65536,"2026-04-17T04:30:54"],
    [1916,0,15.75,0,0,100,0,15,1.09,"ulm-talkingtree-friedl-01-02",0,65536,"2026-04-17T05:05:59"],
    [1917,0,10.3,0,39,100,0,10,24.64,"ulm-talkingtree-willi-01-02",26,65536,"2026-04-17T08:17:31"],
    [1918,0,11.16,0,50,100,0,15,38.33,"ulm-talkingtree-maja-01-02",3,65536,"2026-04-17T08:30:53"],
    [1919,0,17.32,0,0,100,0,16,1.07,"ulm-talkingtree-friedl-01-02",0,65536,"2026-04-17T09:05:58"],
    [1920,0,10.24,0,39,100,0,20,24.61,"ulm-talkingtree-willi-01-02",26,65536,"2026-04-17T12:17:29"],
    [1921,0,11.04,0,50,100,0,25,38.49,"ulm-talkingtree-maja-01-02",3,65536,"2026-04-17T12:30:52"],
    [1922,0,19.26,0,0,100,0,18,1.04,"ulm-talkingtree-friedl-01-02",0,65536,"2026-04-17T13:05:57"],
    [1923,0,10.47,0,39,100,0,19,24.65,"ulm-talkingtree-willi-01-02",26,65536,"2026-04-17T16:17:28"],
    [1924,0,11.44,0,50,100,0,24,38.39,"ulm-talkingtree-maja-01-02",3,65536,"2026-04-17T16:30:51"],
    [1925,0,19.26,0,0,100,0,19,1.04,"ulm-talkingtree-friedl-01-02",0,65536,"2026-04-17T17:05:56"],
    [1926,0,10.97,0,39,100,0,13,24.48,"ulm-talkingtree-willi-01-02",26,65536,"2026-04-17T20:17:26"],
    [1927,0,12.12,0,50,100,0,12,38.32,"ulm-talkingtree-maja-01-02",3,65536,"2026-04-17T20:30:50"],
    [1928,0,18.35,0,0,100,0,18,1.05,"ulm-talkingtree-friedl-01-02",0,65536,"2026-04-17T21:05:55"],
    [1929,0,11.26,0,39,100,0,11,24.43,"ulm-talkingtree-willi-01-02",25,65536,"2026-04-18T00:17:24"],
    [1930,0,12.52,0,49,100,0,8,38.06,"ulm-talkingtree-maja-01-02",3,65536,"2026-04-18T00:30:50"],
    [1931,0,11.27,0,39,100,0,9,24.43,"ulm-talkingtree-willi-01-02",25,65536,"2026-04-18T04:17:23"],
    [1932,0,12.54,0,49,100,0,6,38.02,"ulm-talkingtree-maja-01-02",3,65536,"2026-04-18T04:30:49"],
    [1933,0,11.17,0,39,100,0,11,24.52,"ulm-talkingtree-willi-01-02",25,65536,"2026-04-18T08:17:21"],
    [1934,0,12.37,0,49,100,0,16,37.95,"ulm-talkingtree-maja-01-02",3,65536,"2026-04-18T08:30:48"],
    [1935,0,17.92,0,0,100,0,17,1.07,"ulm-talkingtree-friedl-01-02",0,65536,"2026-04-18T09:05:52"],
    [1936,0,11.07,0,39,100,0,21,24.42,"ulm-talkingtree-willi-01-02",25,65536,"2026-04-18T12:17:20"],
    [1937,0,12.22,0,49,99,0,27,38.03,"ulm-talkingtree-maja-01-02",3,65536,"2026-04-18T12:30:47"],
    [1938,0,19.73,0,0,100,0,19,1.04,"ulm-talkingtree-friedl-01-02",0,65536,"2026-04-18T13:05:50"],
    [1939,0,11.35,0,39,100,0,21,24.36,"ulm-talkingtree-willi-01-02",25,65536,"2026-04-18T16:17:18"],
    [1940,0,12.57,0,49,100,0,23,37.99,"ulm-talkingtree-maja-01-02",3,65536,"2026-04-18T16:30:46"],
    [1941,0,19.87,0,0,100,0,19,1.04,"ulm-talkingtree-friedl-01-02",0,65536,"2026-04-18T17:05:49"],
    [1942,0,11.85,0,39,100,0,15,24.3,"ulm-talkingtree-willi-01-02",25,65536,"2026-04-18T20:17:16"],
    [1943,0,13.23,0,49,100,0,15,37.82,"ulm-talkingtree-maja-01-02",3,65536,"2026-04-18T20:30:45"],
    [1944,0,19.07,0,0,100,0,18,1.04,"ulm-talkingtree-friedl-01-02",0,65536,"2026-04-18T21:05:48"],
    [1945,0,12.14,0,39,100,0,13,24.32,"ulm-talkingtree-willi-01-02",25,65536,"2026-04-19T00:17:15"],
    [1946,0,13.55,0,49,100,0,12,37.65,"ulm-talkingtree-maja-01-02",3,65536,"2026-04-19T00:30:44"],
    [1947,0,18.44,0,0,100,0,18,1.05,"ulm-talkingtree-friedl-01-02",0,65536,"2026-04-19T01:05:47"],
    [1948,0,12.25,0,39,100,0,11,24.22,"ulm-talkingtree-willi-01-02",25,65536,"2026-04-19T04:17:13"],
    [1949,0,13.56,0,49,100,0,9,37.52,"ulm-talkingtree-maja-01-02",3,65536,"2026-04-19T04:30:43"],
    [1950,0,17.84,0,0,100,0,17,1.07,"ulm-talkingtree-friedl-01-02",0,65536,"2026-04-19T05:05:46"],
    [1951,0,12.13,0,39,100,0,13,24.26,"ulm-talkingtree-willi-01-02",25,65536,"2026-04-19T08:17:12"],
    [1952,0,13.45,0,49,100,0,15,37.43,"ulm-talkingtree-maja-01-02",3,65536,"2026-04-19T08:30:42"],
    [1953,0,18.39,0,0,100,0,18,1.05,"ulm-talkingtree-friedl-01-02",0,65536,"2026-04-19T09:05:45"],
    [1954,0,12.05,0,39,100,0,18,24.3,"ulm-talkingtree-willi-01-02",25,65536,"2026-04-19T12:17:10"],
    [1955,0,13.29,0,49,100,0,16,37.4,"ulm-talkingtree-maja-01-02",3,65536,"2026-04-19T12:30:41"],
    [1956,0,19.21,0,0,100,0,18,1.04,"ulm-talkingtree-friedl-01-02",0,65536,"2026-04-19T13:05:43"],
    [1957,0,12.11,0,39,100,0,16,24.44,"ulm-talkingtree-willi-01-02",25,65536,"2026-04-19T16:17:09"],
    [1958,0,13.36,0,49,100,0,15,37.39,"ulm-talkingtree-maja-01-02",3,65536,"2026-04-19T16:30:40"],
    [1959,0,19.54,0,0,100,0,19,1.04,"ulm-talkingtree-friedl-01-02",0,65536,"2026-04-19T17:05:42"],
    [1960,0,12.28,0,39,100,0,11,24.5,"ulm-talkingtree-willi-01-02",25,65536,"2026-04-19T20:17:07"],
    [1961,0,18.48,0,0,100,0,18,1.05,"ulm-talkingtree-friedl-01-02",0,65536,"2026-04-19T21:05:41"],
    [1962,0,12.25,0,39,100,0,9,24.6,"ulm-talkingtree-willi-01-02",25,65536,"2026-04-20T00:17:05"],
    [1963,0,17.64,0,0,100,0,17,1.07,"ulm-talkingtree-friedl-01-02",0,65536,"2026-04-20T01:05:40"],
    [1964,0,12.05,0,39,100,0,7,24.68,"ulm-talkingtree-willi-01-02",25,65536,"2026-04-20T04:17:04"],
    [1965,0,13.39,0,49,100,0,3,36.89,"ulm-talkingtree-maja-01-02",3,65536,"2026-04-20T04:30:38"],
    [1966,0,14.74,0,0,100,0,15,1.1,"ulm-talkingtree-friedl-01-02",0,65536,"2026-04-20T05:05:39"],
    [1967,0,11.75,0,39,100,0,9,24.84,"ulm-talkingtree-willi-01-02",25,65536,"2026-04-20T08:17:02"],
    [1968,0,13.11,0,49,100,0,13,36.84,"ulm-talkingtree-maja-01-02",3,65536,"2026-04-20T08:30:37"],
    [1969,0,17.12,0,0,100,0,16,1.07,"ulm-talkingtree-friedl-01-02",0,65536,"2026-04-20T09:05:38"],
    [1970,0,11.52,0,39,100,0,15,24.84,"ulm-talkingtree-willi-01-02",25,65536,"2026-04-20T12:17:01"],
    [1971,0,12.8,0,49,100,0,15,36.68,"ulm-talkingtree-maja-01-02",3,65536,"2026-04-20T12:30:36"],
    [1972,0,18.24,0,0,100,0,18,1.05,"ulm-talkingtree-friedl-01-02",0,65536,"2026-04-20T13:05:37"],
    [1973,0,11.5,0,39,100,0,15,24.89,"ulm-talkingtree-willi-01-02",25,65536,"2026-04-20T16:16:59"],
    [1974,0,12.83,0,49,100,0,15,36.66,"ulm-talkingtree-maja-01-02",3,65536,"2026-04-20T16:30:35"],
    [1975,0,18.76,0,0,100,0,18,1.05,"ulm-talkingtree-friedl-01-02",0,65536,"2026-04-20T17:05:35"],
    [1976,0,13.07,0,48,100,0,9,36.5,"ulm-talkingtree-maja-01-02",3,65536,"2026-04-20T20:30:34"],
    [1977,0,11.67,0,39,100,0,8,24.89,"ulm-talkingtree-willi-01-02",25,65536,"2026-04-21T00:16:56"],
    [1978,0,17.54,0,0,100,0,17,1.07,"ulm-talkingtree-friedl-01-02",0,65536,"2026-04-21T01:05:33"],
    [1979,0,11.53,0,40,100,0,6,25.05,"ulm-talkingtree-willi-01-02",25,65536,"2026-04-21T04:16:55"],
    [1980,0,13.03,0,48,100,0,2,36.24,"ulm-talkingtree-maja-01-02",3,65536,"2026-04-21T04:30:32"],
    [1981,0,16.54,0,0,100,0,16,1.08,"ulm-talkingtree-friedl-01-02",0,65536,"2026-04-21T05:05:32"],
    [1982,0,11.24,0,40,100,0,8,25.02,"ulm-talkingtree-willi-01-02",25,65536,"2026-04-21T08:16:53"],
    [1983,0,12.75,0,48,100,0,11,36.18,"ulm-talkingtree-maja-01-02",3,65536,"2026-04-21T08:30:32"],
    [1984,0,15.02,0,0,100,0,14,1.09,"ulm-talkingtree-friedl-01-02",0,65536,"2026-04-21T09:05:31"],
    [1985,0,11.01,0,40,100,0,12,25.14,"ulm-talkingtree-willi-01-02",26,65536,"2026-04-21T12:16:52"],
    [1986,0,12.53,0,48,100,0,13,36.14,"ulm-talkingtree-maja-01-02",3,65536,"2026-04-21T12:30:30"],
    [1987,0,16.87,0,0,100,0,16,1.08,"ulm-talkingtree-friedl-01-02",0,65536,"2026-04-21T13:05:30"],
    [1988,0,10.95,0,40,100,0,13,25.08,"ulm-talkingtree-willi-01-02",26,65536,"2026-04-21T16:16:50"],
    [1989,0,12.43,0,48,100,0,12,35.95,"ulm-talkingtree-maja-01-02",3,65536,"2026-04-21T16:30:30"],
    [1990,0,17.34,0,0,100,0,17,1.07,"ulm-talkingtree-friedl-01-02",0,65536,"2026-04-21T17:05:29"],
    [1991,0,11.04,0,40,100,0,9,25.04,"ulm-talkingtree-willi-01-02",25,65536,"2026-04-21T20:16:48"],
    [1992,0,12.44,0,48,100,0,8,35.86,"ulm-talkingtree-maja-01-02",3,65536,"2026-04-21T20:30:29"],
    [1993,0,16.84,0,0,100,0,16,1.08,"ulm-talkingtree-friedl-01-02",0,65536,"2026-04-21T21:05:28"],
    [1994,0,12.36,0,48,100,0,4,35.75,"ulm-talkingtree-maja-01-02",3,65536,"2026-04-22T00:30:28"],
    [1995,0,10.85,0,40,100,0,5,25.08,"ulm-talkingtree-willi-01-02",26,65536,"2026-04-22T04:16:45"],
    [1996,0,12.18,0,48,100,0,3,35.74,"ulm-talkingtree-maja-01-02",3,65536,"2026-04-22T04:30:27"],
    [1997,0,14.15,0,0,100,0,14,1.1,"ulm-talkingtree-friedl-01-02",0,65536,"2026-04-22T05:05:25"],
    [1998,0,10.61,0,40,100,0,7,25.16,"ulm-talkingtree-willi-01-02",26,65536,"2026-04-22T08:16:44"],
    [1999,0,11.92,0,48,100,0,11,35.74,"ulm-talkingtree-maja-01-02",3,65536,"2026-04-22T08:30:26"],
    [2000,0,12.78,0,0,100,0,12,1.4,"ulm-talkingtree-friedl-01-02",0,65536,"2026-04-22T09:05:24"],
    [2001,0,10.4,0,40,100,0,19,25.01,"ulm-talkingtree-willi-01-02",26,65536,"2026-04-22T12:16:42"],
    [2002,0,11.72,0,48,100,0,19,36.18,"ulm-talkingtree-maja-01-02",3,65536,"2026-04-22T12:30:25"],
    [2003,0,10.53,0,39,100,0,16,24.84,"ulm-talkingtree-willi-01-02",26,65536,"2026-04-22T16:16:41"],
    [2004,0,11.94,0,48,100,0,19,35.93,"ulm-talkingtree-maja-01-02",3,65536,"2026-04-22T16:30:24"],
    [2005,0,17.56,0,0,100,0,17,1.07,"ulm-talkingtree-friedl-01-02",0,65536,"2026-04-22T17:05:22"],
    [2006,0,10.96,0,39,100,0,9,24.57,"ulm-talkingtree-willi-01-02",26,65536,"2026-04-22T20:16:39"],
    [2007,0,12.52,0,48,100,0,8,35.3,"ulm-talkingtree-maja-01-02",3,65536,"2026-04-22T20:30:23"],
    [2008,0,11.08,0,39,100,0,7,24.58,"ulm-talkingtree-willi-01-02",25,65536,"2026-04-23T00:16:38"],
    [2009,0,12.77,0,48,100,0,4,35.25,"ulm-talkingtree-maja-01-02",3,65536,"2026-04-23T00:30:22"],
    [2010,0,16.23,0,0,100,0,16,1.08,"ulm-talkingtree-friedl-01-02",0,65536,"2026-04-23T01:05:20"],
    [2011,0,10.96,0,39,100,0,6,24.51,"ulm-talkingtree-willi-01-02",26,65536,"2026-04-23T04:16:36"],
    [2012,0,12.74,0,48,100,0,2,35.27,"ulm-talkingtree-maja-01-02",3,65536,"2026-04-23T04:30:22"],
    [2013,0,13.8,0,0,100,0,14,1.11,"ulm-talkingtree-friedl-01-02",0,65536,"2026-04-23T05:05:19"],
    [2014,0,10.7,0,40,100,0,10,24.95,"ulm-talkingtree-willi-01-02",26,65536,"2026-04-23T08:16:35"],
    [2015,0,12.47,0,48,100,0,13,35.22,"ulm-talkingtree-maja-01-02",3,65536,"2026-04-23T08:30:21"],
    [2016,0,16.33,0,0,100,0,15,1.08,"ulm-talkingtree-friedl-01-02",0,65536,"2026-04-23T09:05:17"],
    [2017,0,12.25,0,48,100,0,22,35.23,"ulm-talkingtree-maja-01-02",3,65536,"2026-04-23T12:30:20"],
    [2018,0,18.79,0,0,100,0,18,1.05,"ulm-talkingtree-friedl-01-02",0,65536,"2026-04-23T13:05:16"],
    [2019,0,12.5,0,48,100,0,21,35.18,"ulm-talkingtree-maja-01-02",3,65536,"2026-04-23T16:30:19"],
    [2020,0,19.12,0,0,100,0,18,1.04,"ulm-talkingtree-friedl-01-02",0,65536,"2026-04-23T17:05:15"],
    [2021,0,11.33,0,39,100,0,12,24.23,"ulm-talkingtree-willi-01-02",25,65536,"2026-04-23T20:16:30"],
    [2022,0,18.19,0,0,100,0,18,1.05,"ulm-talkingtree-friedl-01-02",0,65536,"2026-04-23T21:05:14"],
    [2023,0,11.56,0,39,100,0,9,24.31,"ulm-talkingtree-willi-01-02",25,65536,"2026-04-24T00:16:28"],
    [2024,0,13.41,0,47,100,0,6,34.86,"ulm-talkingtree-maja-01-02",3,65536,"2026-04-24T00:30:17"],
    [2025,0,17.16,0,0,100,0,17,1.07,"ulm-talkingtree-friedl-01-02",0,65536,"2026-04-24T01:05:13"],
    [2026,0,11.47,0,39,100,0,7,24.07,"ulm-talkingtree-willi-01-02",25,65536,"2026-04-24T04:16:27"],
    [2027,0,13.37,0,47,100,0,3,34.65,"ulm-talkingtree-maja-01-02",3,65536,"2026-04-24T04:30:16"],
    [2028,0,16.23,0,0,100,0,16,1.08,"ulm-talkingtree-friedl-01-02",0,65536,"2026-04-24T05:05:12"],
    [2029,0,11.23,0,39,100,0,11,24.07,"ulm-talkingtree-willi-01-02",25,65536,"2026-04-24T08:16:25"],
    [2030,0,13.12,0,47,100,0,13,34.59,"ulm-talkingtree-maja-01-02",3,65536,"2026-04-24T08:30:15"],
    [2031,0,17.7,0,0,100,0,17,1.07,"ulm-talkingtree-friedl-01-02",0,65536,"2026-04-24T09:05:11"],
    [2032,0,11.06,0,39,100,0,21,23.96,"ulm-talkingtree-willi-01-02",25,65536,"2026-04-24T12:16:24"],
    [2033,0,12.9,0,47,100,0,21,34.56,"ulm-talkingtree-maja-01-02",3,65536,"2026-04-24T12:30:15"],
    [2034,0,19.84,0,0,100,0,19,1.04,"ulm-talkingtree-friedl-01-02",0,65536,"2026-04-24T13:05:09"],
    [2035,0,11.3,0,39,100,0,20,24.01,"ulm-talkingtree-willi-01-02",25,65536,"2026-04-24T16:16:22"],
    [2036,0,13.11,0,47,100,0,21,34.62,"ulm-talkingtree-maja-01-02",3,65536,"2026-04-24T16:30:14"],
    [2037,0,19.94,0,0,100,0,19,1.04,"ulm-talkingtree-friedl-01-02",0,65536,"2026-04-24T17:05:08"],
    [2038,0,11.78,0,38,100,0,12,23.66,"ulm-talkingtree-willi-01-02",25,65536,"2026-04-24T20:16:20"],
    [2039,0,13.61,0,47,100,0,10,34.43,"ulm-talkingtree-maja-01-02",3,65536,"2026-04-24T20:30:13"],
    [2040,0,11.97,0,38,100,0,9,23.32,"ulm-talkingtree-willi-01-02",25,65536,"2026-04-25T00:16:19"],
    [2041,0,17.02,0,0,100,0,16,1.07,"ulm-talkingtree-friedl-01-02",0,65536,"2026-04-25T01:05:06"],
    [2042,0,11.87,0,38,100,0,7,23.35,"ulm-talkingtree-willi-01-02",25,65536,"2026-04-25T04:16:17"],
    [2043,0,16.03,0,0,100,0,15,1.08,"ulm-talkingtree-friedl-01-02",0,65536,"2026-04-25T05:05:05"],
    [2044,0,11.6,0,38,100,0,12,23.33,"ulm-talkingtree-willi-01-02",25,65536,"2026-04-25T08:16:16"],
    [2045,0,13.53,0,47,100,0,15,34.15,"ulm-talkingtree-maja-01-02",3,65536,"2026-04-25T08:30:10"],
    [2046,0,17.83,0,0,100,0,17,1.07,"ulm-talkingtree-friedl-01-02",0,65536,"2026-04-25T09:05:04"],
    [2047,0,11.45,0,38,100,0,22,23.2,"ulm-talkingtree-willi-01-02",25,65536,"2026-04-25T12:16:14"],
    [2048,0,13.3,0,47,100,0,23,34.2,"ulm-talkingtree-maja-01-02",3,65536,"2026-04-25T12:30:09"],
    [2049,0,19.92,0,0,100,0,19,1.04,"ulm-talkingtree-friedl-01-02",0,65536,"2026-04-25T13:05:03"],
    [2050,0,11.68,0,38,100,0,20,23.16,"ulm-talkingtree-willi-01-02",25,65536,"2026-04-25T16:16:13"],
    [2051,0,13.51,0,47,100,0,22,34.16,"ulm-talkingtree-maja-01-02",3,65536,"2026-04-25T16:30:08"],
    [2052,0,20.19,0,0,100,0,20,1.04,"ulm-talkingtree-friedl-01-02",0,65536,"2026-04-25T17:05:01"],
    [2053,0,12.2,0,37,100,0,13,22.97,"ulm-talkingtree-willi-01-02",25,65536,"2026-04-25T20:16:11"],
    [2054,0,14.01,0,47,100,0,12,34.03,"ulm-talkingtree-maja-01-02",3,65536,"2026-04-25T20:30:07"],
    [2055,0,12.38,0,37,100,0,10,22.79,"ulm-talkingtree-willi-01-02",25,65536,"2026-04-26T00:16:10"],
    [2056,0,14.24,0,47,100,0,6,33.86,"ulm-talkingtree-maja-01-02",3,65536,"2026-04-26T00:30:06"],
    [2057,0,17.35,0,0,100,0,17,1.07,"ulm-talkingtree-friedl-01-02",0,65536,"2026-04-26T01:04:59"],
    [2058,0,12.27,0,37,100,0,8,22.83,"ulm-talkingtree-willi-01-02",25,65536,"2026-04-26T04:16:08"],
    [2059,0,14.19,0,47,100,0,4,33.75,"ulm-talkingtree-maja-01-02",3,65536,"2026-04-26T04:30:05"],
    [2060,0,16.27,0,0,100,0,16,1.08,"ulm-talkingtree-friedl-01-02",0,65536,"2026-04-26T05:04:58"],
    [2061,0,12.04,0,37,100,0,12,22.91,"ulm-talkingtree-willi-01-02",25,65536,"2026-04-26T08:16:06"],
    [2062,0,13.95,0,47,100,0,15,33.75,"ulm-talkingtree-maja-01-02",3,65536,"2026-04-26T08:30:05"],
    [2063,0,18.04,0,0,100,0,17,1.05,"ulm-talkingtree-friedl-01-02",0,65536,"2026-04-26T09:04:57"],
    [2064,0,11.87,0,36,100,0,19,21.87,"ulm-talkingtree-willi-01-02",25,65536,"2026-04-26T12:16:05"],
    [2065,0,13.69,0,47,100,0,23,33.79,"ulm-talkingtree-maja-01-02",3,65536,"2026-04-26T12:30:04"],
    [2066,0,19.54,0,0,100,0,19,1.04,"ulm-talkingtree-friedl-01-02",0,65536,"2026-04-26T13:04:56"],
    [2067,0,11.98,0,36,100,0,18,21.78,"ulm-talkingtree-willi-01-02",25,65536,"2026-04-26T16:16:03"],
    [2068,0,13.83,0,47,100,0,21,33.7,"ulm-talkingtree-maja-01-02",3,65536,"2026-04-26T16:30:03"],
    [2069,0,19.82,0,0,100,0,19,1.04,"ulm-talkingtree-friedl-01-02",0,65536,"2026-04-26T17:04:55"],
    [2070,0,12.3,0,36,100,0,12,21.44,"ulm-talkingtree-willi-01-02",25,65536,"2026-04-26T20:16:02"],
    [2071,0,14.18,0,47,100,0,12,33.57,"ulm-talkingtree-maja-01-02",3,65536,"2026-04-26T20:30:02"],
    [2072,0,18.91,0,0,100,0,18,1.05,"ulm-talkingtree-friedl-01-02",0,65536,"2026-04-26T21:04:53"],
    [2073,0,12.41,0,36,100,0,10,21.34,"ulm-talkingtree-willi-01-02",25,65536,"2026-04-27T00:16:00"],
    [2074,0,14.31,0,46,100,0,8,33.41,"ulm-talkingtree-maja-01-02",3,65536,"2026-04-27T00:30:01"],
    [2075,0,17.7,0,0,100,0,17,1.07,"ulm-talkingtree-friedl-01-02",0,65536,"2026-04-27T01:04:52"],
    [2076,0,12.29,0,36,100,0,8,21.39,"ulm-talkingtree-willi-01-02",25,65536,"2026-04-27T04:15:58"],
    [2077,0,14.24,0,46,100,0,5,33.49,"ulm-talkingtree-maja-01-02",3,65536,"2026-04-27T04:30:00"],
    [2078,0,16.57,0,0,100,0,16,1.08,"ulm-talkingtree-friedl-01-02",0,65536,"2026-04-27T05:04:51"],
    [2079,0,12.04,0,36,100,0,12,21.46,"ulm-talkingtree-willi-01-02",25,65536,"2026-04-27T08:15:57"],
    [2080,0,13.99,0,46,100,0,14,33.39,"ulm-talkingtree-maja-01-02",3,65536,"2026-04-27T08:29:59"],
    [2081,0,17.67,0,0,100,0,17,1.07,"ulm-talkingtree-friedl-01-02",0,65536,"2026-04-27T09:04:50"],
    [2082,0,11.88,0,37,100,0,19,22.41,"ulm-talkingtree-willi-01-02",25,65536,"2026-04-27T12:15:55"],
    [2083,0,13.82,0,46,100,0,21,33.39,"ulm-talkingtree-maja-01-02",3,65536,"2026-04-27T12:29:58"],
    [2084,0,19.81,0,0,100,0,19,1.04,"ulm-talkingtree-friedl-01-02",0,65536,"2026-04-27T13:04:49"],
    [2085,0,12.04,0,37,100,0,20,22.22,"ulm-talkingtree-willi-01-02",25,65536,"2026-04-27T16:15:54"],
    [2086,0,13.91,0,46,100,0,23,33.36,"ulm-talkingtree-maja-01-02",3,65536,"2026-04-27T16:29:57"],
    [2087,0,20.09,0,0,100,0,19,1.04,"ulm-talkingtree-friedl-01-02",0,65536,"2026-04-27T17:04:48"],
    [2088,0,12.48,0,38,100,0,13,23.24,"ulm-talkingtree-willi-01-02",25,65536,"2026-04-27T20:15:52"],
    [2089,0,14.25,0,46,100,0,12,33.23,"ulm-talkingtree-maja-01-02",3,65536,"2026-04-27T20:29:56"],
    [2090,0,18.95,0,0,100,0,18,1.05,"ulm-talkingtree-friedl-01-02",0,65536,"2026-04-27T21:04:47"],
    [2091,0,12.68,0,36,100,0,11,21.45,"ulm-talkingtree-willi-01-02",24,65536,"2026-04-28T00:15:51"],
    [2092,0,14.41,0,46,100,0,8,33.18,"ulm-talkingtree-maja-01-02",3,65536,"2026-04-28T00:29:55"],
    [2093,0,17.92,0,0,100,0,17,1.07,"ulm-talkingtree-friedl-01-02",0,65536,"2026-04-28T01:04:45"],
    [2094,0,12.61,0,36,100,0,9,21.34,"ulm-talkingtree-willi-01-02",24,65536,"2026-04-28T04:15:49"],
    [2095,0,14.35,0,46,100,0,7,32.99,"ulm-talkingtree-maja-01-02",3,65536,"2026-04-28T04:29:54"],
    [2096,0,12.38,0,36,100,0,13,21.44,"ulm-talkingtree-willi-01-02",25,65536,"2026-04-28T08:15:48"],
    [2097,0,14.15,0,46,100,0,15,32.79,"ulm-talkingtree-maja-01-02",3,65536,"2026-04-28T08:29:53"],
    [2098,0,0,0,0,100,0,14,0,"ulm-talkingtree-friedl-01-02",0,65536,"2026-04-28T09:04:43"],
    [2099,0,12.25,0,36,100,0,19,21.38,"ulm-talkingtree-willi-01-02",25,65536,"2026-04-28T12:15:46"],
    [2100,0,13.37,0,3,99,0,17,3,"ulm-talkingtree-merle-01-02",0,65536,"2026-04-28T12:17:29"],
    [2101,0,13.97,0,46,100,0,21,32.97,"ulm-talkingtree-maja-01-02",3,65536,"2026-04-28T12:29:52"],
    [2102,0,0,0,0,100,0,26,0,"ulm-talkingtree-friedl-01-02",0,65536,"2026-04-28T13:04:42"],
    [2103,0,12.37,0,36,100,0,20,21.22,"ulm-talkingtree-willi-01-02",25,65536,"2026-04-28T16:15:45"],
    [2104,0,15.83,0,43,99,0,17,28.6,"ulm-talkingtree-manni-01-02",0,65536,"2026-04-28T16:19:17"],
    [2105,0,14.04,0,46,100,0,22,32.87,"ulm-talkingtree-maja-01-02",3,65536,"2026-04-28T16:29:51"],
    [2106,0,0,0,0,100,0,18,0,"ulm-talkingtree-friedl-01-02",0,65536,"2026-04-28T17:04:41"],
    [2107,0,12.8,0,35,100,0,14,21.04,"ulm-talkingtree-willi-01-02",24,65536,"2026-04-28T20:15:43"],
    [2108,0,11.98,0,5,99,0,14,3.82,"ulm-talkingtree-merle-01-02",0,65536,"2026-04-28T20:17:27"],
    [2109,0,14.5,0,43,99,0,14,28.74,"ulm-talkingtree-manni-01-02",0,65536,"2026-04-28T20:19:16"],
    [2110,0,14.28,0,46,100,0,14,32.74,"ulm-talkingtree-maja-01-02",3,65536,"2026-04-28T20:29:51"],
    [2111,0,12.99,0,35,100,0,12,21.03,"ulm-talkingtree-willi-01-02",24,65536,"2026-04-29T00:15:41"],
    [2112,0,11.87,0,5,99,0,12,3.86,"ulm-talkingtree-merle-01-02",0,65536,"2026-04-29T00:17:26"],
    [2113,0,14.08,0,43,99,0,12,28.97,"ulm-talkingtree-manni-01-02",0,65536,"2026-04-29T00:19:15"],
    [2114,0,14.45,0,46,100,0,12,32.64,"ulm-talkingtree-maja-01-02",3,65536,"2026-04-29T00:29:50"],
    [2115,0,0,0,0,100,0,11,0,"ulm-talkingtree-friedl-01-02",0,65536,"2026-04-29T01:04:39"],
    [2116,0,12.95,0,35,100,0,10,20.97,"ulm-talkingtree-willi-01-02",24,65536,"2026-04-29T04:15:40"],
    [2117,0,11.85,0,5,99,0,10,3.92,"ulm-talkingtree-merle-01-02",0,65536,"2026-04-29T04:17:24"],
    [2118,0,13.76,0,43,99,0,10,28.78,"ulm-talkingtree-manni-01-02",0,65536,"2026-04-29T04:19:13"],
    [2119,0,0,0,0,100,0,9,0,"ulm-talkingtree-friedl-01-02",0,65536,"2026-04-29T05:04:38"],
    [2120,0,11.75,0,5,100,0,11,3.9,"ulm-talkingtree-merle-01-02",0,65536,"2026-04-29T08:17:23"],
    [2121,0,13.5,0,44,100,0,13,29.62,"ulm-talkingtree-manni-01-02",0,65536,"2026-04-29T08:19:12"],
    [2122,0,14.28,0,46,100,0,14,32.57,"ulm-talkingtree-maja-01-02",3,65536,"2026-04-29T08:29:48"],
    [2123,0,12.24,0,30,100,0,13,17.19,"ulm-talkingtree-troeti-01-02",3,65536,"2026-04-29T08:58:43"],
    [2124,0,12.62,0,28,99,0,10,15.89,"ulm-schwambergerstr-03-02",3,65536,"2026-04-29T10:10:19"],
    [2125,0,12.18,0,41,99,0,10,26.42,"ulm-schwambergerstr-02-02",3,65536,"2026-04-29T11:01:38"],
    [2126,0,12.64,0,35,100,0,17,20.87,"ulm-talkingtree-willi-01-02",24,65536,"2026-04-29T12:15:36"],
    [2127,0,11.65,0,5,100,0,17,4.03,"ulm-talkingtree-merle-01-02",0,65536,"2026-04-29T12:17:21"],
    [2128,0,13.5,0,44,99,0,32,29.85,"ulm-talkingtree-manni-01-02",0,65536,"2026-04-29T12:19:11"],
    [2129,0,14.14,0,46,100,0,19,32.63,"ulm-talkingtree-maja-01-02",3,65536,"2026-04-29T12:29:47"],
    [2130,0,12.42,0,30,100,0,21,17.04,"ulm-talkingtree-troeti-01-02",3,65536,"2026-04-29T12:58:42"],
    [2131,0,19.12,0,47,99,0,30,33.66,"ulm-hafenbad-01-02",3,65536,"2026-04-29T13:01:12"],
    [2132,0,0,0,0,100,0,28,0,"ulm-talkingtree-friedl-01-02",0,65536,"2026-04-29T13:04:36"],
    [2133,0,15.19,0,31,98,0,24,18.02,"ulm-schwambergerstr-01-02",3,65536,"2026-04-29T13:33:55"],
    [2134,0,12.75,0,29,99,0,17,16.04,"ulm-schwambergerstr-03-02",3,65536,"2026-04-29T14:10:17"],
    [2135,0,12.53,0,42,99,0,14,27.1,"ulm-schwambergerstr-02-02",3,65536,"2026-04-29T15:01:37"],
    [2136,0,12.68,0,35,100,0,18,20.78,"ulm-talkingtree-willi-01-02",24,65536,"2026-04-29T16:15:35"],
    [2137,0,11.65,0,5,99,0,17,4.01,"ulm-talkingtree-merle-01-02",0,65536,"2026-04-29T16:17:20"],
    [2138,0,13.87,0,44,99,0,19,29.92,"ulm-talkingtree-manni-01-02",0,65536,"2026-04-29T16:19:10"],
    [2139,0,14.25,0,46,100,0,22,32.5,"ulm-talkingtree-maja-01-02",3,65536,"2026-04-29T16:29:46"],
    [2140,0,12.58,0,30,100,0,16,17.02,"ulm-talkingtree-troeti-01-02",3,65536,"2026-04-29T16:58:40"],
    [2141,0,20.04,0,47,98,0,21,33.99,"ulm-hafenbad-01-02",3,65536,"2026-04-29T17:01:11"],
    [2142,0,0,0,0,100,0,18,0,"ulm-talkingtree-friedl-01-02",0,65536,"2026-04-29T17:04:35"],
    [2143,0,15.6,0,32,98,0,20,18.12,"ulm-schwambergerstr-01-02",3,65536,"2026-04-29T17:33:54"],
    [2144,0,12.87,0,29,99,0,14,16.06,"ulm-schwambergerstr-03-02",3,65536,"2026-04-29T18:10:16"],
    [2145,0,12.75,0,42,99,0,12,27.85,"ulm-schwambergerstr-02-02",3,65536,"2026-04-29T19:01:36"],
    [2146,0,12.98,0,35,100,0,12,20.6,"ulm-talkingtree-willi-01-02",24,65536,"2026-04-29T20:15:33"],
    [2147,0,11.82,0,5,99,0,12,4.03,"ulm-talkingtree-merle-01-02",0,65536,"2026-04-29T20:17:19"],
    [2148,0,14.08,0,44,100,0,13,30.6,"ulm-talkingtree-manni-01-02",0,65536,"2026-04-29T20:19:08"],
    [2149,0,14.55,0,46,100,0,11,32.33,"ulm-talkingtree-maja-01-02",3,65536,"2026-04-29T20:29:45"],
    [2150,0,12.68,0,30,100,0,12,17.09,"ulm-talkingtree-troeti-01-02",3,65536,"2026-04-29T20:58:39"],
    [2151,0,21.15,0,47,99,0,14,33.82,"ulm-hafenbad-01-02",3,65536,"2026-04-29T21:01:09"],
    [2152,0,13.11,0,29,99,0,10,16.03,"ulm-schwambergerstr-03-02",3,65536,"2026-04-29T22:10:15"],
    [2153,0,13.04,0,43,99,0,10,28.73,"ulm-schwambergerstr-02-02",3,65536,"2026-04-29T23:01:34"],
    [2154,0,13.05,0,35,100,0,9,20.57,"ulm-talkingtree-willi-01-02",24,65536,"2026-04-30T00:15:32"],
    [2155,0,13.98,0,44,99,0,10,30.42,"ulm-talkingtree-manni-01-02",0,65536,"2026-04-30T00:19:07"],
    [2156,0,14.67,0,46,100,0,7,32.25,"ulm-talkingtree-maja-01-02",3,65536,"2026-04-30T00:29:44"],
    [2157,0,12.71,0,30,100,0,9,17.1,"ulm-talkingtree-troeti-01-02",3,65536,"2026-04-30T00:58:37"],
    [2158,0,21.6,0,47,100,0,10,34.16,"ulm-hafenbad-01-02",2,65536,"2026-04-30T01:01:08"],
    [2159,0,13.06,0,44,99,0,8,29.75,"ulm-schwambergerstr-02-02",3,65536,"2026-04-30T03:01:33"],
    [2160,0,12.86,0,35,100,0,7,20.51,"ulm-talkingtree-willi-01-02",24,65536,"2026-04-30T04:15:30"],
    [2161,0,11.94,0,5,100,0,8,3.98,"ulm-talkingtree-merle-01-02",0,65536,"2026-04-30T04:17:16"],
    [2162,0,13.66,0,45,100,0,7,30.85,"ulm-talkingtree-manni-01-02",0,65536,"2026-04-30T04:19:06"],
    [2163,0,14.54,0,45,100,0,5,32.07,"ulm-talkingtree-maja-01-02",3,65536,"2026-04-30T04:29:43"],
    [2164,0,12.6,0,31,100,0,8,17.34,"ulm-talkingtree-troeti-01-02",3,65536,"2026-04-30T04:58:36"],
    [2165,0,21.43,0,47,100,0,8,34.74,"ulm-hafenbad-01-02",3,65536,"2026-04-30T05:01:07"],
    [2166,0,0,0,0,100,0,6,0,"ulm-talkingtree-friedl-01-02",0,65536,"2026-04-30T05:04:31"],
    [2167,0,15.65,0,33,99,0,7,18.79,"ulm-schwambergerstr-01-02",3,65536,"2026-04-30T05:33:51"],
    [2168,0,13.16,0,29,99,0,7,16.04,"ulm-schwambergerstr-03-02",3,65536,"2026-04-30T06:10:12"],
    [2169,0,12.88,0,44,100,0,7,30.68,"ulm-schwambergerstr-02-02",3,65536,"2026-04-30T07:01:32"],
    [2170,0,12.53,0,35,100,0,10,20.41,"ulm-talkingtree-willi-01-02",3,65536,"2026-04-30T08:15:29"],
    [2171,0,11.78,0,5,100,0,9,4.03,"ulm-talkingtree-merle-01-02",0,65536,"2026-04-30T08:17:15"],
    [2172,0,13.29,0,45,100,0,11,31.02,"ulm-talkingtree-manni-01-02",0,65536,"2026-04-30T08:19:05"],
    [2173,0,12.52,0,31,100,0,11,17.52,"ulm-talkingtree-troeti-01-02",3,65536,"2026-04-30T08:58:34"],
    [2174,0,20.94,0,47,100,0,10,34.97,"ulm-hafenbad-01-02",3,65536,"2026-04-30T09:01:05"],
    [2175,0,0,0,0,100,0,13,0,"ulm-talkingtree-friedl-01-02",0,65536,"2026-04-30T09:04:30"],
    [2176,0,15.3,0,33,99,0,18,19.43,"ulm-schwambergerstr-01-02",3,65536,"2026-04-30T09:33:50"],
    [2177,0,12.93,0,29,99,0,9,16.27,"ulm-schwambergerstr-03-02",3,65536,"2026-04-30T10:10:11"],
    [2178,0,12.27,0,35,100,0,14,20.51,"ulm-talkingtree-willi-01-02",3,65536,"2026-04-30T12:15:27"],
    [2179,0,11.68,0,5,100,0,14,4.07,"ulm-talkingtree-merle-01-02",0,65536,"2026-04-30T12:17:13"],
    [2180,0,13.34,0,45,99,0,31,30.84,"ulm-talkingtree-manni-01-02",0,65536,"2026-04-30T12:19:04"],
    [2181,0,12.58,0,31,100,0,18,17.62,"ulm-talkingtree-troeti-01-02",3,65536,"2026-04-30T12:58:33"],
    [2182,0,20.39,0,48,99,0,29,35.14,"ulm-hafenbad-01-02",3,65536,"2026-04-30T13:01:04"],
    [2183,0,12.67,0,30,99,0,17,16.74,"ulm-schwambergerstr-03-02",3,65536,"2026-04-30T14:10:10"],
    [2184,0,12.34,0,46,99,0,13,32.59,"ulm-schwambergerstr-02-02",3,65536,"2026-04-30T15:01:30"],
    [2185,0,12.24,0,35,100,0,16,20.39,"ulm-talkingtree-willi-01-02",3,65536,"2026-04-30T16:15:26"],
    [2186,0,11.63,0,5,100,0,15,4.12,"ulm-talkingtree-merle-01-02",0,65536,"2026-04-30T16:17:12"],
    [2187,0,13.73,0,45,100,0,18,30.88,"ulm-talkingtree-manni-01-02",0,65536,"2026-04-30T16:19:02"],
    [2188,0,14.04,0,45,100,0,20,32.12,"ulm-talkingtree-maja-01-02",3,65536,"2026-04-30T16:29:40"],
    [2189,0,20.39,0,47,99,0,21,34.84,"ulm-hafenbad-01-02",3,65536,"2026-04-30T17:01:02"],
    [2190,0,15.55,0,34,99,0,19,19.62,"ulm-schwambergerstr-01-02",3,65536,"2026-04-30T17:33:48"],
    [2191,0,12.64,0,30,99,0,13,17.12,"ulm-schwambergerstr-03-02",3,65536,"2026-04-30T18:10:08"],
    [2192,0,12.33,0,46,99,0,12,33.16,"ulm-schwambergerstr-02-02",3,65536,"2026-04-30T19:01:29"],
    [2193,0,12.45,0,34,100,0,11,20.2,"ulm-talkingtree-willi-01-02",3,65536,"2026-04-30T20:15:24"],
    [2194,0,11.72,0,5,100,0,11,4.08,"ulm-talkingtree-merle-01-02",0,65536,"2026-04-30T20:17:10"],
    [2195,0,14.25,0,45,100,0,10,31.93,"ulm-talkingtree-maja-01-02",3,65536,"2026-04-30T20:29:39"],
    [2196,0,12.63,0,31,100,0,9,17.77,"ulm-talkingtree-troeti-01-02",3,65536,"2026-04-30T20:58:30"],
    [2197,0,21.16,0,47,100,0,14,34.9,"ulm-hafenbad-01-02",3,65536,"2026-04-30T21:01:01"],
    [2198,0,0,0,0,100,0,10,0,"ulm-talkingtree-friedl-01-02",0,65536,"2026-04-30T21:04:27"],
    [2199,0,15.95,0,33,99,0,12,19.45,"ulm-schwambergerstr-01-02",3,65536,"2026-04-30T21:33:47"],
    [2200,0,12.8,0,30,99,0,10,16.79,"ulm-schwambergerstr-03-02",3,65536,"2026-04-30T22:10:07"],
    [2201,0,12.57,0,46,100,0,10,33.46,"ulm-schwambergerstr-02-02",3,65536,"2026-04-30T23:01:27"],
    [2202,0,12.49,0,34,100,0,8,20.11,"ulm-talkingtree-willi-01-02",3,65536,"2026-05-01T00:15:22"],
    [2203,0,11.83,0,5,100,0,9,4.03,"ulm-talkingtree-merle-01-02",0,65536,"2026-05-01T00:17:09"],
    [2204,0,13.83,0,44,100,0,10,30.52,"ulm-talkingtree-manni-01-02",0,65536,"2026-05-01T00:19:00"],
    [2205,0,14.33,0,45,100,0,7,31.95,"ulm-talkingtree-maja-01-02",3,65536,"2026-05-01T00:29:39"],
    [2206,0,12.48,0,31,100,0,7,17.96,"ulm-talkingtree-troeti-01-02",3,65536,"2026-05-01T00:58:28"],
    [2207,0,21.52,0,47,100,0,11,35.03,"ulm-hafenbad-01-02",2,65536,"2026-05-01T01:01:00"],
    [2208,0,0,0,0,100,0,7,0,"ulm-talkingtree-friedl-01-02",0,65536,"2026-05-01T01:04:26"],
    [2209,0,15.89,0,34,99,0,9,19.56,"ulm-schwambergerstr-01-02",3,65536,"2026-05-01T01:33:46"],
    [2210,0,12.89,0,30,99,0,8,16.77,"ulm-schwambergerstr-03-02",3,65536,"2026-05-01T02:10:06"],
    [2211,0,12.65,0,47,100,0,8,33.81,"ulm-schwambergerstr-02-02",3,65536,"2026-05-01T03:01:26"],
    [2212,0,12.33,0,34,100,0,6,20.15,"ulm-talkingtree-willi-01-02",3,65536,"2026-05-01T04:15:21"],
    [2213,0,11.76,0,5,100,0,7,4.1,"ulm-talkingtree-merle-01-02",0,65536,"2026-05-01T04:17:08"],
    [2214,0,13.55,0,44,100,0,8,30.4,"ulm-talkingtree-manni-01-02",0,65536,"2026-05-01T04:18:59"],
    [2215,0,14.21,0,45,100,0,5,31.86,"ulm-talkingtree-maja-01-02",3,65536,"2026-05-01T04:29:38"],
    [2216,0,12.32,0,32,100,0,7,18.29,"ulm-talkingtree-troeti-01-02",3,65536,"2026-05-01T04:58:27"],
    [2217,0,21.39,0,48,100,0,8,35.25,"ulm-hafenbad-01-02",3,65536,"2026-05-01T05:00:58"],
    [2218,0,0,0,0,100,0,6,0,"ulm-talkingtree-friedl-01-02",0,65536,"2026-05-01T05:04:25"],
    [2219,0,12.83,0,30,100,0,7,16.73,"ulm-schwambergerstr-03-02",3,65536,"2026-05-01T06:10:04"],
    [2220,0,12.51,0,47,100,0,7,34.27,"ulm-schwambergerstr-02-02",3,65536,"2026-05-01T07:01:25"],
    [2221,0,12.07,0,34,100,0,10,20.14,"ulm-talkingtree-willi-01-02",3,65536,"2026-05-01T08:15:19"],
    [2222,0,13.25,0,45,100,0,12,30.92,"ulm-talkingtree-manni-01-02",0,65536,"2026-05-01T08:18:58"],
    [2223,0,13.98,0,45,100,0,13,31.82,"ulm-talkingtree-maja-01-02",3,65536,"2026-05-01T08:29:37"],
    [2224,0,20.96,0,48,100,0,12,35.81,"ulm-hafenbad-01-02",3,65536,"2026-05-01T09:00:57"],
    [2225,0,0,0,0,100,0,14,0,"ulm-talkingtree-friedl-01-02",0,65536,"2026-05-01T09:04:24"],
    [2226,0,12.65,0,30,100,0,11,16.99,"ulm-schwambergerstr-03-02",3,65536,"2026-05-01T10:10:03"],
    [2227,0,12.3,0,47,99,0,10,34.52,"ulm-schwambergerstr-02-02",3,65536,"2026-05-01T11:01:24"],
    [2228,0,11.86,0,32,100,0,15,18.71,"ulm-talkingtree-willi-01-02",3,65536,"2026-05-01T12:15:18"],
    [2229,0,11.55,0,6,100,0,16,4.27,"ulm-talkingtree-merle-01-02",0,65536,"2026-05-01T12:17:05"],
    [2230,0,13.33,0,44,100,0,33,30.43,"ulm-talkingtree-manni-01-02",0,65536,"2026-05-01T12:18:57"],
    [2231,0,20.53,0,48,99,0,31,35.98,"ulm-hafenbad-01-02",3,65536,"2026-05-01T13:00:55"],
    [2232,0,15.25,0,34,99,0,27,20.31,"ulm-schwambergerstr-01-02",3,65536,"2026-05-01T13:33:43"],
    [2233,0,12.5,0,30,99,0,20,17.08,"ulm-schwambergerstr-03-02",3,65536,"2026-05-01T14:10:02"],
    [2234,0,12.18,0,47,99,0,16,34.84,"ulm-schwambergerstr-02-02",3,65536,"2026-05-01T15:01:23"],
    [2235,0,13.81,0,44,99,0,21,30.38,"ulm-talkingtree-manni-01-02",0,65536,"2026-05-01T16:18:55"],
    [2236,0,13.86,0,45,100,0,26,31.85,"ulm-talkingtree-maja-01-02",3,65536,"2026-05-01T16:29:35"],
    [2237,0,12.41,0,33,100,0,15,18.89,"ulm-talkingtree-troeti-01-02",3,65536,"2026-05-01T16:58:22"],
    [2238,0,0,0,0,100,0,21,0,"ulm-talkingtree-friedl-01-02",0,65536,"2026-05-01T17:04:22"],
    [2239,0,12.57,0,30,99,0,16,17.11,"ulm-schwambergerstr-03-02",3,65536,"2026-05-01T18:10:01"],
    [2240,0,12.37,0,47,99,0,15,34.82,"ulm-schwambergerstr-02-02",3,65536,"2026-05-01T19:01:21"],
    [2241,0,12.23,0,32,100,0,13,18.21,"ulm-talkingtree-willi-01-02",3,65536,"2026-05-01T20:15:15"],
    [2242,0,11.73,0,5,100,0,14,4.07,"ulm-talkingtree-merle-01-02",0,65536,"2026-05-01T20:17:02"],
    [2243,0,14.16,0,44,100,0,15,30.38,"ulm-talkingtree-manni-01-02",0,65536,"2026-05-01T20:18:54"],
    [2244,0,14.19,0,45,100,0,13,31.63,"ulm-talkingtree-maja-01-02",3,65536,"2026-05-01T20:29:34"],
    [2245,0,12.51,0,33,100,0,12,18.98,"ulm-talkingtree-troeti-01-02",3,65536,"2026-05-01T20:58:20"],
    [2246,0,21.74,0,49,99,0,16,36.84,"ulm-hafenbad-01-02",2,65536,"2026-05-01T21:00:52"],
    [2247,0,16.35,0,34,99,0,17,19.69,"ulm-schwambergerstr-01-02",3,65536,"2026-05-01T21:33:41"],
    [2248,0,12.95,0,30,99,0,13,16.89,"ulm-schwambergerstr-03-02",3,65536,"2026-05-01T22:09:59"],
    [2249,0,12.88,0,47,99,0,12,34.84,"ulm-schwambergerstr-02-02",3,65536,"2026-05-01T23:01:20"],
    [2250,0,12.44,0,31,100,0,11,18,"ulm-talkingtree-willi-01-02",3,65536,"2026-05-02T00:15:13"],
    [2251,0,11.89,0,5,100,0,11,4.04,"ulm-talkingtree-merle-01-02",0,65536,"2026-05-02T00:17:01"],
    [2252,0,14.2,0,45,100,0,12,31.81,"ulm-talkingtree-manni-01-02",0,65536,"2026-05-02T00:18:53"],
    [2253,0,14.4,0,45,100,0,9,31.52,"ulm-talkingtree-maja-01-02",3,65536,"2026-05-02T00:29:33"],
    [2254,0,12.59,0,33,100,0,10,19.23,"ulm-talkingtree-troeti-01-02",3,65536,"2026-05-02T00:58:19"],
    [2255,0,22.39,0,48,100,0,12,36.21,"ulm-hafenbad-01-02",2,65536,"2026-05-02T01:00:51"],
    [2256,0,0,0,0,100,0,9,0,"ulm-talkingtree-friedl-01-02",0,65536,"2026-05-02T01:04:20"],
    [2257,0,13.24,0,30,100,0,10,16.75,"ulm-schwambergerstr-03-02",3,65536,"2026-05-02T02:09:58"],
    [2258,0,13.15,0,47,100,0,10,34.91,"ulm-schwambergerstr-02-02",3,65536,"2026-05-02T03:01:19"],
    [2259,0,12.42,0,31,100,0,9,18.01,"ulm-talkingtree-willi-01-02",3,65536,"2026-05-02T04:15:11"],
    [2260,0,11.97,0,5,100,0,9,4.02,"ulm-talkingtree-merle-01-02",0,65536,"2026-05-02T04:17:00"],
    [2261,0,14.04,0,46,100,0,9,32.33,"ulm-talkingtree-manni-01-02",0,65536,"2026-05-02T04:18:52"],
    [2262,0,14.39,0,45,100,0,6,31.38,"ulm-talkingtree-maja-01-02",3,65536,"2026-05-02T04:29:32"],
    [2263,0,12.57,0,33,100,0,9,19.41,"ulm-talkingtree-troeti-01-02",3,65536,"2026-05-02T04:58:17"],
    [2264,0,22.41,0,48,100,0,10,36.28,"ulm-hafenbad-01-02",2,65536,"2026-05-02T05:00:49"],
    [2265,0,0,0,0,100,0,7,0,"ulm-talkingtree-friedl-01-02",0,65536,"2026-05-02T05:04:19"],
    [2266,0,16.64,0,34,99,0,12,19.78,"ulm-schwambergerstr-01-02",3,65536,"2026-05-02T05:33:39"],
    [2267,0,13.28,0,30,100,0,10,16.66,"ulm-schwambergerstr-03-02",3,65536,"2026-05-02T06:09:57"],
    [2268,0,13.15,0,47,100,0,10,35.05,"ulm-schwambergerstr-02-02",3,65536,"2026-05-02T07:01:18"],
    [2269,0,12.27,0,32,100,0,12,18.12,"ulm-talkingtree-willi-01-02",3,65536,"2026-05-02T08:15:10"],
    [2270,0,11.94,0,5,100,0,11,4,"ulm-talkingtree-merle-01-02",0,65536,"2026-05-02T08:16:58"],
    [2271,0,13.8,0,46,100,0,15,32.28,"ulm-talkingtree-manni-01-02",0,65536,"2026-05-02T08:18:51"],
    [2272,0,14.23,0,45,100,0,14,31.36,"ulm-talkingtree-maja-01-02",3,65536,"2026-05-02T08:29:31"],
    [2273,0,12.5,0,33,100,0,14,19.51,"ulm-talkingtree-troeti-01-02",3,65536,"2026-05-02T08:58:16"],
    [2274,0,22.08,0,49,100,0,15,36.82,"ulm-hafenbad-01-02",2,65536,"2026-05-02T09:00:48"],
    [2275,0,0,0,0,100,0,15,0,"ulm-talkingtree-friedl-01-02",0,65536,"2026-05-02T09:04:18"],
    [2276,0,16.42,0,34,99,0,14,19.93,"ulm-schwambergerstr-01-02",3,65536,"2026-05-02T09:33:39"],
    [2277,0,13.22,0,30,100,0,13,16.61,"ulm-schwambergerstr-03-02",3,65536,"2026-05-02T10:09:55"],
    [2278,0,13.02,0,48,100,0,13,35.13,"ulm-schwambergerstr-02-02",3,65536,"2026-05-02T11:01:17"],
    [2279,0,11.89,0,5,100,0,19,4.03,"ulm-talkingtree-merle-01-02",0,65536,"2026-05-02T12:16:57"],
    [2280,0,13.89,0,46,99,0,34,33.21,"ulm-talkingtree-manni-01-02",0,65536,"2026-05-02T12:18:49"],
    [2281,0,14.05,0,45,100,0,24,31.44,"ulm-talkingtree-maja-01-02",3,65536,"2026-05-02T12:29:30"],
    [2282,0,21.67,0,49,99,0,35,36.68,"ulm-hafenbad-01-02",2,65536,"2026-05-02T13:00:46"],
    [2283,0,13.18,0,29,99,0,22,16.58,"ulm-schwambergerstr-03-02",3,65536,"2026-05-02T14:09:54"],
    [2284,0,12.98,0,48,99,0,18,35.18,"ulm-schwambergerstr-02-02",3,65536,"2026-05-02T15:01:15"],
    [2285,0,12.27,0,31,100,0,20,17.78,"ulm-talkingtree-willi-01-02",3,65536,"2026-05-02T16:15:07"],
    [2286,0,14.37,0,47,100,0,23,33.82,"ulm-talkingtree-manni-01-02",0,65536,"2026-05-02T16:18:48"],
    [2287,0,14.16,0,45,100,0,27,31.49,"ulm-talkingtree-maja-01-02",3,65536,"2026-05-02T16:29:29"],
    [2288,0,12.73,0,34,100,0,18,19.86,"ulm-talkingtree-troeti-01-02",3,65536,"2026-05-02T16:58:13"],
    [2289,0,21.88,0,49,99,0,25,36.66,"ulm-hafenbad-01-02",2,65536,"2026-05-02T17:00:45"],
    [2290,0,0,0,0,100,0,23,0,"ulm-talkingtree-friedl-01-02",0,65536,"2026-05-02T17:04:15"],
    [2291,0,16.67,0,34,99,0,25,19.96,"ulm-schwambergerstr-01-02",3,65536,"2026-05-02T17:33:37"],
    [2292,0,13.35,0,29,99,0,18,16.49,"ulm-schwambergerstr-03-02",3,65536,"2026-05-02T18:09:53"],
    [2293,0,13.3,0,48,99,0,17,35.13,"ulm-schwambergerstr-02-02",3,65536,"2026-05-02T19:01:14"],
    [2294,0,12.65,0,31,100,0,15,17.56,"ulm-talkingtree-willi-01-02",3,65536,"2026-05-02T20:15:05"],
    [2295,0,12.2,0,5,100,0,15,4,"ulm-talkingtree-merle-01-02",0,65536,"2026-05-02T20:16:54"],
    [2296,0,14.48,0,45,100,0,14,31.25,"ulm-talkingtree-maja-01-02",3,65536,"2026-05-02T20:29:28"],
    [2297,0,22.88,0,48,100,0,18,36.41,"ulm-hafenbad-01-02",2,65536,"2026-05-02T21:00:44"],
    [2298,0,0,0,0,100,0,14,0,"ulm-talkingtree-friedl-01-02",0,65536,"2026-05-02T21:04:14"],
    [2299,0,13.82,0,29,99,0,15,16.1,"ulm-schwambergerstr-03-02",3,65536,"2026-05-02T22:09:52"],
    [2300,0,13.82,0,48,100,0,14,35.09,"ulm-schwambergerstr-02-02",3,65536,"2026-05-02T23:01:13"],
    [2301,0,12.9,0,31,100,0,13,17.53,"ulm-talkingtree-willi-01-02",3,65536,"2026-05-03T00:15:04"],
    [2302,0,12.43,0,5,100,0,13,3.87,"ulm-talkingtree-merle-01-02",0,65536,"2026-05-03T00:16:53"],
    [2303,0,14.8,0,47,100,0,13,34.34,"ulm-talkingtree-manni-01-02",0,65536,"2026-05-03T00:18:46"],
    [2304,0,23.48,0,48,100,0,14,36.48,"ulm-hafenbad-01-02",2,65536,"2026-05-03T01:00:42"],
    [2305,0,17.39,0,34,99,0,13,19.85,"ulm-schwambergerstr-01-02",3,65536,"2026-05-03T01:33:35"],
    [2306,0,14.11,0,28,100,0,13,15.9,"ulm-schwambergerstr-03-02",3,65536,"2026-05-03T02:09:50"],
    [2307,0,14.06,0,48,100,0,12,35.23,"ulm-schwambergerstr-02-02",3,65536,"2026-05-03T03:01:12"],
    [2308,0,12.94,0,31,100,0,11,17.49,"ulm-talkingtree-willi-01-02",3,65536,"2026-05-03T04:15:02"],
    [2309,0,12.52,0,4,100,0,11,3.75,"ulm-talkingtree-merle-01-02",0,65536,"2026-05-03T04:16:51"],
    [2310,0,14.65,0,48,100,0,11,35.06,"ulm-talkingtree-manni-01-02",0,65536,"2026-05-03T04:18:45"],
    [2311,0,14.75,0,45,100,0,8,31.12,"ulm-talkingtree-maja-01-02",3,65536,"2026-05-03T04:29:26"],
    [2312,0,13.08,0,34,100,0,11,20.24,"ulm-talkingtree-troeti-01-02",3,65536,"2026-05-03T04:58:08"],
    [2313,0,23.47,0,49,100,0,12,36.83,"ulm-hafenbad-01-02",2,65536,"2026-05-03T05:00:41"],
    [2314,0,14.2,0,28,99,0,12,15.87,"ulm-schwambergerstr-03-02",3,65536,"2026-05-03T06:09:49"],
    [2315,0,14.06,0,48,100,0,12,35.41,"ulm-schwambergerstr-02-02",3,65536,"2026-05-03T07:01:10"],
    [2316,0,12.84,0,31,100,0,15,17.46,"ulm-talkingtree-willi-01-02",3,65536,"2026-05-03T08:15:01"],
    [2317,0,12.5,0,4,100,0,13,3.7,"ulm-talkingtree-merle-01-02",0,65536,"2026-05-03T08:16:50"],
    [2318,0,14.45,0,48,100,0,17,35.5,"ulm-talkingtree-manni-01-02",0,65536,"2026-05-03T08:18:43"],
    [2319,0,14.58,0,45,100,0,17,30.99,"ulm-talkingtree-maja-01-02",3,65536,"2026-05-03T08:29:26"],
    [2320,0,23.09,0,49,100,0,19,37.09,"ulm-hafenbad-01-02",2,65536,"2026-05-03T09:00:39"],
    [2321,0,14.18,0,29,99,0,16,15.97,"ulm-schwambergerstr-03-02",3,65536,"2026-05-03T10:09:48"],
    [2322,0,13.96,0,48,99,0,15,35.5,"ulm-schwambergerstr-02-02",3,65536,"2026-05-03T11:01:09"],
    [2323,0,12.76,0,31,100,0,19,17.33,"ulm-talkingtree-willi-01-02",3,65536,"2026-05-03T12:14:59"],
    [2324,0,14.51,0,48,100,0,32,36.06,"ulm-talkingtree-manni-01-02",0,65536,"2026-05-03T12:18:42"],
    [2325,0,14.43,0,45,99,0,25,31.09,"ulm-talkingtree-maja-01-02",3,65536,"2026-05-03T12:29:25"],
    [2326,0,13.16,0,35,100,0,21,20.46,"ulm-talkingtree-troeti-01-02",3,65536,"2026-05-03T12:58:05"],
    [2327,0,22.74,0,49,99,0,28,37.29,"ulm-hafenbad-01-02",2,65536,"2026-05-03T13:00:38"],
    [2328,0,0,0,0,100,0,27,0,"ulm-talkingtree-friedl-01-02",0,65536,"2026-05-03T13:04:10"],
    [2329,0,14.15,0,28,100,0,20,15.86,"ulm-schwambergerstr-03-02",3,65536,"2026-05-03T14:09:47"],
    [2330,0,14.03,0,48,99,0,19,35.5,"ulm-schwambergerstr-02-02",3,65536,"2026-05-03T15:01:08"],
    [2331,0,12.88,0,30,100,0,20,17.17,"ulm-talkingtree-willi-01-02",3,65536,"2026-05-03T16:14:58"],
    [2332,0,12.53,0,5,100,0,19,3.92,"ulm-talkingtree-merle-01-02",0,65536,"2026-05-03T16:16:47"],
    [2333,0,14.57,0,45,100,0,26,31.03,"ulm-talkingtree-maja-01-02",3,65536,"2026-05-03T16:29:24"],
    [2334,0,13.26,0,35,100,0,19,20.52,"ulm-talkingtree-troeti-01-02",3,65536,"2026-05-03T16:58:03"],
    [2335,0,22.89,0,49,99,0,25,37.47,"ulm-hafenbad-01-02",2,65536,"2026-05-03T17:00:36"],
    [2336,0,0,0,0,100,0,23,0,"ulm-talkingtree-friedl-01-02",0,65536,"2026-05-03T17:04:09"],
    [2337,0,17.45,0,34,99,0,25,19.94,"ulm-schwambergerstr-01-02",3,65536,"2026-05-03T17:33:31"],
    [2338,0,14.34,0,28,99,0,19,15.89,"ulm-schwambergerstr-03-02",3,65536,"2026-05-03T18:09:45"],
    [2339,0,14.38,0,48,99,0,18,35.28,"ulm-schwambergerstr-02-02",3,65536,"2026-05-03T19:01:07"],
    [2340,0,13.15,0,30,100,0,16,17.04,"ulm-talkingtree-willi-01-02",3,65536,"2026-05-03T20:14:56"],
    [2341,0,12.69,0,4,100,0,16,3.65,"ulm-talkingtree-merle-01-02",0,65536,"2026-05-03T20:16:46"],
    [2342,0,15.22,0,49,100,0,17,36.79,"ulm-talkingtree-manni-01-02",0,65536,"2026-05-03T20:18:40"],
    [2343,0,14.87,0,45,100,0,17,30.8,"ulm-talkingtree-maja-01-02",3,65536,"2026-05-03T20:29:23"],
    [2344,0,13.4,0,35,100,0,15,20.42,"ulm-talkingtree-troeti-01-02",3,65536,"2026-05-03T20:58:02"],
    [2345,0,0,0,0,100,0,15,0,"ulm-talkingtree-friedl-01-02",0,65536,"2026-05-03T21:04:08"],
    [2346,0,14.67,0,28,99,0,16,15.7,"ulm-schwambergerstr-03-02",3,65536,"2026-05-03T22:09:44"],
    [2347,0,14.82,0,48,100,0,15,35.4,"ulm-schwambergerstr-02-02",3,65536,"2026-05-03T23:01:05"]
]}
